RACE RESULTS BY SPLIT SECOND TIMING
US Road Sports and Entertainment Group
Presents
BlueCross Blue Shield of Florida
Turkey Trot 5K/10K
5k Results
Miami, Florida November 28,2013
Click Here for 10K Results

Top Three Overall Male

Place Bib Oallplace First Name Last Name Age Finish Gun_time Pace
1 1036 1 Mark Allen 23 14:59 00:14:59 4:50
2 4770 2 Robert Novak 27 15:28 00:15:28 4:59
3 4448 3 Geoffrey Zelek 20 16:04 00:16:04 5:11

Top Three Overall Female

Place Bib Oallplace First Name Last Name Age Finish Gun_time Pace
1 4749 12 Daniela Espino 23 17:44 00:17:44 5:43
2 4774 13 Paola Reategui 26 17:44 00:17:44 5:43
3 3825 21 Corina Velazco 19 18:11 00:18:11 5:51

Top Master Male

Place Bib Oallplace First Name Last Name Age Finish Net_time Pace
1 3397 17 Frank Green 54 18:00 00:17:56 5:47

Top Master Female

Place Bib Oallplace First Name Last Name Age Finish Net_time Pace
1 2492 146 Marcia Pereira 42 22:34 00:21:58 7:04

MALE AGE GROUP: 1 - 12

Place Bib Oallplace First Name Last Name Age Finish Net_time Pace
1 3513 48 Jorge Morasso 11 19:39 00:19:31 6:17
2 2552 70 Yader Portocarrero 12 20:05 00:20:03 6:27
3 3523 81 Gabriel Nunes 12 20:29 00:20:20 6:33
4 3477 85 Adam Magoulas 10 20:29 00:20:23 6:34
5 3380 87 Diego Gomez 10 20:31 00:20:25 6:35
6 4288 88 Jonah Brenner 11 20:31 00:20:26 6:35
7 3628 111 Austin San Juan 11 21:12 00:21:07 6:48
8 6903 132 Marcus Mata 9 24:07 00:21:41 6:59
9 3512 135 Eduardo Morasso 11 21:54 00:21:47 7:01
10 4556 138 Ryan Gonzalez 12 24:16 00:21:51 7:02
11 1065 158 Michael Alvarez 9 22:10 00:22:08 7:08
12 1506 179 Adrian De La Rosa 12 22:36 00:22:32 7:16
13 1100 200 Benjamin Arnold 9 23:19 00:22:58 7:24
14 3757 217 Juan Jaureguizar 10 23:44 00:23:17 7:30
15 4577 220 Rowen Pouza 9 25:45 00:23:19 7:31
16 3532 231 F. Christian Olazabal 10 27:01 00:23:29 7:34
17 3742 234 Oliver Gaines 7 27:37 00:23:31 7:34
18 3729 235 Adrian Delgado 9 24:58 00:23:32 7:35
19 3265 244 Quinton Burkett 10 23:43 00:23:38 7:37
20 3819 247 Dale Underwood 9 23:55 00:23:45 7:39
21 2889 276 Jackson Stone 7 26:31 00:24:09 7:47
22 3710 288 Anthony Bergnes 9 25:50 00:24:23 7:51
23 3959 289 Ricky Correoso 9 25:15 00:24:24 7:51
24 3353 292 Gabriel Gadala-Maria 11 28:52 00:24:26 7:52
25 6894 298 Sebastian Henao 12 26:23 00:24:29 7:53
26 4195 321 Nicholas Delgado 10 28:48 00:24:47 7:59
27 4040 359 Lucas De La Hoz 12 25:45 00:25:06 8:05
28 3384 361 Gervacio Gonzalez 10 25:12 00:25:08 8:06
29 2437 368 Christian Padron 12 25:15 00:25:12 8:07
30 4219 379 William Kranenburg 10 33:57 00:25:21 8:10
31 3740 415 Cameron Gaines 10 29:51 00:25:51 8:19
32 3762 422 Collin Jung 12 29:56 00:25:55 8:21
33 3754 477 Colin Huget 9 29:26 00:26:26 8:31
34 4432 484 Cort Snyder 8 27:35 00:26:28 8:32
35 2358 490 Max Murillo 12 27:54 00:26:32 8:33
36 3247 509 Brent Becerra 12 26:52 00:26:41 8:36
37 2196 541 Joshua Markowitz 6 33:05 00:27:04 8:43
38 4087 553 Daniel Lurigados 7 28:51 00:27:11 8:45
39 4041 594 Marco De La Hoz 8 28:18 00:27:38 8:54
40 3295 596 Matthew Crespo 11 27:43 00:27:39 8:54
41 3916 612 Nicholas Olazabal 8 31:23 00:27:50 8:58
42 1143 623 Christian Bargueiras 10 33:31 00:27:53 8:59
43 2651 660 Ben Rodriguez 10 29:44 00:28:17 9:07
44 3511 674 Andres Morasso 9 28:33 00:28:25 9:09
45 3945 691 Alex Vega 9 28:36 00:28:33 9:12
46 6882 708 Vicente Cortes 12 33:14 00:28:41 9:14
47 6883 711 Manuel Cortes 12 33:14 00:28:42 9:15
48 4525 717 Cole Woodward 4 29:28 00:28:45 9:15
49 3173 729 Luis Gonzalez-Pella 9 30:17 00:28:51 9:17
50 4039 754 Diego De La Hoz 8 29:42 00:29:02 9:21
51 3910 755 Daniel Soto 9 30:11 00:29:03 9:21
52 1430 762 Brandon Collins 11 30:38 00:29:06 9:22
53 3213 769 Fabrizio Allegra 6 29:15 00:29:08 9:23
54 4189 775 Antonio Ceballos 7 33:00 00:29:11 9:24
55 3311 873 Xavier Diaz-Arguelles 7 29:59 00:29:52 9:37
56 6862 887 Andres Larrea 9 30:06 00:29:56 9:39
57 1716 908 Alberto Garcia 11 34:41 00:30:04 9:41
58 1063 914 Matthew Alvarez 10 30:06 00:30:05 9:41
59 3346 933 Austin Foster 8 30:17 00:30:11 9:43
60 4061 954 Zachary Guice 9 31:00 00:30:24 9:48
61 3675 968 Mateo Vaccaro-Biernat 9 30:40 00:30:29 9:49
62 4498 991 Andre Merchan 12 37:43 00:30:38 9:52
63 3730 1050 Brandon Delgado 12 32:55 00:31:08 10:01
64 3460 1058 Bobby Lesperance 10 32:25 00:31:13 10:03
65 1980 1068 Koa Jones 12 32:24 00:31:16 10:04
66 4381 1085 Giovanni Molina 12 40:31 00:31:21 10:06
67 3942 1090 Denver Boyett 6 33:48 00:31:22 10:06
68 1787 1092 Patrick Gonsoulin 7 32:36 00:31:22 10:06
69 3949 1113 Trevor Burniske 11 32:01 00:31:31 10:09
70 1854 1120 Jordi Guanche 6 33:28 00:31:36 10:10
71 2615 1135 Carlos Restrepo 12 37:41 00:31:38 10:11
72 4740 1146 Zachary Carreno 9 35:32 00:31:43 10:13
73 1682 1169 Caden Fischer 10 41:44 00:31:50 10:15
74 1563 1191 Robert Diaz 10 35:00 00:32:00 10:18
75 4298 1204 Cason Campbell 7 40:16 00:32:05 10:20
76 4300 1207 Colbin Campbell 8 40:16 00:32:05 10:20
77 5369 1227 Nick Frary 12 41:43 00:32:13 10:22
78 4197 1253 Oscar Echegaray 10 40:33 00:32:24 10:26
79 4226 1255 Sebastian Masferrer 7 40:28 00:32:24 10:26
80 3275 1296 Alexandre Castillo 11 33:57 00:32:43 10:32
81 2066 1301 Enzo Lavecchia 11 34:31 00:32:44 10:32
82 3492 1358 Dominic Medina 10 34:19 00:33:04 10:39
83 3428 1367 Christian Johnson 11 41:38 00:33:07 10:40
84 4150 1378 William Templeton 8 34:14 00:33:11 10:41
85 4173 1382 Tomas Aragon 11 41:02 00:33:14 10:42
86 1784 1407 Gian Gomez-Cabello 12 35:07 00:33:27 10:46
87 3047 1454 Andre Velez 8 35:18 00:33:47 10:53
88 2926 1490 James Tart 9 37:25 00:34:05 10:59
89 2923 1493 Andrew Tart 9 37:27 00:34:06 10:59
90 6887 1505 Carter Young 9 40:55 00:34:09 11:00
91 2579 1537 Marc Quarrie 8 35:59 00:34:21 11:04
92 2650 1548 Anthony Rodriguez 12 41:40 00:34:26 11:05
93 1185 1578 Liam Begley 7 42:50 00:34:37 11:09
94 2550 1580 Nicolas Portocarrero 10 43:28 00:34:38 11:09
95 3829 1585 Rodrigo Velazco 10 35:42 00:34:41 11:10
96 1255 1593 Brandon Brana 9 42:16 00:34:45 11:12
97 3594 1607 Liam Reed 12 39:44 00:34:49 11:13
98 3745 1608 Matthew Garcia 11 39:28 00:34:49 11:13
99 3522 1613 Lucas Nieto 10 36:55 00:34:52 11:14
100 2907 1618 Justin Swartz 10 36:59 00:34:54 11:14
101 1644 1641 Andres Fernandez 12 35:54 00:35:04 11:17
102 3132 1646 Geoffrey Woodman 11 35:57 00:35:05 11:18
103 3023 1664 Austin Van Riper 6 43:51 00:35:12 11:20
104 1069 1668 Jake Amster 8 42:41 00:35:14 11:21
105 3436 1688 Aaron Kirkpatrick 12 43:01 00:35:20 11:23
106 1586 1700 Brandon Dunnigan 12 37:18 00:35:24 11:24
107 1598 1729 Aitor Echeverria 11 44:14 00:35:37 11:28
108 1435 1780 Nicolas Concepcion 10 37:27 00:36:11 11:39
109 1587 1792 Ethan Dunnigan 9 38:09 00:36:14 11:40
110 2797 1811 Cole Schmidt 9 38:25 00:36:24 11:43
111 2846 1830 Brady Smith 8 42:04 00:36:32 11:46
112 1090 1833 Charles Arencibia 8 42:04 00:36:33 11:46
113 1092 1835 Patrick Arencibia 11 42:04 00:36:34 11:46
114 3230 1842 Nicholas Augustin 11 40:44 00:36:37 11:48
115 3103 1872 Devian Wells 9 40:51 00:36:51 11:52
116 4258 1918 Ben Stanisky 10 39:31 00:37:16 12:00
117 2264 1924 Dylan Medina 6 43:06 00:37:17 12:00
118 1367 1939 Alejandro Cejas 7 39:22 00:37:29 12:04
119 1547 1940 Jake Dewitt 11 45:08 00:37:29 12:04
120 4575 1947 Nidia Perez 4 46:19 00:37:33 12:05
121 2899 1982 Ethan Sullivan 7 46:00 00:37:48 12:10
122 3011 1991 Sebastian Valdes 8 46:21 00:37:51 12:11
123 1453 2006 Julian Cordo 10 42:28 00:38:03 12:15
124 4738 2050 Lucas Rubiera 7 46:38 00:38:29 12:23
125 4420 2056 Daniel Sanchez 12 40:36 00:38:31 12:24
126 3327 2095 James Dupre 11 40:03 00:38:48 12:30
127 3804 2105 Luis Salazar 10 49:16 00:38:54 12:32
128 2254 2106 Brennen McKee 11 39:04 00:38:54 12:32
129 2354 2115 Jonathan Munoz 11 45:09 00:38:59 12:33
130 1599 2125 Gabriel Echeverria 8 47:43 00:39:05 12:35
131 3559 2131 Ryan Perry-Smith 12 45:13 00:39:08 12:36
132 3358 2139 Christian Garaycoa 12 45:38 00:39:15 12:38
133 4533 2157 Cade Bouza 9 46:30 00:39:25 12:42
134 1184 2160 Jonah Begley 5 48:00 00:39:27 12:42
135 1445 2174 Jorge Contreras 11 45:21 00:39:35 12:45
136 2043 2187 Lucas Kurz 11 48:34 00:39:39 12:46
137 1593 2244 Jack Dwyer 10 47:05 00:40:27 13:01
138 2983 2306 Marcus Tyler 8 44:47 00:41:11 13:16
139 2780 2333 Victor Sanchez 10 43:59 00:41:27 13:21
140 3966 2337 John Castellanos 9 45:37 00:41:31 13:22
141 1849 2340 Kiernan Gualandi 10 47:08 00:41:36 13:24
142 4497 2352 Alec Merchan 9 50:39 00:41:42 13:26
143 3593 2356 Colin Reed 10 46:43 00:41:47 13:27
144 1235 2396 Christopher Bolanos 10 44:05 00:42:20 13:38
145 3665 2415 Elliott Stubbington 8 43:22 00:42:31 13:41
146 4463 2418 Kiran Desai 10 50:02 00:42:33 13:42
147 4664 2424 Jonathan Larios 10 46:15 00:42:35 13:43
148 4294 2438 Giancarlo Bustos 11 49:28 00:42:43 13:45
149 3832 2458 Harry Wernick 8 49:48 00:43:00 13:51
150 2986 2481 Beltran Ulloa 12 53:43 00:43:31 14:01
151 3144 2485 Preston Yuen 10 52:33 00:43:34 14:02
152 3142 2487 Ashton Yuen 11 52:34 00:43:35 14:02
153 1203 2490 Adrian Betancourt 11 53:25 00:43:38 14:03
154 4592 2503 Evan Tome 8 49:13 00:43:47 14:06
155 4286 2523 Rocco Branger 7 52:19 00:44:06 14:12
156 4221 2635 Eric Llambes 10 54:33 00:46:01 14:49
157 3733 2645 Lucca Farnesi 6 48:39 00:46:07 14:51
158 1542 2671 James Dettbarn 12 56:28 00:46:43 15:03
159 3805 2734 Maximo Salazar 9 54:17 00:47:52 15:25
160 3145 2754 Tristan Yuen 8 57:10 00:48:09 15:30
161 3695 2760 Maxwell Wolfe 8 48:48 00:48:18 15:33
162 3318 2787 Joseph Dominguez 10 53:59 00:48:44 15:41
163 2847 2797 Connor Smith 11 54:28 00:48:56 15:45
164 1373 2800 Jose Cepeda 8 54:44 00:49:03 15:48
165 2464 2834 David Pasternac 8 59:37 00:49:38 15:59
166 2115 2851 Garrett Livingston 12 54:37 00:49:53 16:04
167 1895 2864 Juan Henao 11 50:48 00:50:09 16:09
168 1630 2870 Andrew Falconi 10 56:03 00:50:15 16:11
169 4462 2927 Chetan Desai 7 58:55 00:51:22 16:32
170 3706 2949 Tristan Barriento 10 1:01:28 00:51:48 16:41
171 3705 2950 Julian Barriento 11 1:01:30 00:51:49 16:41
172 2722 2953 Jorgie Rubi Jr. 7 1:01:33 00:51:50 16:41
173 1653 2980 Lucas Fernandez 10 52:48 00:52:29 16:54
174 1579 3035 Ryan Dougery 10 1:03:02 00:53:44 17:18
175 4557 3055 Andres Cabral 9 1:02:01 00:54:12 17:27
176 3101 3081 Spencer Weirbach 12 58:34 00:54:37 17:35
177 2572 3107 Pablo Puga 11 1:00:18 00:55:15 17:47
178 2759 3164 Luciano Salerno 9 1:01:47 00:57:23 18:28
179 4191 3184 Sebastian Ceballos 11 1:02:03 00:58:16 18:46
180 3623 3226 Tomas Ruan 10 1:01:02 00:59:45 19:14
181 2398 3256 Christopher Oeltjen 8 1:11:25 01:01:13 19:43
182 4218 3309 Christopher Kranenburg 8 1:14:36 01:05:57 21:14

FEMALE AGE GROUP: 1 - 12

Place Bib Oallplace First Name Last Name Age Finish Net_time Pace
1 1075 71 Rahyah Andressohn 12 20:06 00:20:04 6:28
2 3823 91 Natalie Varela 11 20:33 00:20:33 6:37
3 1138 128 Bianca Banato 11 21:32 00:21:29 6:55
4 3711 154 Rebecca Bergnes 11 23:47 00:22:04 7:06
5 3648 177 Jordan Shapiro 11 22:37 00:22:30 7:15
6 3771 210 Danielle Martinez 10 23:17 00:23:11 7:28
7 1860 304 Ane Guerrero 9 24:41 00:24:33 7:54
8 3952 384 Hanna Gehr 11 27:59 00:25:25 8:11
9 3372 397 Evelyn Giron 9 25:36 00:25:35 8:15
10 3445 429 Daphney Lagroue 7 26:06 00:25:58 8:22
11 2869 461 Katherine Soule 10 27:46 00:26:15 8:27
12 3970 491 Mary Darmody 8 28:18 00:26:32 8:33
13 1127 515 Delilah Ayan 12 27:16 00:26:46 8:37
14 3463 542 Trisha Lesperance 8 27:39 00:27:05 8:43
15 3656 575 Sophia Sondon 9 27:30 00:27:22 8:49
16 3448 679 Valerie Lagroue 12 28:35 00:28:28 9:10
17 3927 704 Katia Perez-Sanchez 11 29:51 00:28:39 9:14
18 2364 728 Sarah Murphy 11 29:57 00:28:49 9:17
19 1456 734 Ali Correoso 10 30:15 00:28:53 9:18
20 1920 768 Sophia Hidalgo 10 29:09 00:29:08 9:23
21 2823 793 Jade Sharon 11 32:03 00:29:21 9:27
22 1954 810 Victoria Izquierdo 10 30:43 00:29:30 9:30
23 3260 838 Jordan Brashears 12 39:15 00:29:39 9:33
24 2491 916 Ana Pereira 10 30:41 00:30:05 9:41
25 3388 944 Sofia Gonzalez 12 30:24 00:30:18 9:46
26 3207 955 Josie Whelan 9 31:01 00:30:25 9:48
27 3174 959 Vicky Gonzalez-Pella 11 32:15 00:30:26 9:48
28 2676 962 Rebeca Rodriguez 12 32:14 00:30:27 9:49
29 4385 966 Maria Paulina Montalvo 12 36:24 00:30:28 9:49
30 3691 973 Brianna Wall 9 30:40 00:30:32 9:50
31 2911 980 Anamilena Tamariz 9 31:19 00:30:36 9:51
32 2840 1006 Natalia Sinibaldi 9 33:46 00:30:45 9:54
33 1578 1069 Karina Dougery 12 40:29 00:31:16 10:04
34 2839 1075 Alessandra Sinibaldi 12 34:18 00:31:17 10:05
35 2577 1102 Alyssa Quarrie 11 33:03 00:31:27 10:08
36 3377 1121 Julia Goldish 12 37:11 00:31:36 10:11
37 4662 1152 Elyssa Kilmer 12 32:21 00:31:45 10:13
38 1889 1226 Lily Harris 12 36:35 00:32:13 10:22
39 1861 1229 Annabella Guerrero 11 33:46 00:32:13 10:23
40 3575 1266 Alexandra Procce 12 36:49 00:32:28 10:27
41 3447 1321 Natalie Lagroue 10 32:59 00:32:51 10:35
42 3488 1334 Sarah Matos 11 36:55 00:32:54 10:36
43 1572 1359 Evie Dolan 9 40:27 00:33:05 10:39
44 4255 1425 Miranda Shapiro 10 35:55 00:33:35 10:49
45 2713 1427 Lindsay Roth 8 33:53 00:33:35 10:49
46 3951 1494 Mallory Sullivan 10 37:27 00:34:07 10:59
47 1245 1521 Jenna Bondy 12 36:28 00:34:14 11:02
48 1244 1524 Camilla Bondy 10 36:28 00:34:15 11:02
49 3932 1527 Amelie Guevara 10 40:54 00:34:16 11:02
50 2648 1536 Alina Rodriguez 8 36:24 00:34:21 11:04
51 3930 1538 Andrea Del Cueto Perez 10 40:41 00:34:22 11:04
52 4014 1560 Kathryn Almond 10 37:10 00:34:30 11:07
53 4015 1568 Megan Almond 9 37:14 00:34:33 11:07
54 3111 1573 Natalia Williams 9 55:33 00:34:34 11:08
55 1568 1587 Dibe Digregorio 12 40:53 00:34:42 11:10
56 2699 1663 Anelis Roque 10 39:57 00:35:12 11:20
57 1179 1673 Giovanna Befeler 12 36:23 00:35:15 11:21
58 3934 1689 Ashley De Feu 9 40:33 00:35:20 11:23
59 3778 1696 Adriana Meijaard 11 35:26 00:35:22 11:23
60 3444 1701 Christina Lagas 12 43:36 00:35:24 11:24
61 3328 1712 Soleil Dupre 8 36:44 00:35:28 11:25
62 3800 1767 Eva Rovira 12 43:51 00:36:00 11:36
63 2888 1818 Dylan Stone 10 38:49 00:36:27 11:44
64 1418 1820 Grace Cockrell 12 38:29 00:36:28 11:44
65 3905 1832 Alessandra Masi 9 42:04 00:36:33 11:46
66 4153 1895 Sydney Toledo 10 38:46 00:36:59 11:54
67 3816 1904 Alexandra Taubas 10 42:55 00:37:05 11:56
68 1981 1909 Naia Jones 10 38:13 00:37:09 11:58
69 3443 1914 Briana Lagas 10 45:25 00:37:11 11:58
70 2122 1927 Allison Llevat 11 43:12 00:37:20 12:01
71 3277 1931 Camila Castro 10 47:32 00:37:22 12:02
72 4154 1949 Victoria Toledo 8 39:20 00:37:33 12:05
73 2796 1961 Carli Schmidt 7 39:39 00:37:38 12:07
74 3300 1975 Madison Daire 6 46:41 00:37:43 12:09
75 3770 1980 Abigail Martinez 11 44:06 00:37:47 12:10
76 2880 1986 Adriana Stavrou 10 41:49 00:37:50 12:11
77 3012 1992 Sofia Valdes 11 46:21 00:37:51 12:11
78 3258 2026 Lauren Black 8 46:17 00:38:16 12:19
79 4067 2064 Paulina Hernandez 9 47:04 00:38:35 12:25
80 3708 2065 Emma Beharry 9 47:04 00:38:35 12:25
81 4164 2066 Siena Worland 10 47:05 00:38:36 12:26
82 1051 2091 Natalie Alonzo 10 44:56 00:38:48 12:30
83 1050 2099 Sienna Alonso 8 47:00 00:38:51 12:31
84 1439 2101 Katherine Condis 12 42:20 00:38:52 12:31
85 4417 2107 Daniela Retana 8 47:05 00:38:54 12:32
86 2263 2127 Danielle Medina 9 44:54 00:39:06 12:35
87 1663 2130 Sophie Ferrer 4 44:04 00:39:08 12:36
88 2105 2136 Madelyn Lietz 12 47:31 00:39:15 12:38
89 1352 2172 Gabriella Castillo 10 48:56 00:39:34 12:44
90 1662 2225 Maya Ferrer 4 45:06 00:40:10 12:56
91 1370 2258 Sasha Cejas 9 42:19 00:40:35 13:04
92 3394 2267 Allison Gould 10 46:18 00:40:38 13:05
93 3378 2268 Katie Goldish 10 46:18 00:40:39 13:05
94 2736 2274 Franchesca Ruiz 11 42:20 00:40:49 13:08
95 3262 2275 Isabella Bruna 11 42:23 00:40:49 13:09
96 3022 2283 Alyssa Van Riper 8 49:33 00:40:56 13:11
97 6802 2291 Amanda Andrews 8 51:07 00:41:00 13:12
98 3747 2292 Daniella Garcia-Novas 10 45:41 00:41:02 13:13
99 3334 2293 Giulianna Faillace 10 41:37 00:41:02 13:13
100 2919 2300 Alejandra Tapias 11 41:25 00:41:06 13:14
101 2920 2302 Sofia Tapias 10 41:25 00:41:07 13:14
102 1565 2313 Victoria Diaz 8 44:16 00:41:15 13:17
103 2772 2328 Celeste Sanchez 10 43:59 00:41:25 13:20
104 1903 2367 Elisa Hernandez 11 43:48 00:41:54 13:30
105 3159 2383 Jessica Cramer 11 47:16 00:42:08 13:34
106 4199 2420 Rosaura Echegaray 8 50:43 00:42:34 13:42
107 3755 2446 Isabella Jaureguizar 9 47:42 00:42:50 13:48
108 3127 2449 Kayla Wolfson 11 50:52 00:42:53 13:49
109 1834 2450 Abigail Gottlieb 11 50:52 00:42:54 13:49
110 1380 2452 Isabella Chacin 7 48:08 00:42:57 13:50
111 2362 2470 Madeline Murphy 8 44:57 00:43:19 13:57
112 1071 2484 Miri Amster 6 50:58 00:43:33 14:01
113 4475 2502 Lauren Heller 9 53:19 00:43:46 14:06
114 1850 2511 Marin Gualandi 8 49:25 00:43:55 14:08
115 4635 2543 Nicole Soden 9 51:36 00:44:27 14:19
116 3455 2568 Isabel Latorre 11 54:52 00:44:45 14:25
117 3454 2569 Gabriela Latorre 9 54:52 00:44:46 14:25
118 1592 2579 Colleen Dwyer 12 51:40 00:45:02 14:30
119 2258 2582 Amanda Mechaber 10 48:44 00:45:06 14:31
120 3880 2588 Kieran Oldfield 10 48:30 00:45:12 14:33
121 3264 2593 Brianna Buchler 12 53:51 00:45:16 14:35
122 1256 2614 Ellie Brana 4 53:12 00:45:43 14:43
123 2999 2626 Amanda Urreta 10 55:15 00:45:52 14:46
124 3735 2628 Mia Farnesi 8 48:30 00:45:58 14:48
125 2571 2638 Mariana Puga 10 51:08 00:46:04 14:50
126 3739 2656 Luis Fernandez De Castr 9 53:02 00:46:19 14:55
127 4742 2685 Gabriella Bodarky 11 48:48 00:47:02 15:09
128 3179 2691 Sydney Kingcade 10 52:50 00:47:07 15:10
129 4066 2702 Jeslean Hernandez 12 48:47 00:47:18 15:14
130 1353 2716 Isabella Castillo 8 57:06 00:47:43 15:22
131 2312 2721 Daniela Montes De Oca 12 55:00 00:47:46 15:23
132 3178 2725 Simone Kingcade 10 53:29 00:47:47 15:23
133 4775 2728 Victoria Estefani 9 49:37 00:47:49 15:24
134 4777 2729 Veronica Estefani 7 49:37 00:47:49 15:24
135 3802 2733 Lucia Salazar 7 54:17 00:47:51 15:25
136 3214 2740 Valentina Allegra 8 48:08 00:47:57 15:26
137 4444 2767 Daniella Weihl 12 53:53 00:48:21 15:34
138 3605 2792 Maya Rionda 9 58:21 00:48:52 15:44
139 3234 2793 Victoria Baiter 11 58:23 00:48:53 15:44
140 3604 2796 Claudia Rionda 8 58:24 00:48:56 15:45
141 4024 2808 Alexandra Calvo 10 56:43 00:49:10 15:50
142 3602 2810 Cari Rionda 10 58:42 00:49:12 15:51
143 1371 2813 Amantina Cepeda 10 54:57 00:49:16 15:52
144 4182 2829 Nicole Bohlmann 9 54:32 00:49:33 15:57
145 4136 2830 Alisa Sanchez 12 57:25 00:49:35 15:58
146 2463 2837 Catherine Pasternac 10 59:38 00:49:40 16:00
147 1399 2896 Kailey Chin 11 55:03 00:50:52 16:23
148 2005 2932 Livia Kaufman 11 59:09 00:51:29 16:35
149 2006 2935 Marly Kaufman 11 59:11 00:51:33 16:36
150 4412 2936 Ashley Rodriguez 12 1:00:48 00:51:33 16:36
151 2720 2954 Faith Rubi 7 1:01:33 00:51:51 16:42
152 2585 2983 Natalia Rabuini 9 54:47 00:52:33 16:55
153 2584 2986 Briana Rabuini 10 54:55 00:52:41 16:58
154 1533 2998 Carolina Delpino 8 58:51 00:52:55 17:02
155 3704 3014 Skyler Augusta 8 1:03:51 00:53:24 17:11
156 3899 3022 Alessandra Wade 7 1:01:08 00:53:31 17:14
157 4291 3036 Ana Buitrago 7 54:21 00:53:45 17:18
158 1215 3046 Elisa Blanco 10 1:01:40 00:53:58 17:22
159 2617 3066 Ellie Rey 10 57:47 00:54:19 17:29
160 1216 3069 Isabel Blanco 8 1:02:05 00:54:22 17:30
161 3703 3092 Solange Aguero 10 1:08:24 00:54:55 17:41
162 1769 3153 Giselle Goicoechea 11 1:03:22 00:56:59 18:21
163 4720 3154 Mya Lazenby 12 57:18 00:56:59 18:21
164 2760 3166 Sofia Salerno 7 1:01:50 00:57:25 18:29
165 2859 3203 Alyssa Solis 10 1:00:31 00:58:46 18:55
166 3877 3220 Ensley Ogden 11 1:01:07 00:59:24 19:08
167 4428 3221 America Shanower 10 1:02:51 00:59:26 19:08
168 4312 3243 Manuela Cuervo 10 1:11:22 01:00:10 19:22
169 1976 3299 Victoria Johnson 8 1:15:25 01:04:55 20:54
170 1971 3301 Allyson Johnson 7 1:15:25 01:04:56 20:54
171 1144 3365 Sabrina Bargueiras 11 1:21:06 01:15:14 24:13

MALE AGE GROUP: 13 - 15

Place Bib Oallplace First Name Last Name Age Finish Net_time Pace
1 4126 8 Leonardo Rodriguez 15 17:20 00:17:20 5:35
2 4512 18 Jeffrey Serna 15 17:59 00:17:59 5:48
3 3464 30 Syon Lewis 13 18:34 00:18:34 5:59
4 1482 41 Alec Cuevas 15 19:18 00:19:10 6:10
5 4711 47 David Vanegas 15 19:33 00:19:31 6:17
6 4244 50 Giovanni Rosado 14 20:32 00:19:36 6:19
7 4588 79 Henrique Souza 13 22:43 00:20:18 6:32
8 2549 82 Francisco Portocarrero 13 20:21 00:20:21 6:33
9 1887 96 Charlie Harris 14 24:10 00:20:38 6:39
10 6877 102 Jose Penalver 13 20:49 00:20:49 6:42
11 3133 108 John Woodman 14 20:59 00:20:55 6:44
12 3743 117 Christopher Garcia 14 22:22 00:21:14 6:50
13 3274 121 Joseph Castellvi 14 21:21 00:21:17 6:51
14 3746 124 Michael Garcia 14 21:35 00:21:25 6:54
15 1238 130 Nicholas Bolanos 14 23:22 00:21:38 6:58
16 1517 170 Andy Del Valle 13 22:41 00:22:26 7:14
17 4725 176 Mario Garcia 13 22:45 00:22:29 7:15
18 4093 181 Gustavo Mena 14 26:26 00:22:34 7:16
19 2739 190 Christopher Russell 13 22:50 00:22:50 7:21
20 1505 192 Guillermo De La Paz Jr 15 26:15 00:22:51 7:22
21 3246 197 Brandon Becerra 14 23:04 00:22:56 7:23
22 3083 207 Jed Warshaw 13 24:07 00:23:09 7:27
23 1251 208 Guillaume Bourgoignie 14 24:07 00:23:09 7:28
24 1898 212 Chris Hernandez 13 23:54 00:23:11 7:28
25 4393 213 Gustavo Noah 14 23:36 00:23:12 7:29
26 3950 223 Nicolas Burniske 14 23:51 00:23:22 7:32
27 1104 224 Ilan Aronovski 14 24:20 00:23:22 7:32
28 4287 225 Alejandro Bravo 14 23:44 00:23:22 7:32
29 1414 236 Kevin Cliffe 13 24:43 00:23:32 7:35
30 1129 238 David Ayan Ii 14 24:31 00:23:35 7:36
31 2460 261 Carlos Parra 14 25:52 00:23:55 7:42
32 4330 274 Zachary Friedland 13 24:24 00:24:07 7:46
33 3364 280 Piero Gardinali 15 25:41 00:24:14 7:48
34 4708 282 Richard Landin 15 24:37 00:24:15 7:49
35 1260 291 Hagan Brewer 15 24:59 00:24:26 7:52
36 2421 307 Aaron Ortiz 13 29:08 00:24:35 7:55
37 3585 308 Daniel Quesada 13 24:46 00:24:37 7:56
38 4276 366 Gianluca Abate 14 28:10 00:25:11 8:07
39 2912 370 Daniel Tamariz 13 25:47 00:25:18 8:09
40 1771 371 Leandro Goicoechea 13 31:29 00:25:18 8:09
41 1638 405 Aidan Feingold 14 26:06 00:25:43 8:17
42 3784 409 Daniel Moreno 13 26:52 00:25:44 8:17
43 1458 417 Evan Cortes 13 27:54 00:25:52 8:20
44 2024 420 Jonathan Koch 15 29:20 00:25:55 8:21
45 4213 453 Jonathan Junco 15 26:40 00:26:11 8:26
46 4571 458 Alexander Morejon 14 31:05 00:26:14 8:27
47 1231 473 Brandon Bodarky 13 26:26 00:26:23 8:30
48 2365 483 John Murray 15 27:02 00:26:28 8:31
49 1388 494 Abhinav Chatterjee 15 27:07 00:26:33 8:33
50 1632 502 Carson Fallon 14 28:36 00:26:39 8:35
51 4496 566 Jonathan Menendez 14 29:43 00:27:19 8:48
52 3886 583 Gonzalo Partidas 14 28:29 00:27:28 8:51
53 1835 593 Avi Gottlieb 15 31:50 00:27:38 8:54
54 4521 602 Victor Valdes 14 28:36 00:27:44 8:56
55 3414 626 Amadeo Ibarra 15 29:11 00:27:54 8:59
56 4656 630 Alejandro Galella 13 31:10 00:27:56 9:00
57 1647 641 Daniel Fernandez 14 28:53 00:28:03 9:02
58 1926 697 Paul Hoffman 15 29:34 00:28:36 9:13
59 3355 712 Adrian Gandara 14 37:15 00:28:43 9:15
60 3679 742 Jakob Van Auken 15 35:33 00:28:58 9:20
61 5608 756 Rhys Leonard 15 34:26 00:29:03 9:21
62 2680 843 Sergio Rodriguez 15 31:39 00:29:41 9:34
63 2647 845 Alexander Rodriguez 13 31:39 00:29:42 9:34
64 2863 851 Jake Soria 15 36:19 00:29:44 9:35
65 3827 995 Eduardo Velazco 15 31:40 00:30:40 9:53
66 4371 1042 Cristian Matos 15 40:12 00:31:05 10:01
67 2751 1062 Muhammad Sajjad 13 34:59 00:31:14 10:03
68 3273 1130 Jorge Carreno 14 35:27 00:31:37 10:11
69 2784 1320 Sebastian Sanguily 15 35:18 00:32:51 10:35
70 5164 1352 Steven Calles 15 38:58 00:33:00 10:38
71 1523 1545 Cevin Delahoz 13 42:52 00:34:25 11:05
72 2067 1550 Gianni Lavecchia 14 34:28 00:34:28 11:06
73 1186 1565 Christian Belisle 13 40:35 00:34:32 11:07
74 2730 1566 Juan Rubio 14 35:51 00:34:32 11:07
75 2729 1569 Jose Rubio 15 35:51 00:34:33 11:08
76 2717 1615 Thomas Rowe 15 35:50 00:34:52 11:14
77 2349 1679 Joaquin Mulet 13 40:06 00:35:18 11:22
78 1524 1720 Cyler Delahoz 13 44:00 00:35:33 11:27
79 6893 1740 Erik Mesa 14 40:00 00:35:44 11:31
80 1522 1781 Carlos Delahoz 13 44:40 00:36:11 11:39
81 2989 1791 Maximo Ulloa 15 46:26 00:36:14 11:40
82 4590 1979 Saul Tejada 14 40:34 00:37:45 12:09
83 3620 2103 Antonio Ruan 13 40:07 00:38:52 12:31
84 2042 2191 Justin Kurz 15 48:35 00:39:41 12:47
85 4134 2309 Marco Sampaio 13 43:48 00:41:13 13:16
86 3160 2384 Joey Cramer 13 47:15 00:42:08 13:34
87 3968 2435 Kyle Castellanos 13 46:47 00:42:41 13:45
88 2271 2595 Ethan Melendez 13 46:01 00:45:23 14:37
89 1450 2631 Adrian Cordo 13 54:30 00:45:58 14:48
90 1402 2744 Ryan Chin 13 52:11 00:47:59 15:27
91 4617 2922 Adam Martinez 13 53:10 00:51:19 16:31
92 4135 3150 Rafael Sampaio 13 59:30 00:56:57 18:20

FEMALE AGE GROUP: 13 - 15

Place Bib Oallplace First Name Last Name Age Finish Net_time Pace
1 2353 86 Meylin Muniz 14 20:30 00:20:24 6:34
2 3442 92 Niki Kolisch 15 20:49 00:20:35 6:38
3 3571 141 Lauren Potesta 13 23:54 00:21:55 7:04
4 3526 144 Sidney Oakes-Lottridge 14 22:09 00:21:56 7:04
5 1928 167 Kayla Hogan 13 22:28 00:22:22 7:12
6 1449 268 Sarah Cordier 15 24:43 00:24:01 7:44
7 1730 351 Kelsey Garcia 14 32:01 00:25:03 8:04
8 1416 418 Brooke Cockrell 15 26:17 00:25:53 8:20
9 2289 421 Kaitlyn Miller 14 28:12 00:25:55 8:21
10 1463 472 Olivia Cosio 15 26:56 00:26:21 8:29
11 1058 481 Karen Alvarez 13 28:42 00:26:27 8:31
12 3929 482 Carolina Del Cueto Perez 13 32:46 00:26:27 8:31
13 3184 531 Fabiana Matiz 15 27:11 00:27:00 8:42
14 4495 555 Melissa Melchor 15 27:34 00:27:11 8:45
15 3497 561 Sophia Menendez 13 32:11 00:27:13 8:46
16 3584 567 Natalie Quade 15 32:53 00:27:19 8:48
17 1607 578 Brooke Ellis 15 29:25 00:27:26 8:50
18 2835 579 Hayley Simonson 13 28:31 00:27:27 8:50
19 1785 646 Alyssa Gongora 13 30:17 00:28:07 9:03
20 3539 673 Madison Paez 13 29:20 00:28:25 9:09
21 2700 706 Angelina Roque 13 33:26 00:28:40 9:14
22 3801 758 Natalia Rovira 14 36:53 00:29:04 9:22
23 4118 823 Zoey Price 14 29:43 00:29:35 9:32
24 2862 898 Jaclyn Soria 15 36:34 00:29:59 9:39
25 4283 960 Brittany Beckelheimer 14 34:31 00:30:27 9:48
26 2147 967 Sofia Lopez 13 36:43 00:30:29 9:49
27 1703 1064 Jayne Friedman 13 33:27 00:31:14 10:04
28 2991 1071 Nicole Ulowicz 15 33:59 00:31:17 10:04
29 3418 1157 Nicole Isaza 14 33:46 00:31:46 10:14
30 3758 1211 Katarina Jaureguizar 15 36:46 00:32:07 10:21
31 4156 1289 Ana Vega 13 39:41 00:32:40 10:31
32 4172 1294 Audrey Aragon 13 40:31 00:32:42 10:32
33 1161 1317 Sabrina Batlle 14 34:45 00:32:50 10:34
34 1064 1324 Melissa Alvarez 15 35:18 00:32:52 10:35
35 1149 1642 Veronica Barletta 14 43:36 00:35:04 11:18
36 3438 1694 Rachel Kirkpatrick 14 43:02 00:35:22 11:23
37 3480 1713 Vera Mariani 15 37:33 00:35:29 11:26
38 3651 1736 Margarita Sitterson 14 44:51 00:35:42 11:30
39 2791 1738 Mia Schatz 13 37:58 00:35:43 11:30
40 2715 1756 Rebecca Rousseau 15 37:56 00:35:55 11:34
41 1210 1799 Maria Bilbao 15 41:27 00:36:19 11:42
42 1081 1800 Sophia Aranda 15 41:27 00:36:19 11:42
43 4559 1809 Adrianne Han 15 38:27 00:36:23 11:43
44 3924 1848 Gia Llosa 14 39:25 00:36:40 11:48
45 3429 1852 Jessie Jordan 15 42:58 00:36:40 11:49
46 2993 1862 Solange Ulowicz 13 39:39 00:36:47 11:51
47 4048 2021 Amanda Fernandez 14 44:39 00:38:12 12:18
48 2436 2031 Lil Padro 15 44:47 00:38:21 12:21
49 3887 2070 Eileen Perez 14 45:42 00:38:38 12:26
50 1440 2089 Victoria Condis 14 42:06 00:38:47 12:29
51 2403 2104 Tiffany Okeefe 13 46:23 00:38:54 12:31
52 3376 2122 Elizabeth Goldish 15 44:38 00:39:03 12:34
53 3357 2147 Carolina Garaycoa 15 45:42 00:39:18 12:39
54 3000 2173 Gabriela Urreta 14 48:58 00:39:34 12:44
55 4026 2213 Irene Calvo 13 47:28 00:39:55 12:51
56 2109 2220 Sarah Lipshultz 15 46:51 00:40:04 12:54
57 4755 2233 Kristen Meneses 14 40:43 00:40:18 12:59
58 2390 2252 Aryal Novak 15 44:28 00:40:32 13:03
59 2916 2282 Cristi Tanner 14 44:29 00:40:56 13:11
60 1451 2305 Amanda Cordo 15 45:34 00:41:10 13:15
61 2320 2386 Nathaly Mora 15 51:11 00:42:09 13:34
62 3779 2397 Moira Meijaard 14 42:25 00:42:20 13:38
63 1844 2404 Arielle Gregory 15 48:38 00:42:22 13:39
64 3834 2457 Sofia Wernick 13 49:48 00:42:59 13:50
65 3537 2571 Vanessa Orrett 13 46:21 00:44:47 14:25
66 2662 2572 Gabriella Rodriguez 15 45:33 00:44:49 14:26
67 2678 2573 Samantha Rodriguez 14 45:34 00:44:54 14:27
68 1391 2577 Uma Chatterjee 13 48:33 00:44:56 14:28
69 2259 2586 Gabrielle Mechaber 13 48:44 00:45:08 14:32
70 4273 2611 Cristina Sierra 13 53:09 00:45:42 14:43
71 4220 2629 Alexis Llambes 13 54:31 00:45:58 14:48
72 2333 2630 Ashley Morejon 14 54:30 00:45:58 14:48
73 3232 2632 Amanda Aviles 14 53:27 00:45:59 14:48
74 4435 2770 Manuela Tampied 13 55:18 00:48:31 15:37
75 1701 2790 Olivia Frary 13 58:20 00:48:50 15:43
76 2171 2814 Skye Luke 14 58:52 00:49:16 15:52
77 3325 2833 Arianna Dumenigo 14 53:10 00:49:37 15:59
78 3280 2884 Alexis Chase 15 59:28 00:50:34 16:17
79 1274 2905 Taylor Brown 15 58:29 00:51:03 16:26
80 1020 2907 Sabrina Aguero 13 59:21 00:51:06 16:27
81 1446 2916 Juliana Contreras 15 56:59 00:51:12 16:29
82 4494 2989 Megan Martinez 15 53:31 00:52:48 17:00
83 1534 2996 Isabella Delpino 14 58:51 00:52:54 17:02
84 3321 3100 Katelyn Donis 14 1:04:28 00:55:07 17:45
85 3324 3106 Melanie Donis 13 1:04:34 00:55:14 17:47
86 2619 3128 Hilda Rey 14 59:24 00:55:57 18:01
87 2663 3206 Gabriella Rodriguez 13 1:01:12 00:58:52 18:57
88 1470 3211 Grace Creasman 14 1:09:33 00:59:18 19:06
89 4192 3218 Isabella Corzo 15 1:01:07 00:59:24 19:07
90 3837 3219 Mary Adams 15 1:01:07 00:59:24 19:07
91 3621 3227 Beatriz Ruan 15 1:01:02 00:59:46 19:15

MALE AGE GROUP: 16 - 19

Place Bib Oallplace First Name Last Name Age Finish Net_time Pace
1 1529 5 Fabian Delgado 19 16:50 00:16:45 5:24
2 3749 7 Tomas Gimenez-Beron 16 17:09 00:17:09 5:32
3 4712 10 Julian Sanabria 16 17:34 00:17:29 5:38
4 1114 11 Antonio Arzola 17 17:44 00:17:39 5:41
5 4713 15 Marcos Garcia 17 17:58 00:17:53 5:46
6 1147 19 Christopher Barkas, Jr. 17 18:08 00:17:59 5:48
7 4138 24 Coby Sanchez 16 19:04 00:18:22 5:55
8 3390 26 Kristian Goodger 17 18:31 00:18:30 5:58
9 3243 28 David Barzallo 18 18:39 00:18:32 5:58
10 3494 31 Alvaro Mejer 18 18:44 00:18:42 6:01
11 1082 33 Luis Arango 18 18:59 00:18:50 6:04
12 3797 37 Omar Rosete 17 19:07 00:19:05 6:09
13 2447 42 Brian Palmer 18 19:17 00:19:11 6:11
14 4411 44 Jarvis Rivero 19 19:28 00:19:17 6:13
15 2326 61 Danny Morales 17 20:44 00:19:51 6:24
16 4274 62 Marc Ristol 16 19:55 00:19:55 6:25
17 2080 63 Luke Lee 17 19:57 00:19:55 6:25
18 3787 64 Elijah Muniz 16 20:05 00:19:55 6:25
19 2301 80 Joseph Mitrani 17 20:31 00:20:20 6:33
20 4797 84 Frederic Ghonda 19 20:24 00:20:22 6:34
21 4446 90 Tyler Zarranz 16 22:51 00:20:31 6:37
22 3690 97 Gabriel Von Der Osten 19 20:47 00:20:44 6:41
23 4721 99 Alejandro Morejon 16 21:42 00:20:46 6:41
24 2969 101 Andrew Trujillo 17 21:43 00:20:47 6:42
25 1513 103 Michael Defreitas 16 21:46 00:20:49 6:42
26 4584 119 Dmitry Ryabchinskiy 18 21:43 00:21:15 6:51
27 4530 120 Nick Alvarez 18 21:45 00:21:16 6:51
28 1438 126 Alexander Condis 17 22:25 00:21:28 6:55
29 3609 155 Jose Roca 18 22:07 00:22:04 7:06
30 1859 162 Alejandro Guerrero 19 22:43 00:22:13 7:09
31 2176 186 Zachary Lyn 18 22:47 00:22:40 7:18
32 4424 188 Emad Sarsour 16 23:38 00:22:44 7:19
33 4185 199 Erik Canizares 19 32:40 00:22:57 7:24
34 1643 203 Alex Fernandez 17 27:52 00:23:03 7:26
35 2145 216 Raul Lopez 17 23:44 00:23:16 7:30
36 2740 222 Joey Russell 17 23:25 00:23:21 7:31
37 1557 248 Joshua Diaz 16 24:35 00:23:47 7:39
38 3643 277 Parnell Schmidhofer 19 28:18 00:24:09 7:47
39 2299 285 Jacob Mitrani 16 26:12 00:24:20 7:50
40 1460 306 Eddy Cosio 19 25:08 00:24:34 7:55
41 1493 383 Nadav David 19 28:39 00:25:24 8:11
42 3624 395 John Ruiz 18 33:00 00:25:33 8:14
43 4667 398 Javier Martinez 18 33:02 00:25:35 8:15
44 1162 450 Erick Batres 17 27:34 00:26:10 8:26
45 1500 452 Eric De Cardenas 19 33:37 00:26:11 8:26
46 3786 501 Micah Mortensen 18 27:12 00:26:39 8:35
47 1645 508 Andrew Fernandez 16 31:30 00:26:41 8:36
48 3760 543 Brandon Jung 16 31:05 00:27:05 8:43
49 4600 614 Brenden Vives 18 36:42 00:27:50 8:58
50 1927 624 Simon Hoffman 17 28:52 00:27:53 8:59
51 1327 689 Trevor Carpenter 19 31:47 00:28:32 9:11
52 1052 701 Alex Altizer 17 39:03 00:28:39 9:14
53 4518 718 Andre Sumoza 17 29:33 00:28:45 9:15
54 3168 765 Aleck Gonzalez 18 36:06 00:29:07 9:23
55 3034 839 Israel Vega 17 39:29 00:29:39 9:33
56 3281 847 Brandon Chase 17 38:37 00:29:43 9:34
57 4619 924 Ryan Martinez 16 31:57 00:30:07 9:42
58 2150 942 William Lopez 16 36:31 00:30:17 9:45
59 3052 946 Ryan Viera 19 43:04 00:30:20 9:46
60 2996 978 Juan Zambrano 18 31:19 00:30:35 9:51
61 1679 1003 Jorge Figyeras 17 42:08 00:30:43 9:54
62 4104 1067 William Nealey III 19 40:43 00:31:16 10:04
63 1515 1140 Dominick Dejesus 19 41:07 00:31:40 10:12
64 2638 1142 Christian Riveron 16 35:25 00:31:41 10:12
65 4706 1150 Albert Mestres 17 40:18 00:31:43 10:13
66 4331 1189 Stefan Gale 17 35:32 00:31:58 10:18
67 2914 1197 Cameron Tanner 16 35:35 00:32:01 10:19
68 1655 1245 Mauriel Fernandez 18 32:39 00:32:22 10:25
69 4626 1283 Jordan Perez 16 32:37 00:32:37 10:30
70 4705 1336 Alec Mestres 16 41:30 00:32:56 10:36
71 3245 1353 Ulyses Batlle 17 39:19 00:33:01 10:38
72 4282 1411 Daniel Barreras 16 40:30 00:33:30 10:47
73 3402 1460 Kurt Hansen 17 37:54 00:33:50 10:54
74 3389 1489 Roberto Gonzalez-Batlle 19 34:44 00:34:04 10:58
75 4357 1564 Camilo Lopez 18 38:58 00:34:32 11:07
76 4158 1630 Efrain Vega 18 41:55 00:34:57 11:15
77 4380 1669 Joseph Menendez 16 37:37 00:35:14 11:21
78 2622 1732 Adrian Reyes 19 43:48 00:35:38 11:29
79 4110 1876 Manuel Perez-Carrillo 18 52:19 00:36:52 11:52
80 4581 1942 Micheal Robbins 18 46:28 00:37:31 12:05
81 3055 1983 John Vihlen 18 47:49 00:37:49 12:11
82 1974 2068 Nicholas Johnson 19 51:06 00:38:37 12:26
83 6892 2088 Alexander Nosa 17 43:04 00:38:47 12:29
84 4579 2141 Jacob Quinlan 19 58:13 00:39:16 12:39
85 4623 2401 Jaime Patino 18 48:41 00:42:21 13:38
86 4666 2425 Jorge Larios, Jr 19 46:16 00:42:36 13:43
87 3811 2559 Aaron Soto 18 51:41 00:44:37 14:22
88 4555 2666 Nick Gonzalez 16 55:32 00:46:38 15:01
89 4631 2844 Reidel Ramos 19 49:43 00:49:43 16:00
90 2065 2874 Sammy Laudat 19 53:36 00:50:18 16:12
91 2062 2900 Jacob Laudat 19 54:13 00:50:56 16:24
92 1830 2974 Max Gordon 17 1:02:24 00:52:18 16:50
93 3890 3020 Erick Perez 17 1:00:36 00:53:27 17:13
94 4561 3065 Lazaro Hobart 18 1:03:12 00:54:18 17:29
95 4082 3071 Matthew Lopez 19 1:00:26 00:54:23 17:31
96 4554 3075 Kevin Gonzalez 18 1:03:27 00:54:33 17:34
97 4151 3095 Nathan Thompson 17 1:01:06 00:55:02 17:43
98 2061 3111 Brian Lastra 17 1:02:08 00:55:31 17:52
99 4688 3129 Giovanni Pons 18 1:07:31 00:55:58 18:01
100 2064 3130 Matthew Laudat 19 59:18 00:56:00 18:02
101 2206 3205 Alex Martin 16 1:09:17 00:58:48 18:56
102 1992 3283 Peter Kaldahl 19 1:11:21 01:03:31 20:27
103 4650 3303 Kristhian De Oliveira 19 1:07:12 01:05:01 20:56
104 1688 3310 Thomas Fleming 19 1:15:13 01:05:59 21:15

FEMALE AGE GROUP: 16 - 19

Place Bib Oallplace First Name Last Name Age Finish Net_time Pace
1 4781 113 Christy Charnel 17 21:13 00:21:07 6:48
2 4297 159 Stephanie Cajas 18 25:25 00:22:09 7:08
3 2166 180 Martina Lugo 19 23:51 00:22:34 7:16
4 4431 191 Carlee Snyder 16 23:54 00:22:51 7:22
5 4076 211 Natalie Jacobs 18 23:18 00:23:11 7:28
6 4117 258 Kristy Price 17 24:01 00:23:53 7:42
7 2636 299 Kevie Rivero 19 24:40 00:24:29 7:53
8 3555 324 Andrea Perez-Hickman 16 28:10 00:24:48 7:59
9 3722 334 Emily Castella 16 27:01 00:24:53 8:01
10 3088 349 Katie Watson 19 31:47 00:25:02 8:04
11 2910 424 Ana Lia Tamariz 17 26:25 00:25:56 8:21
12 2481 441 Allison Pena 16 27:56 00:26:06 8:24
13 3737 510 Katrina Farsaci 18 30:56 00:26:43 8:36
14 3736 513 Alexa Farsaci 18 30:57 00:26:43 8:36
15 1633 536 Emily Fallon 18 28:59 00:27:02 8:42
16 4001 547 Kaitlyn Wells 16 28:22 00:27:07 8:44
17 4364 556 Elizabeth Macgowan 16 27:34 00:27:11 8:45
18 1462 564 Natalia Cosio 17 27:50 00:27:16 8:47
19 4477 597 Jessica Hernandez 18 33:51 00:27:42 8:55
20 3087 617 Kassie Watson 16 34:38 00:27:52 8:58
21 4343 663 Gabriella Hernandez 19 29:27 00:28:18 9:07
22 2545 707 Sarah Pohl 16 32:18 00:28:41 9:14
23 1177 709 Gabriella Befeler 17 29:48 00:28:42 9:14
24 3775 714 Sabrina Martinez 16 29:21 00:28:44 9:15
25 1634 720 Rebecca Fallon 16 30:42 00:28:46 9:16
26 3869 732 Kelsey Laurente 19 31:05 00:28:52 9:18
27 3309 774 Michelle Deseriane 16 30:38 00:29:11 9:24
28 4764 777 Allison Vo 18 34:59 00:29:12 9:24
29 1711 787 Rachel Galt 18 29:46 00:29:18 9:26
30 4437 799 Vivian Tomas 19 30:18 00:29:24 9:28
31 4038 800 Katherine Davis 17 30:56 00:29:25 9:29
32 2114 805 Briana Livingston 19 34:12 00:29:29 9:30
33 4519 831 Fabiana Sumoza 16 30:50 00:29:37 9:32
34 3810 846 Paulina Sicius 17 30:46 00:29:42 9:34
35 4013 884 Crystal Almond 19 32:26 00:29:55 9:38
36 1919 902 Monique Hidalgo 19 39:00 00:30:00 9:40
37 1287 948 Avery Budin 17 30:44 00:30:21 9:47
38 1490 1004 Taylor Dames 17 34:26 00:30:43 9:54
39 4094 1014 Magdalena Mena 17 34:42 00:30:50 9:56
40 3427 1019 Natalia Jimenez-Murphy 16 32:34 00:30:52 9:57
41 3956 1022 Carli Valea 18 37:33 00:30:54 9:57
42 3662 1040 Brittany Stolzenberg 18 33:28 00:31:05 10:01
43 3664 1127 Kaitlyn Stolzenberg 18 33:59 00:31:37 10:11
44 3417 1160 Melanie Isaza 16 33:46 00:31:46 10:14
45 4012 1161 Alexis Almond 18 34:25 00:31:47 10:14
46 3398 1183 Teresa Gutierrez 16 39:22 00:31:56 10:17
47 2724 1185 Kara Rubin 19 42:16 00:31:56 10:17
48 3678 1195 Amanda Valero 19 39:13 00:32:00 10:18
49 4798 1199 Selina Pirkay 19 42:21 00:32:01 10:19
50 1918 1236 Michelle Hidalgo 19 41:14 00:32:15 10:23
51 3590 1237 Anamil Ramirez 19 51:12 00:32:15 10:23
52 4696 1241 Ashlynn Dobbs 17 42:40 00:32:20 10:25
53 3773 1260 Gabriella Martinez 16 33:02 00:32:25 10:27
54 2565 1273 Melanie Prieto 17 35:00 00:32:31 10:28
55 1009 1286 Amber Acosta 19 42:40 00:32:37 10:30
56 2215 1300 Ashley Martinez 19 51:41 00:32:44 10:32
57 2008 1319 Julie Keclik 16 41:44 00:32:51 10:35
58 2452 1325 Jackie Pantin 16 42:00 00:32:52 10:35
59 6890 1346 Therese Vidal 17 37:30 00:32:59 10:37
60 2982 1347 Katie Tyler 19 36:35 00:32:59 10:37
61 5921 1348 Camila Rodriguez 16 40:04 00:33:00 10:37
62 4531 1373 Vanessa Alvarez 17 33:37 00:33:10 10:41
63 2716 1374 Samantha Rousseau 19 35:12 00:33:10 10:41
64 4363 1405 Daniela Lusardi 18 52:22 00:33:24 10:46
65 4436 1498 Devin Tibor 18 43:52 00:34:08 10:59
66 2958 1543 Kelsey Traeger 17 43:01 00:34:23 11:04
67 3038 1609 Judith Vega 18 44:39 00:34:51 11:13
68 4683 1632 Jackelyn Velez 17 41:37 00:34:57 11:15
69 4414 1654 Carolina Rodriguez 18 41:39 00:35:09 11:19
70 1396 1667 Micaela Chiang 16 37:37 00:35:14 11:21
71 4122 1709 Gabriela Restrepo 16 37:31 00:35:28 11:25
72 1236 1734 Kristi Bolanos 18 43:48 00:35:39 11:29
73 4478 1769 Jennifer Hodder 17 40:08 00:36:03 11:36
74 1234 1770 Bianca Bolanos 19 44:10 00:36:03 11:37
75 2293 1827 Natalia Mirabal-Alonso 16 45:24 00:36:31 11:45
76 3682 1839 Amanda Vazquez 18 44:36 00:36:35 11:47
77 4112 1868 Melissa Perez-Carrillo 16 52:19 00:36:50 11:52
78 1994 1900 Caitlin Kaloostian 18 44:04 00:37:01 11:55
79 1610 2005 Rachel Ellis 16 40:02 00:38:01 12:15
80 3888 2102 Emily Perez 16 45:55 00:38:52 12:31
81 4632 2135 Brittany Robbins 18 58:13 00:39:14 12:38
82 3356 2143 Andrea Garaycoa 17 45:41 00:39:17 12:39
83 2725 2265 Lexie Rubin 16 50:57 00:40:37 13:05
84 4268 2304 Danielle Montesino 17 51:13 00:41:08 13:15
85 1386 2322 Monica Chang 16 44:08 00:41:22 13:19
86 4642 2371 Becky Arroyo 19 45:29 00:41:58 13:31
87 3833 2447 Nina Wernick 16 49:40 00:42:51 13:48
88 1170 2463 Emily Beckham 17 53:30 00:43:05 13:52
89 2427 2468 Kate Ortner 17 49:27 00:43:14 13:55
90 2988 2482 Isidora Ulloa 17 53:43 00:43:31 14:01
91 3897 2488 Gabriela Trujillo 18 53:09 00:43:36 14:02
92 1743 2510 Shifra Garfinkel 17 49:47 00:43:54 14:08
93 3776 2563 Yasmeen Martinez 16 51:45 00:44:41 14:23
94 3319 2690 Natalie Dominguez 18 52:23 00:47:07 15:10
95 3694 2763 Laura Wolfe 17 48:48 00:48:19 15:33
96 4573 2832 Melanie Morejon 16 54:32 00:49:36 15:58
97 4606 2841 Samantha Benitez 18 49:42 00:49:42 16:00
98 4248 2857 Ashley Sanchez 17 56:58 00:50:02 16:07
99 1325 2875 Renee Carpenter 19 53:36 00:50:18 16:12
100 1229 2904 Danielle Bloch 19 58:29 00:51:03 16:26
101 3308 2955 Gaby Demata 17 1:01:58 00:51:51 16:42
102 2416 2956 Cristina Ortega 19 54:13 00:51:51 16:42
103 3104 2987 Emily West 16 59:16 00:52:46 16:59
104 2445 3023 Emily Palin 16 57:44 00:53:33 17:14
105 1668 3112 Francesca Ferro 17 1:02:08 00:55:32 17:53
106 2400 3204 Evanna Ojeda 16 1:09:17 00:58:48 18:56
107 2399 3242 A Ojeda 17 1:10:40 01:00:10 19:22
108 1754 3252 Mia Gifford 17 1:07:56 01:00:45 19:34
109 1793 3271 Brittnee Gonzalez 16 1:09:38 01:02:39 20:10
110 4630 3329 Alexis Raiford 18 1:19:12 01:08:29 22:03
111 3646 3337 Jessica Serrano 18 1:11:44 01:09:19 22:19

MALE AGE GROUP: 20 - 24

Place Bib Oallplace First Name Last Name Age Finish Net_time Pace
1 1296 6 Dominick Cabrera 21 16:52 00:16:46 5:24
2 3441 32 Max Kolisch 22 18:52 00:18:48 6:03
3 3692 52 Gregory Wall 23 19:49 00:19:42 6:21
4 1518 54 Armando Del Valle 20 20:02 00:19:46 6:22
5 4046 58 Manuel Escanciano 22 19:54 00:19:50 6:23
6 1553 60 Ernesto Diaz 20 19:59 00:19:51 6:24
7 2371 72 Michael Navarrete 20 21:37 00:20:06 6:29
8 4426 78 Gabriel Serrao 23 20:24 00:20:17 6:32
9 1097 133 Eric Armbruster 24 24:01 00:21:42 6:59
10 1018 142 Erick Aguayo 24 24:37 00:21:55 7:04
11 6881 163 Stephen Beutler 21 22:46 00:22:13 7:09
12 4553 169 Ricardo Garcia 22 22:47 00:22:24 7:13
13 2389 173 Matthew Nostro 21 22:59 00:22:27 7:14
14 1725 178 Fernando Garcia 20 26:58 00:22:31 7:15
15 4252 189 Adrian Santos-Alborna 22 28:50 00:22:48 7:21
16 1200 193 Zack Berman 21 26:13 00:22:51 7:22
17 2718 196 Julian Rozo 21 23:12 00:22:56 7:23
18 3150 240 Alberto Zuniga 23 23:36 00:23:36 7:36
19 1556 253 Joseph Diaz 24 24:39 00:23:51 7:41
20 1181 255 Richard Befeler 20 25:01 00:23:52 7:41
21 2304 293 Sam Mitrani 22 27:40 00:24:26 7:52
22 1941 297 Michael Ibanez 21 29:06 00:24:27 7:53
23 2477 317 Grant Peabody 24 27:11 00:24:45 7:58
24 3180 325 Max Kohrman 20 28:26 00:24:49 8:00
25 3252 332 Nicolas Bergengruen 22 26:31 00:24:52 8:01
26 4784 337 Ronald Carter 21 32:52 00:24:56 8:02
27 2251 365 Peter McGranaghan 23 28:13 00:25:11 8:07
28 2627 375 Daniel Rios 22 30:06 00:25:20 8:10
29 3566 377 Javier Pino 24 34:50 00:25:21 8:10
30 2854 403 Kenneth Softness 24 26:01 00:25:38 8:16
31 2612 423 Matthijs Reintjes 23 28:48 00:25:56 8:21
32 1192 442 Franklin Benjamin 24 27:36 00:26:06 8:24
33 1659 444 Nicholas Fernandez 21 27:42 00:26:08 8:25
34 4315 522 John Delord 24 31:09 00:26:49 8:38
35 2511 534 Rob Perran 24 29:42 00:27:01 8:42
36 5311 537 Manny Duran 22 30:38 00:27:02 8:43
37 4729 549 Andre Figueroa 24 28:47 00:27:07 8:44
38 3219 595 George Andonie 22 28:10 00:27:38 8:54
39 2850 628 Travis Smith 24 31:42 00:27:55 8:59
40 2775 633 Gustavo Sanchez 20 29:53 00:27:58 9:00
41 4739 652 Jaleel Zuniga 22 28:42 00:28:12 9:05
42 1737 659 Ricardo Garcia 21 32:49 00:28:17 9:07
43 1395 676 Anthony Chiang 24 34:58 00:28:25 9:09
44 3937 686 Micheal Austin 23 33:19 00:28:31 9:11
45 1635 690 Parker Farabee 22 36:40 00:28:32 9:11
46 2733 770 Victor Rubio 24 29:54 00:29:08 9:23
47 1397 849 Matthew Chica 20 30:12 00:29:44 9:34
48 1731 856 Luis Garcia 23 35:31 00:29:46 9:35
49 4697 861 Pedro Rodriguez 22 41:24 00:29:47 9:36
50 4105 863 Norman Olegario 22 31:59 00:29:48 9:36
51 3195 886 Nicolas Rojas 23 30:19 00:29:56 9:38
52 1191 905 Enrique Benitez 24 39:01 00:30:03 9:41
53 1295 907 Christopher Cabrera 24 36:34 00:30:03 9:41
54 2709 974 Andy Rosenkranz 23 37:24 00:30:32 9:50
55 2588 984 Ian Raisbeck 21 34:31 00:30:37 9:52
56 2314 987 Gabriel Montiel 20 35:55 00:30:38 9:52
57 3601 1055 Matthew Riesgo 22 35:18 00:31:12 10:03
58 1017 1106 David Afkham 24 41:41 00:31:27 10:08
59 2324 1129 Rafael Moralejo 20 37:34 00:31:37 10:11
60 3162 1159 Juan Diaz 20 37:30 00:31:46 10:14
61 1197 1170 Chris Berg 20 42:11 00:31:51 10:15
62 2631 1172 Adam Rivera 23 44:20 00:31:52 10:16
63 1508 1177 Ned De Leo 22 40:07 00:31:54 10:16
64 4502 1178 Ryan Ortiz 24 40:22 00:31:54 10:17
65 4651 1186 Alan Duarte 21 40:25 00:31:57 10:17
66 3302 1193 Austin Davis 20 39:13 00:32:00 10:18
67 3483 1205 Roberto Martinez 21 32:23 00:32:05 10:20
68 1492 1215 Michal David 22 35:26 00:32:09 10:21
69 4439 1238 Jhonathan Valdes 23 37:48 00:32:16 10:23
70 1280 1261 Alexander Bucelo 20 35:57 00:32:26 10:27
71 2283 1276 Steven Mendoza 20 35:35 00:32:34 10:29
72 6107 1279 Walter Ugaz 24 34:07 00:32:35 10:30
73 4205 1287 Peter Gomez 23 42:21 00:32:38 10:30
74 2856 1305 Tony Solano 23 40:40 00:32:45 10:33
75 4538 1326 Jorge Cisternas 23 34:00 00:32:52 10:35
76 1198 1349 Ben Berman 20 42:02 00:33:00 10:38
77 1013 1404 Nicholas Acosta 23 43:30 00:33:24 10:45
78 2236 1410 Yusuf Masri 23 34:10 00:33:29 10:47
79 2635 1445 Eduardo Rivero 23 37:06 00:33:43 10:52
80 2298 1475 Elliot Mitrani 23 34:42 00:33:58 10:56
81 2419 1479 Gustavo Ortega 22 36:21 00:34:00 10:57
82 1294 1529 Jorge Cabot 24 41:57 00:34:16 11:02
83 5875 1533 Rodrigo Proano 24 41:16 00:34:17 11:02
84 3865 1557 Adrian Garcia 20 42:17 00:34:30 11:07
85 3862 1649 Brian Fernandez 22 40:20 00:35:05 11:18
86 3400 1670 Fouad Haddad 20 43:39 00:35:14 11:21
87 2138 1675 Jonathan Lopez 21 40:29 00:35:16 11:21
88 2703 1683 Antonio Roque Jr 21 40:06 00:35:19 11:22
89 1362 1684 Matthew Castro 24 43:06 00:35:19 11:22
90 1897 1725 Anthony Hernandez 23 43:08 00:35:34 11:27
91 1312 1808 Jose Capote 24 1:01:12 00:36:23 11:43
92 2895 1871 Ernesto Suarez 23 49:21 00:36:51 11:52
93 1115 1899 Adam Ashe 24 44:05 00:37:01 11:55
94 2198 2045 Andres Marmol 23 47:38 00:38:27 12:23
95 1899 2059 David Hernandez 24 47:14 00:38:33 12:25
96 2510 2085 Rafael Perez Jr. 24 46:02 00:38:45 12:29
97 3354 2134 Andres Gallego 24 42:33 00:39:12 12:37
98 2474 2166 Jared Payne 21 48:09 00:39:29 12:43
99 2341 2178 Adam Mouttet 22 43:14 00:39:37 12:45
100 4659 2369 Danny Gonzalez 20 45:28 00:41:57 13:30
101 5163 2405 Jonathan Calles 20 48:38 00:42:23 13:39
102 3074 2414 Benjamin Waas 21 47:03 00:42:29 13:41
103 3054 2432 Brian Vihlen 21 52:43 00:42:40 13:44
104 2694 2558 Samuel Romero 24 45:54 00:44:36 14:22
105 3382 2599 Yoalbert Gomez 22 55:06 00:45:32 14:40
106 2671 2606 Michael Rodriguez 23 48:22 00:45:38 14:42
107 3269 2659 Kristopher Camaraza 24 52:25 00:46:20 14:55
108 4513 2769 Thiago Silveira 21 51:48 00:48:27 15:36
109 3053 2778 Timothy Vieux 21 53:27 00:48:41 15:40
110 4211 2786 Victor Hillergren 20 54:10 00:48:43 15:41
111 2810 3003 Gregory Sconzo 24 1:00:57 00:53:03 17:05
112 1240 3063 Aspen Bolt 24 1:00:16 00:54:17 17:29
113 3003 3120 Chris Uscinski 23 1:03:43 00:55:45 17:57
114 2538 3170 Marllon Pires 21 1:03:06 00:57:38 18:34
115 2135 3217 Jack Lopez 20 1:09:53 00:59:22 19:07
116 1605 3275 Brett Eisenhardt 24 1:11:01 01:02:52 20:15

FEMALE AGE GROUP: 20 - 24

Place Bib Oallplace First Name Last Name Age Finish Net_time Pace
1 2126 25 Claire Long 22 18:29 00:18:29 5:57
2 4116 56 Katie Price 20 19:54 00:19:48 6:23
3 4736 68 Lucia Ramirez 24 20:01 00:20:00 6:27
4 3271 183 Victoria Carasa 23 22:42 00:22:36 7:17
5 1676 204 Estefania Fierro 23 23:19 00:23:05 7:26
6 3396 209 Martha Grajales 20 23:19 00:23:10 7:28
7 2250 310 Eilis McGranaghan 22 25:51 00:24:37 7:56
8 3392 313 Carolina Gorordo 22 29:59 00:24:43 7:58
9 6869 347 Cristina Brea 22 27:06 00:25:01 8:03
10 3684 350 Krysten Vazquez 21 32:08 00:25:02 8:04
11 1117 369 Cynthia Auerbach 22 25:50 00:25:13 8:07
12 4239 391 Christian Rodriguez 21 28:29 00:25:31 8:13
13 4360 412 Raquel Lopez 23 30:25 00:25:47 8:18
14 4010 448 Maria Alea 21 29:07 00:26:10 8:26
15 4115 456 Erika Price 22 26:19 00:26:12 8:26
16 1103 476 Michelle Arocha 24 30:03 00:26:25 8:30
17 3439 503 Erika Kolisch 23 27:02 00:26:40 8:35
18 2078 519 Jensen Lee 24 30:30 00:26:48 8:38
19 3009 533 Krystal Valdes 21 34:31 00:27:00 8:42
20 5398 538 Christy Gardner 22 30:38 00:27:04 8:43
21 3020 546 Jennifer Vamos 22 28:12 00:27:07 8:44
22 3515 570 Yvette Morlote 23 27:28 00:27:21 8:49
23 3222 572 Samantha Aponte 20 27:43 00:27:21 8:49
24 2595 585 Elizabeth Ramsay 23 33:09 00:27:29 8:51
25 1205 586 Isabel Betancourt 21 28:43 00:27:32 8:52
26 1806 603 Janelis Gonzalez 22 29:24 00:27:45 8:56
27 4492 606 Alexandra Magoulas 20 29:22 00:27:47 8:57
28 2968 607 Valerie Trueba 24 28:25 00:27:48 8:57
29 2108 610 Emma Lipshultz 20 34:34 00:27:48 8:57
30 3292 618 Laura Cordoba 21 30:57 00:27:52 8:58
31 1664 671 Lizbeth Ferrera 23 34:52 00:28:24 9:09
32 2807 684 Stephanie Schweitzer 23 29:34 00:28:30 9:11
33 4387 693 Jessica Mullane 22 36:40 00:28:33 9:12
34 2466 702 Kathryn Patao 23 32:38 00:28:39 9:14
35 4389 705 Kimberly Nguyen 22 37:17 00:28:40 9:14
36 4430 738 Jennifer Simms 20 35:08 00:28:56 9:19
37 4236 745 Jesus Ramirez 22 31:01 00:29:00 9:20
38 5255 760 Hila David 24 32:21 00:29:05 9:22
39 1434 788 Jessica Colvin 24 38:22 00:29:18 9:26
40 1875 852 Denise Halpin 24 32:39 00:29:45 9:35
41 4434 858 Hayley Stricker 20 39:11 00:29:47 9:35
42 3244 870 Deannys Batista 24 39:22 00:29:51 9:37
43 2140 881 Marielena Lopez 20 34:35 00:29:55 9:38
44 2149 896 Veronica Lopez 21 30:30 00:29:58 9:39
45 2428 897 Lian Ortner 22 36:14 00:29:58 9:39
46 2820 911 Ivianna Sequeiros 22 39:03 00:30:04 9:41
47 4679 915 Erica Sokol 23 37:24 00:30:05 9:41
48 4537 920 Catalina Cisternas 20 31:14 00:30:06 9:41
49 1421 931 Alyssa Cohen 24 32:38 00:30:10 9:43
50 4486 952 Juliana Larrosa 23 30:23 00:30:23 9:47
51 1083 961 Paulina Arango 23 37:25 00:30:27 9:48
52 2761 990 Nicole Salzman 24 34:16 00:30:38 9:52
53 1326 996 Samantha Carpenter 24 36:19 00:30:41 9:53
54 3835 998 Marian Zorrilla 23 40:06 00:30:41 9:53
55 1690 1000 Daniela Flores 22 32:15 00:30:43 9:53
56 3137 1034 Chelsea Yap 21 35:11 00:31:02 10:00
57 3715 1038 Julia Bradley 23 35:28 00:31:04 10:00
58 2130 1044 Alexandra Lopez 21 39:18 00:31:05 10:01
59 2359 1061 Stephanie Murillo 21 35:19 00:31:14 10:03
60 2770 1063 Beatriz Sanchez 21 35:08 00:31:14 10:03
61 3495 1070 Kelly Mejia 23 36:38 00:31:16 10:04
62 4369 1073 Amanda Matos 24 40:24 00:31:17 10:04
63 3204 1078 Iris Veciana 24 42:39 00:31:18 10:05
64 4374 1079 Rachel Matos 24 40:25 00:31:18 10:05
65 4607 1098 Meghan Collins 22 37:41 00:31:25 10:07
66 3288 1099 Katie Conover 22 38:52 00:31:25 10:07
67 2665 1107 Ivana Rodriguez 23 33:57 00:31:28 10:08
68 1884 1112 Taylor Harlan 24 36:39 00:31:30 10:09
69 2938 1128 Ashley Thomas 22 32:36 00:31:37 10:11
70 1575 1138 Brandi Donnelly 23 37:11 00:31:40 10:12
71 3006 1143 Cristina Valdes 20 34:33 00:31:41 10:12
72 4504 1156 Gabriela Prellezo 22 40:34 00:31:45 10:14
73 1880 1175 Kristina Hansen 21 35:58 00:31:54 10:16
74 3689 1201 Emely Viteri 22 32:22 00:32:04 10:20
75 2007 1216 Alli Keclik 21 41:02 00:32:09 10:21
76 4422 1246 Laura Sandoval 24 32:23 00:32:23 10:26
77 4785 1278 Chandrea Carter 23 40:31 00:32:35 10:29
78 2898 1282 Yadia Suarez 22 41:20 00:32:37 10:30
79 2249 1288 Anna McGranaghan 24 35:44 00:32:39 10:31
80 3278 1292 Jessica Cavalcante 22 35:43 00:32:42 10:32
81 3633 1293 Ivelisse Santos 23 35:42 00:32:42 10:32
82 3570 1299 Katerina Potesta 22 34:50 00:32:43 10:32
83 2641 1314 Leanne Roca 20 34:16 00:32:49 10:34
84 3649 1328 Paulette Sierra 23 33:54 00:32:52 10:35
85 1973 1331 Lauren Johnson 22 45:22 00:32:53 10:35
86 5534 1344 Hazel Jarquin 24 42:15 00:32:58 10:37
87 4603 1360 Laura Aguilar 21 43:43 00:33:06 10:40
88 1267 1379 Courtney Brooks 23 39:23 00:33:13 10:42
89 5352 1403 Gabriela Figueras 20 44:48 00:33:24 10:45
90 6904 1418 Nidia Mayorga 20 42:31 00:33:33 10:48
91 2165 1435 Isabella Lugo 21 34:56 00:33:39 10:50
92 2397 1456 Megan Oconnor 24 34:44 00:33:48 10:53
93 2244 1458 Ana Mazariegos 23 34:44 00:33:49 10:53
94 1311 1461 Erika Canizares 24 43:34 00:33:51 10:54
95 2750 1463 Kassandra Sainz 21 36:10 00:33:51 10:54
96 1628 1478 Evelyn Falcon 24 39:02 00:34:00 10:57
97 2941 1485 Gabrielle Thompson 21 35:05 00:34:03 10:58
98 4576 1514 Andrea Portillo 21 35:23 00:34:12 11:01
99 4443 1516 Sophia Villalba 24 34:14 00:34:14 11:01
100 2281 1540 Melissa Mendoza 23 37:24 00:34:22 11:04
101 4064 1546 Leah Harrison 24 39:32 00:34:26 11:05
102 4088 1551 Paola Martelo 24 40:20 00:34:28 11:06
103 3110 1572 Monike Williams 24 55:33 00:34:34 11:08
104 3276 1590 Ivania Castillo 21 40:12 00:34:43 11:11
105 2046 1619 Adriana Labarta 21 40:05 00:34:54 11:14
106 1671 1626 Cassandra Fersch 23 35:36 00:34:55 11:15
107 4020 1628 Lisa Armstrong 20 40:02 00:34:56 11:15
108 3863 1648 Jessika Ferrer 23 40:20 00:35:05 11:18
109 2081 1652 Meghan Lee 22 40:30 00:35:09 11:19
110 1551 1672 Elizabeth Diaz 20 43:39 00:35:15 11:21
111 2506 1676 Stephanie Perez 23 43:40 00:35:16 11:21
112 4801 1706 Carolina Martinez 21 36:40 00:35:26 11:24
113 1141 1716 Julieta Barbera 20 36:11 00:35:31 11:26
114 4699 1722 Genevieve Pons 20 38:43 00:35:33 11:27
115 2642 1727 Kristine Rocafort 23 43:08 00:35:35 11:27
116 3650 1751 Carolina Sitterson 23 44:59 00:35:50 11:32
117 2765 1752 Rebecca Sampson 24 37:13 00:35:51 11:33
118 2286 1764 Sophia Meziani 21 40:09 00:35:58 11:35
119 3917 1773 Catherin Guerrero 22 39:19 00:36:05 11:37
120 1939 1804 Christina Ibanez 23 41:00 00:36:21 11:42
121 2001 1806 Alejandra Kato 23 39:26 00:36:22 11:43
122 4627 1836 Susanna Perez 20 36:34 00:36:34 11:47
123 4113 1867 Stephanie Perez-Carrillo 23 52:19 00:36:50 11:52
124 3875 1880 Melanie Ochoa 21 44:24 00:36:53 11:52
125 4202 1917 Suyen Fernandez 22 40:09 00:37:16 12:00
126 3502 1951 Rachel Miller 24 46:36 00:37:34 12:06
127 4353 1955 Nancy Lacayo 21 41:00 00:37:36 12:07
128 5482 1985 Ashlee Hartzog 22 43:39 00:37:49 12:11
129 3349 2008 Natalie Frederick 24 41:34 00:38:04 12:16
130 3958 2025 Samantha Valea 20 44:56 00:38:16 12:19
131 1658 2041 Michelle Fernandez 23 47:38 00:38:26 12:23
132 2708 2060 Alyssa Rosen 23 47:14 00:38:33 12:25
133 1626 2071 Ashley Fahmie 23 47:48 00:38:39 12:27
134 1176 2082 Danielle Befeler 22 39:51 00:38:44 12:28
135 1306 2108 Claudia Camas 23 45:24 00:38:54 12:32
136 1532 2162 Valeria Delgado 23 51:06 00:39:27 12:42
137 3116 2163 Melissa Winch 23 48:39 00:39:28 12:43
138 3954 2168 Heather Gustafson 24 41:00 00:39:30 12:43
139 1925 2182 Alexandra Hoffman 21 40:33 00:39:38 12:46
140 2201 2189 Stacey Marmorstein 23 46:29 00:39:39 12:46
141 4009 2198 Erica Abreu 22 41:18 00:39:44 12:48
142 2214 2208 Ariel Martinez 22 43:54 00:39:54 12:51
143 3476 2209 Angela Macias 23 45:16 00:39:54 12:51
144 3200 2210 Alison Sweeney 24 45:44 00:39:54 12:51
145 1752 2219 Erin Giblin 22 52:33 00:40:04 12:54
146 4030 2239 Laura Chaviano Chong 22 43:34 00:40:22 13:00
147 4754 2242 Danielle Quintero 23 40:49 00:40:25 13:01
148 6331 2245 Jenifer Grounds 23 43:07 00:40:27 13:01
149 2408 2261 Carla Orantes 24 43:23 00:40:35 13:04
150 2937 2276 Bianca Tevez 24 49:39 00:40:51 13:09
151 3035 2316 Jaymi Vega 20 51:05 00:41:16 13:17
152 4091 2347 Daniela Maura 20 46:56 00:41:39 13:25
153 3597 2362 Jazmine Reyes 22 45:00 00:41:50 13:28
154 2864 2364 Paige Soria 22 48:27 00:41:51 13:29
155 2884 2378 Robin Stephens 22 48:19 00:42:02 13:32
156 3094 2394 Allie Webb 20 43:43 00:42:16 13:37
157 1717 2409 Alexandra Garcia 23 51:07 00:42:24 13:39
158 4663 2421 Alexandra Larios 22 46:15 00:42:34 13:42
159 1088 2433 Erykah Arciniega 21 52:43 00:42:41 13:44
160 2574 2466 Ruth Quant 20 51:07 00:43:13 13:55
161 4514 2501 Brie Stitz 23 44:32 00:43:45 14:05
162 1755 2509 Raquel Gil 21 47:00 00:43:54 14:08
163 1223 2519 Hillary Blasberg 24 51:23 00:44:01 14:10
164 4700 2548 Veronica Iglesias 20 47:17 00:44:30 14:20
165 3535 2570 Gabrielle Orrett 21 46:20 00:44:47 14:25
166 2374 2615 Chelsea Nealey 20 55:10 00:45:44 14:43
167 1651 2677 Jessica Fernandez 22 52:17 00:46:54 15:06
168 3039 2686 Veronica Veitia 23 53:39 00:47:03 15:09
169 2106 2687 Zayda Lima 23 53:39 00:47:03 15:09
170 2335 2692 Stephanie Moreno 24 52:23 00:47:08 15:11
171 2285 2730 Cristina Mesa 23 57:56 00:47:51 15:24
172 1902 2736 Eliany Hernandez 24 55:45 00:47:52 15:25
173 3671 2737 Marilyn Torres 24 55:46 00:47:52 15:25
174 4459 2768 Nicole Cheleotis 24 51:48 00:48:26 15:36
175 4175 2771 Stephanie Arritola 22 1:00:08 00:48:32 15:38
176 3017 2782 Annmarie Valentin 21 53:29 00:48:43 15:41
177 1908 2805 Krystina Hernandez 24 51:38 00:49:08 15:49
178 3215 2898 Dayany Alvarez 22 1:00:26 00:50:53 16:23
179 1341 2988 Ayleen Casais 21 53:06 00:52:47 17:00
180 3182 2994 Yessica Martinez 24 1:00:24 00:52:52 17:01
181 3542 3000 Stephanie Pajon 23 1:02:00 00:52:55 17:02
182 2092 3034 Sabrina Lemus 24 59:21 00:53:43 17:18
183 2960 3079 Samantha Traeger 21 1:03:14 00:54:35 17:34
184 2755 3084 Yanescat Salazar 23 58:58 00:54:45 17:38
185 2498 3086 Ivonne Perez 22 58:58 00:54:46 17:38
186 1374 3087 Merly Cepeda 21 58:58 00:54:46 17:38
187 2372 3088 Elsy Navarro 22 59:00 00:54:47 17:38
188 2439 3102 Daniela Paez 24 1:01:22 00:55:12 17:46
189 2995 3103 Jennifer Urgelles 22 1:01:21 00:55:13 17:47
190 1242 3105 Lindsey Bomnin 23 1:01:22 00:55:14 17:47
191 5903 3117 Silvia Revilla 24 1:01:04 00:55:39 17:55
192 4621 3137 Jennifer Murillo 24 57:58 00:56:33 18:13
193 1285 3152 Kimberly Buck 22 57:17 00:56:59 18:21
194 2003 3156 Stephanie Katz 21 1:01:15 00:57:03 18:22
195 1472 3212 Jackie Creasman 20 1:09:35 00:59:19 19:06
196 2119 3233 Rebecca Llanes 21 1:02:59 00:59:59 19:19
197 1765 3250 Rebecca Gittelson 20 1:04:50 01:00:40 19:32
198 3072 3274 Anita Virmani 22 1:11:01 01:02:52 20:15
199 3645 3324 Jennifer Serrano 21 1:10:17 01:07:52 21:51
200 5637 3334 Paula Lopez-Trigo 23 1:15:55 01:09:10 22:16
201 4507 3348 Maria Rangel 23 1:12:27 01:11:14 22:56
202 3304 3361 Marisela De La Cruz 22 1:13:47 01:13:47 23:45
203 4678 3362 Emely Sanchez 20 1:13:50 01:13:50 23:46

MALE AGE GROUP: 25 - 29

Place Bib Oallplace First Name Last Name Age Finish Net_time Pace
1 4724 4 Craig Donnelly 28 16:24 00:16:24 5:17
2 3550 9 Albert Pelaez 25 17:30 00:17:29 5:38
3 4773 22 Andrew Charles 28 18:10 00:18:10 5:51
4 3558 45 Coston Perkins 27 19:29 00:19:26 6:16
5 2021 67 Bill Kirtland 27 20:00 00:19:58 6:26
6 3790 73 Robin Nix 29 20:15 00:20:08 6:29
7 4551 95 Peter Flores 28 21:01 00:20:36 6:38
8 3361 105 Emilio Garcia 26 21:06 00:20:51 6:43
9 4228 151 Carlos Miranda 26 22:39 00:22:02 7:06
10 3187 166 Luis Pedroza 28 24:04 00:22:21 7:12
11 2331 198 Yosvani Morales 28 24:06 00:22:56 7:23
12 4440 202 Nicholas Varsalona 27 23:48 00:23:02 7:25
13 1156 242 Santiago Barrios 27 24:41 00:23:38 7:37
14 2929 246 Christopher Tellez 26 24:08 00:23:44 7:39
15 2742 263 Sean Ryan 25 27:29 00:23:56 7:42
16 1729 290 Juan Garcia 28 24:37 00:24:24 7:52
17 1654 294 Manuel Fernandez 25 29:01 00:24:27 7:52
18 2239 318 Elisandrix Matos 28 25:44 00:24:46 7:58
19 2580 330 Kevin Quicker 25 28:39 00:24:52 8:01
20 3158 373 Thomas Cournoyer 27 29:00 00:25:19 8:09
21 4587 374 Dorgoan Smith 29 26:51 00:25:19 8:09
22 2476 376 Drake Peabody 26 28:01 00:25:21 8:10
23 2811 378 Bradley Scott 29 34:20 00:25:21 8:10
24 1187 385 Michael Belliveau 29 25:52 00:25:26 8:11
25 1938 400 Scott Hymen 27 32:20 00:25:37 8:15
26 3785 437 Marcus Mortensen 29 26:39 00:26:05 8:24
27 1666 485 Engels Ferreras 26 27:29 00:26:29 8:32
28 1383 487 Stephen Chan 29 27:56 00:26:30 8:32
29 2344 505 Glen Mowatt 28 35:41 00:26:40 8:35
30 2300 514 Jeremy Mitrani 25 27:26 00:26:44 8:37
31 2749 525 Cesar Sagastume 26 33:14 00:26:56 8:41
32 3367 529 Jairo Gasiba 27 28:10 00:26:58 8:41
33 3626 545 Norman Ruiz-Castaneda 28 36:44 00:27:06 8:44
34 1881 584 Taylor Hanson 28 27:58 00:27:28 8:51
35 4535 604 Jose Cabeza 27 35:43 00:27:45 8:56
36 3360 613 Daniel Garcia 27 33:01 00:27:50 8:58
37 2872 636 Joshua Spears 29 35:38 00:28:00 9:01
38 1865 637 Carlos Guillen 29 31:12 00:28:01 9:01
39 4301 668 Daryl Campbell 27 33:05 00:28:22 9:08
40 4616 694 William Marquez 25 29:04 00:28:34 9:12
41 1419 700 Ryan Coffield 26 32:37 00:28:38 9:13
42 2744 703 Timmy Ryan 28 32:25 00:28:39 9:14
43 4515 713 Jared Stitz 29 29:28 00:28:43 9:15
44 1873 722 Jared Hall 28 31:24 00:28:48 9:16
45 4549 731 Jens Flock 28 37:11 00:28:52 9:18
46 1549 733 Adrian Diaz 26 35:12 00:28:53 9:18
47 4685 737 Edgar Vilchez 27 34:51 00:28:56 9:19
48 4629 740 Justin Phillingane 27 39:33 00:28:58 9:20
49 4296 746 Kevin Caiafa 26 33:02 00:29:00 9:20
50 1738 767 Rick Garcia 26 32:58 00:29:08 9:23
51 1455 794 Alexander Correa 27 32:33 00:29:22 9:27
52 3764 796 Jonathon Kennedy 29 32:06 00:29:22 9:27
53 3279 820 Guillermo Cepeda 26 37:25 00:29:34 9:31
54 2328 829 Hector Morales 29 32:44 00:29:36 9:32
55 3126 836 Thomas Wolfel 28 33:37 00:29:38 9:33
56 3082 857 Paul Wanland 26 39:10 00:29:46 9:35
57 4384 890 Jaime Montalvan 25 35:54 00:29:57 9:39
58 4416 951 Robert Rodriguez 29 31:36 00:30:23 9:47
59 4028 965 Carlos Camejo 25 31:20 00:30:28 9:49
60 4200 969 Ricardo Elortegui 29 32:33 00:30:29 9:49
61 3807 970 Sabrina Sanchez 28 33:19 00:30:29 9:49
62 3329 997 Adriel Duranona 29 33:42 00:30:41 9:53
63 4201 1009 Brian Feinberg 29 31:35 00:30:48 9:55
64 3591 1043 Orlando Ramirez 27 36:35 00:31:05 10:01
65 4523 1048 Walter Vargas 29 42:23 00:31:06 10:01
66 4096 1123 Gabriel Miguel 25 37:27 00:31:36 10:11
67 4558 1136 Alex Gutierrez 28 33:30 00:31:39 10:11
68 3051 1231 Kevin Viera 26 44:58 00:32:13 10:23
69 6864 1235 Michael Betances 29 33:06 00:32:15 10:23
70 4522 1240 Stephanie Vargas 29 43:34 00:32:18 10:24
71 1282 1257 Armando Bucelo 26 35:57 00:32:25 10:26
72 3060 1262 Jaime Villamarin 29 38:56 00:32:26 10:27
73 1940 1263 Mario Ibanez 25 37:11 00:32:26 10:27
74 1224 1265 Joshua Blasberg 27 39:49 00:32:27 10:27
75 5968 1277 Martin Samayoa 29 35:49 00:32:34 10:29
76 1650 1302 Jeffrey Fernandez 28 44:01 00:32:44 10:32
77 3629 1330 Eddie San Roman Jr. 27 33:54 00:32:53 10:35
78 2710 1332 Craig Rosenkranz 27 39:46 00:32:53 10:36
79 4409 1335 Ben Richards 25 34:43 00:32:55 10:36
80 5324 1345 Andrew Escobedo 27 42:15 00:32:59 10:37
81 4214 1377 Patrick Khoury 28 40:12 00:33:11 10:41
82 1657 1416 Michael Fernandez 28 54:24 00:33:32 10:48
83 3211 1431 Filipe Albuquerque 29 35:46 00:33:37 10:50
84 4351 1472 Ryan Jurney 27 38:47 00:33:57 10:56
85 2974 1510 Joshua Truppman 25 41:09 00:34:10 11:00
86 1118 1555 Eddie Gako 26 39:31 00:34:29 11:06
87 1794 1595 Carlos Gonzalez 26 43:54 00:34:46 11:12
88 1933 1600 Bruce Huici 27 43:34 00:34:47 11:12
89 2174 1627 Daniel Lungi 26 39:52 00:34:55 11:15
90 1046 1637 Michael Alonso 28 42:01 00:35:00 11:16
91 2383 1644 Hank Newman 28 43:47 00:35:04 11:18
92 2392 1681 Alex Nuche 28 42:44 00:35:19 11:22
93 1766 1707 Conrad Gleber 26 35:26 00:35:26 11:25
94 1580 1742 Richard Driest III 27 42:34 00:35:45 11:31
95 4171 1745 Gustavo Alzate 28 43:33 00:35:46 11:31
96 3078 1755 Alex Wagner 26 37:46 00:35:54 11:34
97 4355 1776 Matt Lee 29 44:43 00:36:06 11:37
98 3013 1805 Alfredo Valdivia 27 39:21 00:36:21 11:42
99 4033 1810 Richard Cooper 28 37:10 00:36:24 11:43
100 4690 1889 David Ramos 25 41:53 00:36:57 11:54
101 1032 1912 Usman Ali 29 46:54 00:37:10 11:58
102 1067 1936 Oscar Amador 26 43:22 00:37:28 12:04
103 4017 1938 Gabriel Alonso 26 46:30 00:37:28 12:04
104 3655 1972 Emery Solis 27 47:26 00:37:41 12:08
105 2900 2003 Matthew Sullivan 26 47:04 00:38:00 12:14
106 1778 2032 German Gomez 27 44:57 00:38:21 12:21
107 3681 2079 Derek Varona 28 44:28 00:38:42 12:28
108 3241 2184 Robin Barrientos 27 39:39 00:39:38 12:46
109 1291 2202 Ignacio Caballero 27 43:42 00:39:48 12:49
110 1728 2203 Joshua Garcia 29 47:23 00:39:48 12:49
111 3153 2206 Timothy Anderson 25 45:43 00:39:53 12:51
112 2776 2226 Humberto Sanchez 28 49:37 00:40:10 12:56
113 2640 2259 Max Riveros 29 51:50 00:40:35 13:04
114 3870 2262 Zachary Laurente 26 42:50 00:40:36 13:04
115 4610 2297 Dorian Corazo 29 49:55 00:41:03 13:13
116 1153 2515 Emile Barreau 27 46:12 00:44:00 14:10
117 3409 2544 Wilson Hernandez 25 46:23 00:44:27 14:19
118 3707 2556 George Bayona 28 47:25 00:44:35 14:21
119 3726 2608 Timothy Cruz 25 50:56 00:45:40 14:42
120 2334 2613 Andrew Moreno 27 50:57 00:45:42 14:43
121 1076 2619 Michael Angulo 28 48:42 00:45:46 14:44
122 1207 2664 Alex Bethencourt 26 56:45 00:46:26 14:57
123 4307 2697 William Couselo, Jr. 27 53:13 00:47:11 15:11
124 4352 2735 Jordan Kirschner 28 51:02 00:47:52 15:25
125 2194 2762 Harrison Markey 29 53:43 00:48:19 15:33
126 2120 2789 David Llanis 25 51:47 00:48:49 15:43
127 1649 2802 Homero Fernandez 25 51:38 00:49:07 15:49
128 3921 2816 Carlos Romero 27 56:19 00:49:19 15:53
129 1404 2838 Andres Chio 27 50:47 00:49:41 16:00
130 3171 2940 Joaquin Gonzalez 29 59:58 00:51:35 16:36
131 2686 2967 Alejandro Rojas 27 1:01:05 00:52:05 16:46
132 1617 3007 Kristen Espinosa 26 1:01:17 00:53:11 17:08
133 4167 3125 Daniel Zapata 29 57:38 00:55:57 18:01
134 4008 3143 Diane Abdullah 25 57:45 00:56:41 18:15
135 2083 3278 Rodrigo Lehtinen 27 1:10:43 01:03:06 20:19
136 2555 3284 Joseph Posada 26 1:13:32 01:03:36 20:29
137 2646 3378 Alejandro Rodriguez 29 1:36:49 01:35:24 30:43

FEMALE AGE GROUP: 25 - 29

Place Bib Oallplace First Name Last Name Age Finish Net_time Pace
1 4772 23 Valeria Rodriguez 27 18:16 00:18:14 5:52
2 3557 139 Alexandra Perkins 29 21:56 00:21:53 7:03
3 2284 171 Mariela Menendez 27 23:21 00:22:26 7:14
4 1259 215 Iris Brautigam 26 24:09 00:23:15 7:29
5 2804 266 Heather Schry Setter 29 24:22 00:23:58 7:43
6 1886 287 Sarah Harper 25 29:45 00:24:23 7:51
7 1053 305 Daniela Alvarado 27 25:51 00:24:34 7:55
8 3401 309 Kamilah Hadley 26 25:33 00:24:37 7:56
9 1735 312 Nicole Garcia 29 36:12 00:24:43 7:58
10 4264 322 Javiera Veciana 25 25:06 00:24:48 7:59
11 1584 339 Elizabeth Dunn 26 25:40 00:24:56 8:02
12 4686 340 Maria Villacreses 25 25:26 00:24:57 8:02
13 2705 345 Fernando Rosado 28 25:20 00:25:00 8:03
14 2040 380 Dijana Kunovac 26 32:04 00:25:22 8:10
15 3154 387 Melissa Barr 28 29:08 00:25:27 8:12
16 2030 389 Hannah Kohrman 25 29:05 00:25:27 8:12
17 3253 432 Vera Bergengruen 25 27:40 00:26:01 8:23
18 4179 436 Ingrid Benzaquen 26 27:56 00:26:05 8:24
19 1258 439 Anna Brautigam 29 27:56 00:26:06 8:24
20 1832 454 Bonnie Goss 26 32:06 00:26:11 8:26
21 2377 462 Alejandra Neira 26 32:24 00:26:15 8:27
22 3640 498 Marylynne Schaefer 26 35:17 00:26:36 8:34
23 2384 562 Kate Nexon 29 31:18 00:27:14 8:46
24 2248 577 Christie McGee 25 27:55 00:27:24 8:50
25 3714 580 Vanessa Borroto 27 33:10 00:27:27 8:50
26 3135 599 Liane Wu 25 29:09 00:27:43 8:56
27 5010 609 Maria Vanessa Aguirre 26 36:47 00:27:48 8:57
28 1102 644 Melissa Arocha 28 31:41 00:28:04 9:02
29 2448 662 Anna Palmerola 25 37:16 00:28:18 9:07
30 2022 666 Kelly Kirtland 26 30:23 00:28:20 9:08
31 2050 683 Luanna Lamers 26 29:14 00:28:30 9:11
32 4586 743 Holly Shafer 29 31:56 00:28:58 9:20
33 1021 764 Claudia Aguila 28 39:42 00:29:07 9:23
34 3574 773 Mallory Probst 29 34:37 00:29:11 9:24
35 3813 780 Michelle Soto 28 34:58 00:29:14 9:25
36 1315 792 Grettel Carballo 26 35:00 00:29:21 9:27
37 1733 801 Melanie Garcia 29 36:19 00:29:26 9:29
38 3157 816 Stephanie Cournoyer 29 33:18 00:29:31 9:30
39 1757 817 Allison Gilbert 28 30:49 00:29:32 9:31
40 2748 826 Vanessa Sadler 27 32:44 00:29:36 9:32
41 3657 848 Danays Soto 29 41:13 00:29:43 9:34
42 1877 859 Bethany Hamm 26 34:22 00:29:47 9:35
43 4261 867 Kathryn Tananta 27 32:30 00:29:50 9:36
44 3061 874 Shalley Villamarin 25 31:48 00:29:53 9:37
45 1582 876 Vanessa Duenas 25 30:12 00:29:53 9:37
46 3789 880 Lilly Nix 28 30:42 00:29:54 9:38
47 3063 893 Gisselle Villanueva 27 35:59 00:29:58 9:39
48 4332 894 Alida Gamboa 26 33:01 00:29:58 9:39
49 3098 913 Mallory Weinshall 27 38:03 00:30:04 9:41
50 1423 917 Courtney Cohen 29 32:35 00:30:05 9:41
51 3099 918 Melanie Weinshall 25 38:03 00:30:05 9:41
52 3452 939 Cora Larrosa 26 30:15 00:30:15 9:44
53 4266 949 Leng Leng Young Lin 26 31:05 00:30:22 9:47
54 1228 976 Cinthya Blest 29 33:07 00:30:34 9:51
55 3212 982 Christina Alfonso 27 38:56 00:30:37 9:52
56 4184 999 Alejandra Bruzzo 29 33:47 00:30:42 9:53
57 2603 1016 Alexandra Reboso 25 35:26 00:30:51 9:56
58 1011 1028 Jennyfer Acosta 28 40:18 00:30:57 9:58
59 1248 1029 Camila Borges 25 37:31 00:30:58 9:58
60 2858 1045 Natalie Soler 26 37:09 00:31:06 10:01
61 3667 1052 Lucette Talamas 26 32:41 00:31:11 10:02
62 2391 1082 Stephanie Novoa 25 40:16 00:31:19 10:05
63 6856 1087 Erika Quattrocchi 28 39:50 00:31:21 10:06
64 1098 1096 Kara Armbruster 27 34:04 00:31:25 10:07
65 1869 1109 Ali Haime 25 36:38 00:31:29 10:08
66 2471 1114 Kristen Pavon 27 32:56 00:31:31 10:09
67 4222 1119 Vanessa Martin 29 37:26 00:31:35 10:10
68 3426 1134 Patricia Jimenez 25 38:23 00:31:38 10:11
69 3578 1139 Jennifer Puentes 25 40:31 00:31:40 10:12
70 2220 1147 Erika Martinez 29 33:33 00:31:43 10:13
71 3432 1158 Luba Kinal 28 37:05 00:31:46 10:14
72 4391 1166 Nga Nguyen 29 40:27 00:31:50 10:15
73 2851 1167 Vanessa Smith 29 34:03 00:31:50 10:15
74 2855 1212 Andrea Solano 25 40:02 00:32:07 10:21
75 3815 1223 Sara Tate 29 34:57 00:32:12 10:22
76 3041 1230 Kimberly Velas 26 44:57 00:32:13 10:23
77 4501 1264 Jillian Mulvaney 27 43:16 00:32:27 10:27
78 4399 1267 Danielle Pollock 27 43:17 00:32:28 10:27
79 2623 1270 Yesenia Reyes 26 40:06 00:32:30 10:28
80 1040 1275 Vanessa Almendarez 25 39:04 00:32:34 10:29
81 2184 1280 Aimara Mamani 28 39:04 00:32:36 10:30
82 1045 1295 Marissa Alonso 25 43:59 00:32:42 10:32
83 1739 1297 Tatiana Garcia 26 44:00 00:32:43 10:32
84 1780 1304 Lorena Gomez 25 34:13 00:32:44 10:33
85 1623 1318 Michelle Estrada 27 42:42 00:32:50 10:34
86 1950 1356 Sarah Isada 26 39:51 00:33:03 10:39
87 4602 1364 Gabriela Aguilar 25 43:43 00:33:07 10:40
88 4390 1375 Nancy Nguyen 27 41:48 00:33:11 10:41
89 4215 1376 Victoria Khoury 29 40:12 00:33:11 10:41
90 3482 1384 Nathaly Martinez 29 35:44 00:33:14 10:42
91 1167 1392 Jessica Beaton 25 35:27 00:33:17 10:43
92 4339 1395 Sarah Greenblatt 29 37:08 00:33:19 10:44
93 2611 1413 Rebekah Reichard 26 36:41 00:33:30 10:47
94 4618 1419 Lilly Martinez 28 37:04 00:33:33 10:48
95 2822 1432 Lindsay Shapiro 29 41:50 00:33:37 10:50
96 2786 1452 Angelica Santibanez 28 40:23 00:33:46 10:52
97 1264 1453 Lisa Brill 29 36:56 00:33:46 10:52
98 1870 1462 Jennifer Haime 25 39:01 00:33:51 10:54
99 3653 1464 Paola Sobalvarro 26 37:50 00:33:52 10:54
100 3045 1469 Jasna Veledar 28 40:38 00:33:54 10:55
101 3972 1470 Jennifer A. Perez 27 39:34 00:33:55 10:55
102 4194 1473 Crystal Crocker 27 38:47 00:33:57 10:56
103 2222 1481 Janette Martinez 28 39:02 00:34:01 10:57
104 1872 1491 Jaclyn Hall 27 36:44 00:34:06 10:59
105 3659 1495 Juliana Souza 25 40:26 00:34:08 10:59
106 1648 1509 Elizabeth Fernandez 25 42:15 00:34:10 11:00
107 1604 1512 Sara Edelman 25 41:10 00:34:11 11:01
108 4473 1525 Reidun Hallenberg-Claybor 27 40:11 00:34:15 11:02
109 1300 1526 Laura Cairo Cairo 29 43:44 00:34:16 11:02
110 1864 1528 Jessie Guevara 29 40:54 00:34:16 11:02
111 3366 1541 Priscilla Gascon 28 43:11 00:34:22 11:04
112 2044 1558 Elizabeth Kyrou 28 41:55 00:34:30 11:07
113 4441 1571 Denise Vidot 28 45:54 00:34:33 11:08
114 1105 1575 Jessica Aronovski 29 35:34 00:34:35 11:08
115 2575 1584 Siu-Len Quant 26 42:36 00:34:41 11:10
116 1839 1597 Laila Graham 25 41:28 00:34:46 11:12
117 3289 1599 Meghan Conover 26 42:13 00:34:47 11:12
118 3725 1605 Stephanie Cornejo 26 46:57 00:34:49 11:13
119 1316 1611 Carly Carbone 27 40:54 00:34:51 11:13
120 3630 1633 Jessica Sanabria 26 41:13 00:34:58 11:15
121 3858 1665 Rachel Emami 27 36:08 00:35:13 11:20
122 1718 1680 Alicia Garcia 25 42:44 00:35:19 11:22
123 1934 1682 Damaris Huici 25 44:04 00:35:19 11:22
124 3114 1685 Antonneshae Wilson 29 42:05 00:35:19 11:22
125 2238 1686 Rochelle Matlin 25 44:01 00:35:19 11:22
126 1502 1702 Marisa De La Fuente 26 35:25 00:35:25 11:24
127 2831 1731 Erica Sigel 27 44:37 00:35:37 11:28
128 1281 1744 Alexis Bucelo 28 39:15 00:35:46 11:31
129 2376 1750 Jenesis Negron 26 38:24 00:35:50 11:32
130 1514 1757 Joann Deibele 26 37:46 00:35:55 11:34
131 4415 1760 Gizelle Rodriguez 27 45:29 00:35:56 11:34
132 1691 1763 Ines Flores 28 37:30 00:35:58 11:35
133 4327 1797 Suzana Fiat 28 38:07 00:36:18 11:41
134 1660 1807 Stephanie Fernandez 25 42:00 00:36:23 11:43
135 2332 1816 Nicole Moreira 29 41:28 00:36:26 11:44
136 2706 1841 Jessica Rose 28 44:16 00:36:37 11:47
137 2873 1845 Whitney Spears 27 44:16 00:36:38 11:48
138 1967 1847 Natalia Jimenez 25 43:27 00:36:39 11:48
139 3383 1859 Angeline Gonzalez 25 42:31 00:36:46 11:50
140 1964 1870 Flor Jimenez 26 37:21 00:36:50 11:52
141 1759 1875 Vanessa Ginarte 29 40:51 00:36:51 11:52
142 4109 1877 Jessica Perez-Carrillo 26 52:19 00:36:52 11:52
143 3850 1878 Lesly Cobelo 27 44:25 00:36:52 11:52
144 1408 1881 Nathalie Chomon 29 40:27 00:36:53 11:53
145 3199 1890 Talisa Suarez 25 50:41 00:36:58 11:54
146 4532 1898 Eneida Botella 29 40:32 00:37:01 11:55
147 3393 1901 Nicole Gorordo 28 42:19 00:37:02 11:56
148 1795 1903 Cecil Gonzalez 26 44:40 00:37:03 11:56
149 4479 1911 Jessica Hodder 25 41:13 00:37:09 11:58
150 1613 1913 Monica Endejan 29 38:14 00:37:10 11:58
151 2343 1923 Jessica Mouttet 27 40:53 00:37:17 12:00
152 1133 1944 Jacquelyn Baldeon 29 39:12 00:37:32 12:05
153 3095 1958 Jessica Weber 28 46:38 00:37:37 12:07
154 3064 1960 Nicole Villaverde 28 46:38 00:37:38 12:07
155 2319 1965 Carolina Mora 25 46:42 00:37:40 12:08
156 3654 1973 Catalina Solis 26 47:26 00:37:42 12:08
157 1079 1987 Lissette Aparicio 27 43:52 00:37:50 12:11
158 3879 1990 Maite Olalde 25 43:28 00:37:50 12:11
159 4230 2004 Leyla Morad 28 47:52 00:38:01 12:14
160 4727 2017 Anik Chavez 28 40:57 00:38:10 12:17
161 1039 2019 Jennifer Almarales 26 47:54 00:38:11 12:18
162 4485 2020 Kimberly Kouri 27 43:41 00:38:12 12:18
163 2747 2034 Christine Sabina 29 44:57 00:38:22 12:21
164 2838 2044 Kathryn Singer 26 42:54 00:38:26 12:23
165 4207 2057 Hillary Grey 26 42:11 00:38:32 12:25
166 4675 2073 Sara Roa 28 46:37 00:38:40 12:27
167 3481 2078 Mabel Martinez 27 44:28 00:38:41 12:27
168 3546 2084 Kristine Paris 26 48:55 00:38:44 12:28
169 4457 2087 Rosa Cardero 27 48:19 00:38:46 12:29
170 3421 2090 Michelle Jara 25 40:23 00:38:48 12:30
171 1496 2126 Julie Davis 25 46:01 00:39:05 12:35
172 2897 2132 Norma Suarez 29 39:19 00:39:09 12:37
173 2337 2165 Jennifer Morton 28 48:39 00:39:28 12:43
174 2370 2171 Aida Nasimos 27 40:36 00:39:33 12:44
175 2183 2175 Caren Mahy 25 40:39 00:39:36 12:45
176 1705 2185 Jennine Fuentes 28 1:00:33 00:39:39 12:46
177 3534 2186 Jessica Orozco 25 39:39 00:39:39 12:46
178 1378 2188 Cosset Cerra 28 1:00:33 00:39:39 12:46
179 2199 2190 Frannie Marmorstein 25 46:29 00:39:39 12:46
180 2093 2200 Jessenia Leon 27 47:22 00:39:47 12:49
181 1349 2205 Andrea Castillo 28 49:34 00:39:52 12:50
182 2482 2231 Ashley Pena 26 49:40 00:40:14 12:57
183 3625 2234 Christine Ruiz-Castaneda 28 49:58 00:40:20 12:59
184 3267 2250 Hazel Cabrera 27 47:31 00:40:30 13:02
185 4127 2255 Mari Rodriguez 29 50:06 00:40:33 13:03
186 3031 2256 Samanda Vasquez 28 51:50 00:40:33 13:04
187 2711 2277 Jill Rosenkranz 25 47:44 00:40:52 13:09
188 3882 2285 Julieanne Olegario 26 43:11 00:40:57 13:11
189 4267 2303 Ariel Montesino 26 51:13 00:41:08 13:15
190 1606 2327 Patricia Elizee 29 41:25 00:41:25 13:20
191 6870 2330 Molly Harper 25 44:46 00:41:26 13:21
192 1997 2332 Sabrina Kaplan 29 50:49 00:41:27 13:21
193 1538 2342 Desiree Desa 27 49:41 00:41:37 13:24
194 4262 2343 Nathalie Toro 28 43:26 00:41:38 13:24
195 3798 2370 Amy Rothstein 25 47:19 00:41:57 13:31
196 6878 2372 Jessica Gonzalez 28 46:55 00:41:58 13:31
197 3242 2395 Bianca Barrow 25 44:03 00:42:18 13:37
198 2318 2426 Ana Mora 28 51:39 00:42:36 13:43
199 4456 2436 Britt Capmany 28 47:07 00:42:42 13:45
200 2628 2441 Keren Rios 28 47:32 00:42:47 13:46
201 3152 2445 Stephanie Acosta 29 54:26 00:42:49 13:47
202 2561 2451 Emmanuela Prevolis 26 52:21 00:42:56 13:49
203 2563 2453 Sophia Prevolis 28 52:21 00:42:58 13:50
204 2395 2460 Kassandra Nunez 25 47:19 00:43:02 13:52
205 1310 2462 Eileen Candela 26 53:30 00:43:05 13:52
206 4499 2507 Karisa Millington 27 44:39 00:43:52 14:07
207 2746 2513 Vanessa Saballos 29 49:19 00:43:58 14:09
208 2594 2518 Nicole Ramos 28 46:13 00:44:01 14:10
209 5602 2535 Patricia Lehtinen 26 46:12 00:44:15 14:15
210 3792 2540 Deborah Platzman 26 49:22 00:44:22 14:17
211 3107 2541 Danielle Whiting 26 49:22 00:44:23 14:17
212 2216 2549 Ashley Martinez 26 52:23 00:44:31 14:20
213 3408 2552 Brittney Hernandez 25 46:28 00:44:33 14:21
214 3769 2554 Patricia Maquilon 27 53:45 00:44:34 14:21
215 3822 2578 Sabrina Valdivieso 29 50:01 00:44:56 14:28
216 2321 2597 Ana Moralejo 26 51:27 00:45:28 14:39
217 1779 2602 Jennifer Gomez 29 46:22 00:45:35 14:41
218 1932 2604 Adlyn Huertas 29 48:31 00:45:36 14:41
219 3728 2616 Priscilla Dejesus 26 55:10 00:45:44 14:44
220 1363 2617 Rachel Castro 26 53:34 00:45:45 14:44
221 4174 2621 Samantha Arce 26 53:34 00:45:48 14:45
222 4234 2624 Liliana Piedra 27 48:50 00:45:51 14:46
223 2325 2636 Ana Morales 27 54:08 00:46:03 14:50
224 2789 2637 Jessica Sargo 25 54:08 00:46:03 14:50
225 2475 2639 Jessica Paz 25 56:15 00:46:04 14:50
226 1820 2640 Monica Gonzalez 27 56:16 00:46:04 14:50
227 2161 2643 Lissette Lozano 27 56:17 00:46:06 14:51
228 3036 2644 Jillian Vega 29 50:42 00:46:06 14:51
229 4403 2653 Mirna Raudez 28 52:47 00:46:11 14:52
230 1527 2663 Brenda Delgado 28 56:45 00:46:23 14:56
231 3316 2665 Christine Dominguez 26 51:43 00:46:27 14:57
232 4536 2668 Jenny Cabrera 26 55:32 00:46:42 15:02
233 4757 2676 Joy Gonzalez 26 52:17 00:46:53 15:06
234 2721 2694 Maria Rubi 27 57:49 00:47:09 15:11
235 1589 2705 Indira Dupotey-Rubi 28 57:58 00:47:19 15:14
236 1882 2712 Mellanie Hara 25 50:21 00:47:33 15:19
237 3381 2714 Jessica Gomez 25 1:01:59 00:47:37 15:20
238 2994 2724 Stephanie Urea±A 26 57:38 00:47:47 15:23
239 4043 2815 Anais Diaz 27 56:19 00:49:18 15:52
240 3962 2889 Katie Husta 26 53:50 00:50:45 16:21
241 3138 2892 Rachel Yap 26 55:04 00:50:47 16:21
242 4306 2895 Christine Cordova 27 53:48 00:50:49 16:22
243 1042 2899 Diane Alonso 28 57:54 00:50:53 16:23
244 1307 2961 Sharon Campos 27 1:00:57 00:51:58 16:44
245 1783 2965 Nicole Gomez 25 1:01:56 00:52:02 16:45
246 3812 2971 Kharina Soto 28 53:18 00:52:13 16:49
247 1429 3009 Simone Collie 27 58:44 00:53:14 17:08
248 2410 3011 Marlene Oria 27 1:02:59 00:53:17 17:09
249 1748 3032 Marissa Germain 25 59:20 00:53:41 17:17
250 1963 3033 Erin Jimenez 28 1:00:24 00:53:42 17:18
251 1335 3039 Leeallie Carter 27 1:03:01 00:53:53 17:21
252 1152 3049 Julina Baro 29 1:05:41 00:54:04 17:24
253 3647 3067 Michelle Shaffer 29 1:05:57 00:54:20 17:30
254 2450 3099 Caro Pantin 28 1:04:15 00:55:06 17:44
255 1858 3110 Stephanie Guedes 26 1:01:00 00:55:24 17:50
256 3291 3176 Elizabeth Corbo 29 1:06:26 00:57:51 18:37
257 3699 3185 Christine Abreu 27 1:02:03 00:58:18 18:46
258 4714 3214 Latoya Lopez 28 1:07:09 00:59:21 19:07
259 4715 3215 Rarcheka Forbes 27 1:07:08 00:59:22 19:07
260 1377 3216 Priscilla Cerome 28 1:07:08 00:59:22 19:07
261 3014 3235 Dianne Valdivia 28 1:02:59 01:00:00 19:19
262 4049 3262 Carla Fernandez 27 1:10:38 01:01:49 19:54
263 1217 3276 Jessica Blanco 29 1:09:41 01:02:53 20:15
264 4311 3281 Kristen Cruz 27 1:11:20 01:03:28 20:26
265 4470 3347 Maibelys Gonzalez 28 1:21:05 01:10:40 22:45
266 3129 3366 Kayin Wong 27 1:18:37 01:15:58 24:27

MALE AGE GROUP: 30 - 34

Place Bib Oallplace First Name Last Name Age Finish Net_time Pace
1 1975 14 Shawn Johnson 34 17:49 00:17:44 5:43
2 4728 16 Renato Delvecchio 30 17:53 00:17:53 5:46
3 3851 34 Jason Corado 30 19:19 00:18:58 6:07
4 2273 55 Cristian Mena 34 19:54 00:19:47 6:23
5 4771 57 Jose Curbeira 31 19:51 00:19:49 6:23
6 3846 65 Jorge Bustamante 31 21:09 00:19:56 6:25
7 4653 93 Adrian Fernandez 34 20:54 00:20:35 6:38
8 4037 94 Pedro Davila 32 25:03 00:20:36 6:38
9 6917 127 Jorge Salum 33 21:38 00:21:29 6:55
10 4078 145 Victor Kasper 32 22:47 00:21:56 7:04
11 2803 150 Jeffrey Schrad 31 27:41 00:22:01 7:06
12 4106 152 Jose Otero 33 24:00 00:22:02 7:06
13 2656 175 Eduardo Rodriguez 30 22:44 00:22:28 7:14
14 2754 201 Fabian Salazar 32 26:22 00:23:00 7:25
15 2559 206 Nestor Prado 31 24:01 00:23:09 7:27
16 4146 228 Christopher Sherlock 34 29:01 00:23:23 7:32
17 3270 239 Mario Campa 32 25:10 00:23:36 7:36
18 4503 254 Mark Pratt 32 27:55 00:23:51 7:41
19 3500 271 Joseph Michalak 33 24:18 00:24:02 7:44
20 1957 278 Mitchell Jenkins 32 25:52 00:24:09 7:47
21 4505 301 Joshua Rader 32 27:38 00:24:31 7:54
22 1989 319 Adam Kadushin 34 26:22 00:24:46 7:59
23 3688 327 Raimundo Villar Neto 32 27:04 00:24:51 8:00
24 2764 353 Kerry Sampson 32 26:21 00:25:03 8:04
25 1585 362 James Dunn 31 25:53 00:25:09 8:06
26 4454 404 Richard Camino 31 32:57 00:25:40 8:16
27 2473 455 Pedro Pavon 32 27:33 00:26:12 8:26
28 2674 466 Osvaldo Rodriguez 30 29:26 00:26:18 8:28
29 1512 493 Michael Dearmas 31 27:54 00:26:33 8:33
30 1043 518 James Alonso 33 28:38 00:26:47 8:38
31 4188 521 Jordan Casanas 32 32:39 00:26:49 8:38
32 1707 530 David Galarce 31 33:53 00:26:59 8:41
33 1263 539 Torey Brewer 31 28:03 00:27:04 8:43
34 3470 576 Francisoco Lopez 31 32:03 00:27:23 8:49
35 1436 600 Enrique Conde 34 31:30 00:27:43 8:56
36 3718 605 Adrian Caballero 30 37:35 00:27:46 8:56
37 2413 620 Alejandro Ortega 31 32:33 00:27:52 8:59
38 3544 631 Sergio Papa 33 34:27 00:27:57 9:00
39 3449 657 Russell Landy 31 31:23 00:28:15 9:06
40 3066 669 Johan Villegas 31 41:08 00:28:22 9:08
41 1548 678 Bryan Dewsbury 33 31:22 00:28:28 9:10
42 3493 748 Gilbert Meilan 34 30:52 00:29:01 9:21
43 2707 752 Patrick Rose 30 36:40 00:29:02 9:21
44 2146 761 Richard Lopez 30 30:22 00:29:05 9:22
45 2433 789 Oliver Pacheco 34 31:42 00:29:19 9:26
46 4406 807 Kyle Redon 32 30:22 00:29:29 9:30
47 1340 809 Alexandro Casabielle 32 37:56 00:29:30 9:30
48 3451 811 Maxime Larive 31 32:15 00:29:30 9:30
49 3205 814 Benjamin Weathers-Lowin 34 33:18 00:29:31 9:30
50 3115 825 Paul Wilson 30 33:14 00:29:36 9:32
51 3407 834 Alex Hernandez 33 35:37 00:29:38 9:33
52 3030 930 Rene Vargas 31 38:30 00:30:10 9:43
53 2256 947 Joseph McKeon 34 31:03 00:30:20 9:46
54 1896 975 Allan Hernandez 32 33:07 00:30:34 9:51
55 4682 977 Javier Torres 30 38:34 00:30:34 9:51
56 1536 985 Philip Depaola 31 39:57 00:30:37 9:52
57 2141 1012 Mario Lopez 32 35:53 00:30:50 9:56
58 1422 1023 Brad Cohen 31 33:25 00:30:54 9:57
59 2357 1024 Felipe Murcia 32 40:14 00:30:54 9:57
60 4376 1026 Greg McDonald 30 40:21 00:30:56 9:58
61 3750 1080 Miguel Gonzalez 32 41:37 00:31:18 10:05
62 4318 1081 Anthony Dones 34 34:30 00:31:19 10:05
63 1428 1083 Komaal Collie 30 36:38 00:31:19 10:05
64 1685 1110 Scott Fischer 33 40:22 00:31:29 10:08
65 4438 1111 John Trinidad 31 40:07 00:31:29 10:08
66 4759 1162 Diego Amato 31 37:21 00:31:48 10:14
67 4279 1200 Brian Alonso 34 40:05 00:32:02 10:19
68 3666 1208 Jean Paul Talamas 30 32:39 00:32:06 10:20
69 4346 1217 Bryan Husta 30 35:09 00:32:09 10:21
70 2608 1220 Juan Regalsky 33 34:34 00:32:10 10:22
71 2886 1249 Brian Stohr 33 42:59 00:32:24 10:26
72 1817 1274 Luis Gonzalez 32 41:31 00:32:33 10:29
73 2295 1284 Enrique Miranda 33 39:04 00:32:37 10:30
74 1048 1306 Ricky Alonso 33 34:11 00:32:45 10:33
75 3067 1323 Kleber Villon 33 35:27 00:32:52 10:35
76 4123 1327 Joel Rivero 33 38:28 00:32:52 10:35
77 1024 1393 Alejandro Aguirre 31 35:27 00:33:18 10:44
78 4646 1426 Trevor Brinton 32 42:28 00:33:35 10:49
79 1977 1457 Andy Jomarron 34 43:29 00:33:48 10:53
80 4540 1459 Armando Cruz 33 34:57 00:33:50 10:54
81 1911 1482 William Hernandez 31 34:15 00:34:01 10:57
82 1863 1523 Ernesto Guevara 33 40:54 00:34:15 11:02
83 3615 1531 Edwin Romero 32 42:43 00:34:16 11:02
84 2347 1559 Stavros Moyssidis 34 41:55 00:34:30 11:07
85 4510 1603 Yunel Rodriguez 32 40:16 00:34:48 11:12
86 2691 1703 Victor Romano 34 37:19 00:35:25 11:24
87 1400 1719 Kirk Chin 31 42:57 00:35:32 11:27
88 2596 1761 Ryan Raposo 30 38:02 00:35:57 11:35
89 1781 1796 Marco Gomez 31 37:42 00:36:17 11:41
90 5158 1828 Xavier Caceres 32 41:12 00:36:31 11:46
91 2977 1856 Peyton Tune 34 46:12 00:36:46 11:50
92 4071 1930 Spencer Huici 30 46:08 00:37:21 12:02
93 2685 1971 Christopher Rodriguez-Jaile 30 40:13 00:37:41 12:08
94 2163 2023 Douglas Lubowitz 34 48:11 00:38:12 12:18
95 3193 2051 Eddy Rafael 32 45:25 00:38:30 12:24
96 3896 2069 Ronald Tejeda 32 45:31 00:38:38 12:26
97 1694 2075 Saul Fonseca 30 41:18 00:38:40 12:27
98 2504 2120 Michael Perez 30 44:59 00:39:01 12:34
99 2073 2145 Luke Lazenby 33 39:37 00:39:18 12:39
100 6885 2150 Ryan Paton 34 44:07 00:39:21 12:40
101 4726 2207 Ernesto Guerrero 33 49:35 00:39:54 12:51
102 4103 2241 Victor Moreno 30 49:58 00:40:23 13:00
103 3202 2307 Franklyn Tavarez 33 45:34 00:41:11 13:16
104 2153 2321 Luis Lopez Del Castillo 32 43:01 00:41:21 13:19
105 1996 2329 Bradley Kaplan 34 50:49 00:41:26 13:21
106 3120 2338 Jeremy Witcoski 34 48:41 00:41:33 13:23
107 4735 2373 Edgar Lopez 34 46:41 00:41:58 13:31
108 1742 2422 Richard Garel 33 45:16 00:42:34 13:42
109 4187 2486 Roberto Cardenal 31 46:29 00:43:34 14:02
110 3330 2528 Marvin Escobar 34 53:21 00:44:06 14:12
111 4582 2575 Jose Rodriguez 34 54:10 00:44:54 14:28
112 6888 2641 Edmundo Goyans 34 48:33 00:46:05 14:50
113 3019 2693 Miguel Valle 30 57:49 00:47:09 15:11
114 5522 2695 David Iglesias 34 56:29 00:47:10 15:11
115 2719 2698 Ernesto Rubi 31 57:50 00:47:11 15:12
116 4767 2869 James Griffin 31 56:11 00:50:15 16:11
117 4766 2882 Jeff Lee 32 56:28 00:50:32 16:16
118 2051 2992 Harold Lang 34 55:27 00:52:51 17:01
119 1336 3040 Travis Carter 33 1:03:01 00:53:53 17:21
120 3489 3122 Andrew McCutcheon 31 1:05:16 00:55:48 17:58
121 1022 3253 Jose Aguilera 33 1:06:27 01:00:54 19:36
122 4641 3255 Wilver Almarales 32 1:01:09 01:01:09 19:41
123 4598 3317 Anthony Roker 30 1:08:50 01:07:18 21:40
124 6907 3323 Rudolf Roman 31 1:22:03 01:07:47 21:49
125 2844 3332 Michael Sloto 33 1:17:22 01:08:47 22:09
126 2525 3356 Manuel Pimentel 31 1:14:44 01:13:03 23:31
127 2793 3358 Garrett Schendowich 33 1:15:56 01:13:19 23:36
128 4567 3367 Daniel Kalik 32 1:22:23 01:16:30 24:38
129 2091 3370 Jaime Lemus 32 1:22:35 01:20:12 25:49
130 2675 3375 Pablo Rodriguez 32 1:36:50 01:35:22 30:42

FEMALE AGE GROUP: 30 - 34

Place Bib Oallplace First Name Last Name Age Finish Net_time Pace
1 4257 187 Lilian Solorzano 34 23:23 00:22:41 7:18
2 1969 245 Guimel Jiron 33 23:51 00:23:38 7:37
3 3240 252 Charcillea Barrett 34 32:28 00:23:49 7:40
4 3238 259 Leslie Barreiro 30 24:48 00:23:53 7:42
5 4254 343 Rita Sequeira 30 25:17 00:24:59 8:03
6 6855 360 Erika Santiago 30 25:39 00:25:08 8:06
7 2485 401 Janessa Penagos 31 26:20 00:25:38 8:15
8 2790 427 Fiorella Scaglia 32 26:59 00:25:58 8:22
9 1692 428 Francy Florez 31 26:00 00:25:58 8:22
10 1710 440 Amanda Gallignano 31 26:32 00:26:06 8:24
11 1576 445 Vanessa Dora© 32 29:16 00:26:09 8:25
12 3147 447 Hope Zelinger 31 28:12 00:26:10 8:26
13 2743 457 Stephanie Ryan 30 26:58 00:26:14 8:27
14 4324 471 Mariana Fernandez 31 26:40 00:26:21 8:29
15 2034 474 Sandi Kracht 34 34:01 00:26:23 8:30
16 4793 488 Tatsiana Yarashevich 33 29:32 00:26:30 8:32
17 2204 495 Fabiana Marr 34 28:18 00:26:34 8:33
18 4453 499 Patricia Camino 31 33:54 00:26:38 8:35
19 4069 507 Marilyn Hoyos 34 28:16 00:26:40 8:35
20 3256 511 Jill Bigby 31 27:16 00:26:43 8:36
21 4280 528 Natasha Andrade 30 28:11 00:26:58 8:41
22 4098 540 Jeanne Monks 31 31:25 00:27:04 8:43
23 3868 548 Marisela LałPez 30 31:29 00:27:07 8:44
24 3915 591 Brendaliz Zanetti 33 32:41 00:27:36 8:53
25 3872 635 Olga Martinez 30 34:25 00:27:59 9:01
26 1392 639 Valorie Chavin 33 29:22 00:28:02 9:02
27 2868 640 Heidi Soto 31 31:25 00:28:02 9:02
28 3317 650 Erica Dominguez 34 29:58 00:28:10 9:04
29 4732 655 Jelena Matovic 32 34:09 00:28:15 9:06
30 4526 716 Janelle Woodward 34 29:28 00:28:44 9:15
31 2052 776 Heather Lang 31 31:53 00:29:12 9:24
32 1867 778 Asha Hadley 33 30:15 00:29:13 9:25
33 1262 790 Staci Brewer 30 30:19 00:29:19 9:26
34 4405 795 Kaylar Redon 30 30:15 00:29:22 9:27
35 4648 798 Erika Coello 34 35:30 00:29:24 9:28
36 4407 808 Melissa Redon 34 30:22 00:29:29 9:30
37 1339 815 April Casabar 32 31:18 00:29:31 9:30
38 2468 827 Nicole Paton 34 31:05 00:29:36 9:32
39 3608 832 Maria Roa 30 37:45 00:29:37 9:32
40 2866 835 Kristina Sosa 31 32:46 00:29:38 9:33
41 2800 860 Jessica Schneider 31 36:33 00:29:47 9:36
42 4249 865 Carmen Sanchez 34 33:03 00:29:49 9:36
43 2225 866 Mirella Martinez 31 32:15 00:29:50 9:36
44 4304 871 Christy Celi 34 30:19 00:29:51 9:37
45 6658 872 Mary Otero 32 33:55 00:29:52 9:37
46 1753 878 Anastassia Gibson 32 36:03 00:29:53 9:38
47 4780 889 Gladys Mugica 33 30:27 00:29:57 9:39
48 3866 891 Janet Jimenez Felder 30 35:58 00:29:57 9:39
49 2039 906 Lisa Kuenzi 31 32:15 00:30:03 9:41
50 4162 909 Shannon Williams 30 33:44 00:30:04 9:41
51 3543 988 Irene Palomo 33 39:11 00:30:38 9:52
52 3029 1001 Heather Vargas 31 39:04 00:30:43 9:54
53 2826 1013 Marlene Sherlock 33 35:12 00:30:50 9:56
54 4694 1020 Taylor Pena 31 34:45 00:30:53 9:57
55 2540 1041 Cristina Plasencia 32 35:48 00:31:05 10:01
56 3980 1065 Annette Malkin 33 36:54 00:31:14 10:04
57 1292 1105 Maite Caballero 32 33:46 00:31:27 10:08
58 1289 1155 Renee Butts 30 35:03 00:31:45 10:13
59 3177 1173 Marisa Jones 31 36:31 00:31:53 10:16
60 1762 1180 Jennifer Giral 32 39:00 00:31:55 10:17
61 3809 1203 Kyra Sherburne 30 38:19 00:32:04 10:20
62 3410 1213 Yanin Hernandez 32 38:08 00:32:08 10:21
63 1247 1221 Bridgette Bonet 34 43:00 00:32:11 10:22
64 1924 1242 Meredith Hixon 33 34:24 00:32:20 10:25
65 2057 1250 Tatiana Larionova 31 41:16 00:32:24 10:26
66 3130 1298 Veronica Wong 30 38:02 00:32:43 10:32
67 1910 1308 Shirley Hernandez 30 39:54 00:32:47 10:33
68 4541 1313 Christian Cruz 31 33:54 00:32:48 10:34
69 2131 1315 Carina Lopez 33 33:10 00:32:49 10:34
70 4047 1333 Jennifer Farias 33 36:18 00:32:54 10:36
71 1550 1354 Elissa Diaz 34 41:29 00:33:02 10:38
72 2338 1368 Bonette Moschella 33 34:50 00:33:07 10:40
73 2616 1370 Victoria Restrepo 30 35:24 00:33:08 10:40
74 3496 1402 Yudanis Mendez 32 38:52 00:33:23 10:45
75 2833 1415 Claudia Silva 33 40:46 00:33:31 10:47
76 3873 1417 Ana Morgenstern 34 36:18 00:33:33 10:48
77 4645 1422 Meredith Brinton 30 42:28 00:33:34 10:48
78 4212 1430 Geraldine Horvath 33 36:48 00:33:36 10:49
79 4734 1433 Maria Cristina Morrell 31 34:11 00:33:38 10:50
80 2454 1468 Mercedes Parada 34 45:15 00:33:54 10:55
81 2655 1486 Cindy Rodriguez 32 43:52 00:34:03 10:58
82 3391 1488 Andrea Goodstein 34 39:23 00:34:04 10:58
83 3046 1534 Sanja Veledar 31 41:01 00:34:17 11:03
84 4080 1582 Rebeca Kovar 34 38:49 00:34:39 11:10
85 1801 1594 Erica Gonzalez 31 43:54 00:34:46 11:12
86 1670 1601 Veronica Ferro 30 41:28 00:34:47 11:12
87 1056 1621 Cynthia Alvarez 33 44:32 00:34:54 11:14
88 2976 1659 Lauren Tune 31 40:54 00:35:11 11:20
89 1107 1697 Meileen Artayeta-Cocco 31 39:16 00:35:23 11:24
90 2815 1774 Jennifer Seidle 34 46:04 00:36:05 11:37
91 4647 1802 Cristina Capote 30 45:09 00:36:19 11:42
92 3032 1817 Adrienne Vazquez 30 41:28 00:36:26 11:44
93 4388 1825 Nuria Net 31 42:11 00:36:30 11:45
94 5157 1837 Jaclyn Caceres 32 41:13 00:36:35 11:47
95 1465 1850 Jackie Cossio 31 41:33 00:36:40 11:48
96 1590 1851 Yvonne Duque 33 41:32 00:36:40 11:49
97 3024 1853 Tasha Van Riper 32 45:20 00:36:44 11:50
98 3468 1854 Barbie Lopez 32 46:17 00:36:44 11:50
99 4458 1884 Rochel Chancerel 32 43:49 00:36:56 11:54
100 3884 1885 Michelle Oses 32 43:51 00:36:56 11:54
101 4758 1886 Jessica Jewett 31 42:30 00:36:57 11:54
102 3925 1896 Aimee Cabrera 34 39:45 00:37:00 11:55
103 3458 1908 Jacqueline Leboeuf 30 46:22 00:37:08 11:57
104 3847 1928 Mairi Bustamante 32 45:11 00:37:20 12:01
105 2181 1932 Rosangeles Madriz 30 39:03 00:37:26 12:03
106 2096 1933 Lissette Lezama 30 39:03 00:37:26 12:03
107 2756 1948 Elena Saldamando 30 39:12 00:37:33 12:05
108 2243 1952 Marcela Mayorga 30 38:51 00:37:35 12:06
109 4358 1956 Claudia Lopez 32 46:45 00:37:37 12:07
110 1747 1962 Yonie Genao 33 42:49 00:37:39 12:08
111 3216 1968 Margaret Alvarez 32 47:13 00:37:40 12:08
112 2737 1970 Jacqueline Ruiz 30 40:13 00:37:41 12:08
113 1990 1977 Anna Kadushin 32 39:21 00:37:44 12:09
114 2533 2001 April Pino 34 46:53 00:37:58 12:14
115 1790 2011 Ali Gonzalez 32 47:08 00:38:06 12:16
116 2757 2012 Melissa Saldana 30 47:56 00:38:07 12:16
117 4450 2013 Althea Balwal 33 43:36 00:38:08 12:17
118 1183 2015 Dora Begley 33 46:19 00:38:08 12:17
119 2783 2047 Patricia Sandoval 32 39:20 00:38:28 12:23
120 3296 2052 Christine Crews 30 45:25 00:38:30 12:24
121 1574 2076 Yenly Dominguez 30 41:18 00:38:40 12:27
122 2947 2111 Marexis Toca 34 40:17 00:38:55 12:32
123 3336 2112 Sury Fernandez 34 40:34 00:38:57 12:32
124 2494 2121 Angelina Perez 30 44:59 00:39:03 12:34
125 3473 2138 Maura Lopez 33 48:44 00:39:15 12:38
126 3568 2142 Lori Planchon 33 45:50 00:39:17 12:39
127 3125 2153 Kjirsten Wolever 30 44:37 00:39:24 12:41
128 6122 2167 Amber Vanderlinden 31 41:00 00:39:30 12:43
129 6423 2176 Kristi Schneider 34 46:13 00:39:37 12:45
130 1290 2199 Diana Buznego 34 40:08 00:39:45 12:48
131 4460 2215 Jackie Cobos Suarez 30 43:58 00:39:59 12:53
132 1298 2216 Jaclyn Cabrera 34 46:11 00:39:59 12:53
133 3070 2218 Edith Viloria 33 49:09 00:40:04 12:54
134 3079 2227 Natalia Walchli 34 45:47 00:40:11 12:56
135 4756 2243 Ana Lopez-Calvyn 32 40:49 00:40:26 13:01
136 4397 2263 Annette Parlade 32 50:08 00:40:36 13:04
137 1541 2266 Gisella Dettbarn 33 50:22 00:40:37 13:05
138 4654 2280 Esperanza Fernandez 34 42:30 00:40:53 13:10
139 4480 2287 Katherine Ibarra 30 47:35 00:40:58 13:11
140 4620 2299 Lissette Mencia 32 49:56 00:41:05 13:14
141 1698 2314 Laura Fothergill 32 48:04 00:41:15 13:17
142 1084 2320 Maria Arbiol 33 43:01 00:41:21 13:19
143 1697 2323 Natalie Foster 34 46:37 00:41:22 13:19
144 2778 2335 Josefina Sanchez 32 43:59 00:41:27 13:21
145 2430 2336 Zilma Osle 32 42:54 00:41:30 13:22
146 1539 2341 Maria Desimone 34 48:42 00:41:36 13:24
147 2634 2355 Marie Rivera 33 47:45 00:41:47 13:27
148 1047 2374 Monica Alonso 32 43:21 00:41:59 13:31
149 1535 2392 Suzette Demoya 33 48:01 00:42:13 13:36
150 4070 2393 Katina Huici 31 51:02 00:42:15 13:36
151 2136 2410 Jackie Lopez 33 47:30 00:42:26 13:40
152 4487 2429 Sonia Leon 31 52:14 00:42:39 13:44
153 1696 2430 Allyson Fonte 33 52:13 00:42:39 13:44
154 2966 2431 Lauren Triana 31 52:14 00:42:39 13:44
155 3501 2437 Elinor Milian 33 55:34 00:42:43 13:45
156 1193 2443 Yuli Benson 33 50:10 00:42:47 13:47
157 2562 2454 Evangelia Prevolis 32 52:22 00:42:58 13:50
158 2879 2479 Teresita Stanley 33 49:12 00:43:29 14:00
159 1206 2489 Paola Betancourt 31 53:24 00:43:38 14:03
160 3780 2496 Stephanie Menendez 34 53:02 00:43:42 14:04
161 4640 2512 Ivette Abreu 30 46:43 00:43:56 14:09
162 4599 2525 Carolina Villabona 32 49:31 00:44:06 14:12
163 3849 2546 Ivania Chavarria-Montero 32 55:06 00:44:29 14:19
164 2292 2560 Valerie Milnes 31 49:51 00:44:39 14:23
165 1958 2609 Vanessa Jenkins 30 47:26 00:45:41 14:42
166 1945 2678 Melly Iglesias 34 56:12 00:46:55 15:06
167 2771 2703 Bridget Sanchez 34 54:37 00:47:18 15:14
168 3297 2713 Cynthia Crowe 34 53:40 00:47:36 15:20
169 3058 2720 Lauren Villalba 30 52:53 00:47:46 15:23
170 3696 2745 Lisa Wulf 34 58:12 00:48:00 15:27
171 1838 2759 Maggie Gould 30 53:42 00:48:18 15:33
172 3844 2775 Jennifer Bell 33 53:42 00:48:36 15:39
173 2690 2780 Kelli Romano 33 54:48 00:48:42 15:41
174 2180 2817 Marisel Madrigal 32 52:18 00:49:20 15:53
175 1029 2818 Lourdes Alea 30 52:18 00:49:20 15:53
176 4227 2819 Erin McCloskey 33 53:20 00:49:22 15:54
177 6204 2827 Cassandra Zwick 31 51:44 00:49:28 15:56
178 2928 2828 Kathleen Taylor 32 53:16 00:49:30 15:56
179 1406 2840 Brigitte Chio Acosta 30 50:48 00:49:42 16:00
180 1740 2845 Veronica Garcia 33 51:34 00:49:44 16:01
181 3824 2849 Jessica Vazquez 34 58:15 00:49:48 16:02
182 4661 2853 Magbys Hernandez 31 54:52 00:49:56 16:05
183 1372 2865 Dinorah Cepeda 34 55:49 00:50:10 16:09
184 1540 2867 Emily Detjen 30 1:00:12 00:50:13 16:10
185 6209 2887 Vanessa Garcia 33 53:19 00:50:44 16:20
186 2489 2893 Jessica Peramo 33 59:32 00:50:48 16:22
187 5550 2910 Lyssette Kathawa 34 57:00 00:51:07 16:28
188 3189 2939 Darlene Perez 32 59:58 00:51:35 16:36
189 2629 2969 Marien Rios 33 56:54 00:52:08 16:47
190 2305 3006 Rachel Mittelberg 32 1:01:16 00:53:10 17:07
191 1985 3008 Kristen Joseph 32 58:44 00:53:14 17:08
192 2777 3027 Jennifer Sanchez 33 54:28 00:53:36 17:15
193 1355 3048 Melissa Castrillon 32 1:02:26 00:53:59 17:23
194 3964 3053 Sarah Cabral 32 1:02:01 00:54:12 17:27
195 2845 3054 Ashley Smith 31 56:38 00:54:12 17:27
196 1270 3058 Amy Brown 34 1:01:49 00:54:13 17:27
197 2688 3060 Elery Rojas 30 1:00:46 00:54:15 17:28
198 3209 3062 Ely Acosta 34 1:05:53 00:54:16 17:28
199 1807 3073 Jennifer Gonzalez 30 59:31 00:54:32 17:34
200 2892 3096 Jessalyn Strick 30 1:00:58 00:55:04 17:44
201 2905 3097 Wendy Swanson 31 1:00:58 00:55:04 17:44
202 3450 3108 Cristina Larive 34 1:00:34 00:55:23 17:50
203 4232 3158 Melissa Olivera 31 1:01:15 00:57:04 18:22
204 4639 3162 Cristina Zaldivar 34 57:18 00:57:18 18:27
205 5758 3174 Erin Moyer 34 1:10:07 00:57:47 18:36
206 4489 3188 Jacqueline Liberman 34 1:10:03 00:58:28 18:49
207 2767 3200 Christina San Jorge 32 1:03:52 00:58:40 18:53
208 4305 3201 Cristina Chomat 34 1:03:52 00:58:41 18:54
209 3567 3202 Olga Pinto 33 1:08:53 00:58:43 18:54
210 2394 3208 Caryn Nunez 32 1:07:16 00:58:59 18:59
211 1629 3228 Mimi Falcon 34 1:10:22 00:59:51 19:16
212 5639 3240 Yara Lorenzo 31 1:09:10 01:00:05 19:21
213 2090 3268 Claudia Lemus 31 1:04:49 01:02:25 20:06
214 3340 3327 Jasmine Ferro 34 1:07:59 01:07:59 21:53
215 2406 3336 Nakia Ololade 32 1:20:02 01:09:19 22:19
216 1252 3352 Jenee Bowen 34 1:18:06 01:12:51 23:27
217 2794 3357 Kristen Schendowich 31 1:15:50 01:13:12 23:34
218 4073 3363 Carmen Jackson 31 1:14:15 01:14:15 23:54
219 4074 3364 Twana Jackson 31 1:14:17 01:14:17 23:55
220 2059 3371 Vivian Lasaga 32 1:31:47 01:30:22 29:06

MALE AGE GROUP: 35 - 39

Place Bib Oallplace First Name Last Name Age Finish Net_time Pace
1 3551 39 Anibal Pena 38 19:09 00:19:07 6:09
2 2235 40 Stephen Mason 35 19:15 00:19:09 6:10
3 1489 74 Raul Damas 39 20:38 00:20:11 6:30
4 2819 76 Alain Sequeiro 35 22:08 00:20:15 6:31
5 3529 77 Johann Odermatt 37 20:17 00:20:15 6:31
6 2944 109 Sergio Tigera 35 21:07 00:20:56 6:45
7 4442 110 Antonio Viejo 36 22:10 00:21:00 6:46
8 5081 118 Jason Barger 38 21:30 00:21:15 6:51
9 2308 131 Marcel Monnar 35 22:33 00:21:39 6:58
10 4308 134 Derron Coy 38 21:48 00:21:44 7:00
11 1966 137 Luis Jimenez 37 22:47 00:21:48 7:01
12 4361 157 Albert Lorie 38 22:49 00:22:07 7:08
13 3554 165 Michael Perez 37 22:53 00:22:21 7:12
14 1776 194 Cesar Gomez 38 28:43 00:22:52 7:22
15 1978 195 Chadwick Jones 38 24:09 00:22:55 7:23
16 2877 226 Michael Spirito 37 26:58 00:23:22 7:32
17 3505 227 Christian Monnar 38 24:19 00:23:23 7:32
18 3741 233 Jason Gaines 39 27:38 00:23:30 7:34
19 4716 283 Orlando Cowley 38 24:52 00:24:15 7:49
20 1412 316 Mario Cisneros 35 26:55 00:24:45 7:58
21 3352 320 Alejandro Gadala-Maria 39 29:12 00:24:46 7:59
22 2167 328 Walter Luizaga 37 27:57 00:24:51 8:00
23 3686 342 Rene Verde 38 27:55 00:24:58 8:03
24 2832 354 Alex Silva 37 32:13 00:25:05 8:05
25 6628 357 Aaron Butler 35 33:40 00:25:05 8:05
26 1108 363 Jose Arteaga 38 25:41 00:25:10 8:06
27 4566 367 Jason Jones 36 30:18 00:25:12 8:07
28 1828 372 Hector Gordillo 37 31:41 00:25:19 8:09
29 1952 386 Jose Izquierdo 39 26:39 00:25:26 8:12
30 2277 394 Noel Mendez 37 26:27 00:25:33 8:14
31 1695 406 David Fontaine 38 27:33 00:25:44 8:17
32 1157 407 Jesse Barrus 35 27:11 00:25:44 8:17
33 4779 411 Javier Heredia 39 26:41 00:25:46 8:18
34 1642 426 Alberto Fernandez 38 26:22 00:25:57 8:22
35 2438 433 Roberto Padron 38 26:20 00:26:02 8:23
36 4246 465 Jaime Saavedra 38 29:08 00:26:17 8:28
37 2075 475 Brennan Leblanc 35 31:20 00:26:23 8:30
38 2827 506 Rami Shmuely 35 28:01 00:26:40 8:35
39 1601 520 Quinn Eddins 38 30:30 00:26:49 8:38
40 4465 544 Helmut Deutsch 38 36:21 00:27:05 8:43
41 2643 568 Edmundo Rocha 39 30:40 00:27:20 8:48
42 2871 569 Chuck Speakman 37 29:10 00:27:20 8:48
43 1055 611 Carlos Alvarez 36 29:59 00:27:48 8:57
44 4657 634 Gaston Galella 35 31:11 00:27:59 9:01
45 4768 638 Jhovan Rojas 36 29:38 00:28:02 9:02
46 1393 648 Michael Cheung 35 30:49 00:28:08 9:04
47 4035 653 Andrea Corrales 39 28:55 00:28:14 9:06
48 4031 661 Robert Chomat 35 33:14 00:28:18 9:07
49 1984 692 Andres Jorge 35 33:28 00:28:33 9:12
50 3981 699 Pedro Miranda 37 31:54 00:28:38 9:13
51 1621 727 Pablo Estepe 36 33:03 00:28:49 9:17
52 1674 744 Andrew Fiddes 39 36:03 00:29:00 9:20
53 5851 747 Edgard Perezhh 39 36:47 00:29:01 9:21
54 4190 783 Saul Ceballos 37 33:01 00:29:15 9:25
55 1078 833 Julio Aparicio 35 35:30 00:29:38 9:32
56 4000 853 Dale Underwood Sr 38 29:56 00:29:46 9:35
57 6668 864 Cesar Serpa 37 33:52 00:29:49 9:36
58 1708 882 Jaime Gallego 37 34:48 00:29:55 9:38
59 1454 895 Richard Coronado 36 34:40 00:29:58 9:39
60 4362 899 Misael Luhan 39 33:06 00:29:59 9:39
61 3612 903 Alex Rodriguez 36 33:00 00:30:02 9:40
62 3167 910 Eric Goldberg 35 36:28 00:30:04 9:41
63 1213 921 Paul Blackwell 36 34:01 00:30:06 9:42
64 1221 923 Orlando Blanco 39 38:40 00:30:07 9:42
65 2997 925 Donald Uriarte 35 36:35 00:30:07 9:42
66 4217 927 Andy Kranenburg 36 38:44 00:30:08 9:42
67 2411 937 Henry Orjeda 39 36:48 00:30:13 9:44
68 6609 941 Ramon Rivas 38 31:57 00:30:16 9:45
69 1970 1017 Michael John 35 37:20 00:30:51 9:56
70 1447 1030 Elmer Cordero 38 35:22 00:30:59 9:59
71 1786 1094 John Gonsoulin 37 32:37 00:31:23 10:06
72 1855 1118 Jorge Guanche 35 33:28 00:31:35 10:10
73 2352 1163 Ricardo Mundarain 39 36:11 00:31:49 10:15
74 2233 1176 Edwin Marzano 37 34:02 00:31:54 10:16
75 4302 1202 Michael Campbell 37 40:16 00:32:04 10:20
76 1099 1214 Daniel Armesto 35 39:32 00:32:09 10:21
77 2894 1256 Alejandro Suarez 39 37:56 00:32:25 10:26
78 1822 1291 Ruben Gonzalez 36 33:57 00:32:41 10:32
79 1627 1316 Carlos Falcon 37 38:35 00:32:50 10:34
80 3027 1329 Kenneth Varela 37 36:08 00:32:52 10:35
81 4335 1371 Benny Gonzalez 35 39:33 00:33:09 10:40
82 3404 1391 Michael Hatten 39 35:46 00:33:16 10:43
83 3118 1394 Eric Winter 35 40:09 00:33:19 10:44
84 3175 1398 Chris Groves 37 43:17 00:33:20 10:44
85 1562 1412 Ricardo Diaz 38 39:44 00:33:30 10:47
86 2605 1424 Juan Reffreger 38 36:15 00:33:34 10:49
87 2990 1436 Eugenio Ulowicz 39 36:42 00:33:39 10:50
88 3610 1497 Luis Roca 35 40:26 00:34:08 10:59
89 3599 1570 Ricardo Reyes 37 37:43 00:34:33 11:08
90 4085 1581 Raul Lorie 39 43:52 00:34:39 11:09
91 3412 1588 Stephen Hunter 38 38:52 00:34:42 11:10
92 6920 1591 Nick McCarrillo 35 46:30 00:34:43 11:11
93 4509 1617 Jonathan Rios 38 38:57 00:34:53 11:14
94 2218 1678 Dennis Martinez 37 41:18 00:35:18 11:22
95 4054 1692 Eric Garcia-Tunon 39 38:10 00:35:21 11:23
96 1923 1695 Kyle Himel 38 46:06 00:35:22 11:23
97 1851 1753 Michael Gualandi 38 41:22 00:35:51 11:33
98 1407 1815 Jose Chomon 35 39:59 00:36:26 11:44
99 2735 1863 Alvaro Rueda 38 40:04 00:36:47 11:51
100 4401 1894 Wladimir Ramirez 39 41:18 00:36:58 11:54
101 4402 1916 Alvaro Ramos 39 42:57 00:37:16 12:00
102 2123 1929 Hector Llevat 39 43:12 00:37:21 12:02
103 3008 1993 Jorge Valdes 39 46:21 00:37:52 12:11
104 3284 1996 Kevin Collins 38 45:12 00:37:58 12:13
105 2535 1999 Jimmy Pino 35 46:53 00:37:58 12:14
106 1151 2009 Raoul Barnet 35 39:47 00:38:05 12:16
107 4451 2054 Alejandro Bienes 37 46:41 00:38:30 12:24
108 3097 2081 George Weglarz 38 45:27 00:38:43 12:28
109 1041 2100 Anthony Alonso 38 47:00 00:38:51 12:31
110 1827 2113 Alfredo Gonzalez Jr. 35 45:06 00:38:57 12:33
111 3569 2144 Ryan Planchon 37 45:50 00:39:17 12:39
112 4366 2152 Christian Marin Y Kall 36 41:05 00:39:23 12:41
113 3071 2217 Javier Viloria 36 49:09 00:40:03 12:54
114 1683 2247 Christopher Fischer 35 50:22 00:40:28 13:02
115 4225 2249 Rolando Masferrer 39 48:32 00:40:29 13:02
116 4625 2264 Humberto Pena 35 49:02 00:40:36 13:04
117 3556 2272 Raul Perez-Trujillo 39 41:44 00:40:44 13:07
118 3025 2284 Tim Van Riper 35 49:32 00:40:56 13:11
119 3744 2296 Gustavo Garcia 39 45:40 00:41:02 13:13
120 1763 2315 Brian Gitlin 38 49:24 00:41:16 13:17
121 2773 2331 Gabriel Sanchez 36 43:59 00:41:27 13:21
122 3161 2380 Joseph Cramer 38 47:16 00:42:07 13:34
123 3170 2412 Hector Gonzalez 39 49:05 00:42:29 13:41
124 2853 2494 Julian Smothers 38 50:51 00:43:41 14:04
125 3794 2498 Michael Remy 36 50:55 00:43:43 14:04
126 1501 2499 Ignacio De Iraola 38 46:25 00:43:43 14:05
127 4591 2505 Enrique Tome 39 49:13 00:43:49 14:07
128 2745 2514 Pablo Saballos 38 49:20 00:43:58 14:09
129 3538 2527 Eloy Paez 38 45:04 00:44:06 14:12
130 4285 2529 Ramon Branger 39 52:19 00:44:07 14:12
131 1615 2551 Francisco Escutia 39 1:03:22 00:44:33 14:21
132 4672 2633 Maximiliano Pennella 37 52:55 00:46:00 14:49
133 1530 2670 Osmel Delgado 39 52:27 00:46:43 15:02
134 1543 2672 Jason Dettbarn 36 56:30 00:46:45 15:03
135 1232 2684 David Bodarky 38 48:48 00:47:01 15:08
136 2296 2688 Lisette Miro 37 52:01 00:47:04 15:09
137 4065 2704 Alberto Hernandez 37 48:48 00:47:19 15:14
138 2903 2710 Brent Swanson 37 52:42 00:47:30 15:18
139 2310 2772 Steven Monroy 38 1:00:09 00:48:33 15:38
140 3874 2773 Javier Negrete 39 53:41 00:48:34 15:38
141 3876 2801 Emmett Ogden 39 50:49 00:49:06 15:48
142 3955 2891 Johanny Garcia 39 58:46 00:50:47 16:21
143 6343 2923 Kaleb Johannes 39 1:00:03 00:51:19 16:31
144 1273 3057 Nathan Brown 38 1:01:48 00:54:13 17:27
145 1095 3059 Manuel Arias 38 1:00:45 00:54:14 17:28
146 3105 3076 Urland West 36 1:03:32 00:54:33 17:34
147 4128 3077 Ricardo Rodriguez 37 57:20 00:54:34 17:34
148 1313 3159 Michael Capote 39 58:53 00:57:08 18:24
149 1314 3161 Richard Capote 35 58:56 00:57:10 18:24
150 4490 3193 Noah Liberman 37 1:10:04 00:58:30 18:50
151 3977 3225 Rafael Urmana 37 1:01:02 00:59:40 19:13
152 4029 3261 Robert Carmona 35 1:10:37 01:01:49 19:54
153 2692 3296 Fernando Romero 37 1:25:30 01:04:48 20:52
154 1972 3300 Jayson Johnson 39 1:15:25 01:04:55 20:54
155 2074 3374 Rafael Lazo 36 1:39:27 01:31:44 29:32

FEMALE AGE GROUP: 35 - 39

Place Bib Oallplace First Name Last Name Age Finish Net_time Pace
1 4408 49 Karla Rojas 36 19:34 00:19:34 6:18
2 3347 107 Tammy Foster 38 20:55 00:20:55 6:44
3 3552 123 Karen Peralta Kennedy 39 21:31 00:21:20 6:52
4 2852 164 Venus Smith 36 22:32 00:22:16 7:10
5 1475 174 Ali Cruz 38 23:09 00:22:27 7:14
6 3478 230 Denise Malvehy 35 23:59 00:23:25 7:33
7 3263 279 Mayerline Bruno 36 28:37 00:24:11 7:47
8 1139 300 Hernan Banato 39 24:40 00:24:29 7:53
9 2017 390 Sharon Khalil 37 25:43 00:25:27 8:12
10 2232 399 Adrienne Marzano 37 27:49 00:25:36 8:15
11 1356 410 Anna Castro 35 29:07 00:25:46 8:18
12 4056 414 Manuel Gonzalez 35 30:44 00:25:49 8:19
13 1856 459 Ada Gudex 35 27:46 00:26:15 8:27
14 4003 500 Marti Yeager 35 27:51 00:26:39 8:35
15 2921 504 Telsys Tarallo 38 27:16 00:26:40 8:35
16 1227 512 Stacey Blau 37 27:23 00:26:43 8:36
17 1106 551 Suyen Arriaza 37 29:45 00:27:09 8:45
18 6859 563 Kaley Hoffman 36 27:28 00:27:15 8:46
19 1134 565 Nerissa Balland 36 27:59 00:27:16 8:47
20 2191 582 Jessamine Marcy 39 31:22 00:27:28 8:51
21 2828 590 Dori Shwirtz 38 33:17 00:27:35 8:53
22 2164 598 Adilia Lugo 39 29:01 00:27:43 8:56
23 2154 615 Renee Lopez-Cantera 38 33:34 00:27:51 8:58
24 3249 619 Ayesha Benjamin 35 28:25 00:27:52 8:59
25 3411 622 Tanya Horruitiner 39 36:44 00:27:52 8:59
26 4707 625 Ana Marie Landin 38 28:47 00:27:53 8:59
27 2841 632 Marianne Sioli 38 29:46 00:27:58 9:00
28 4368 656 Eleonora Market 35 34:10 00:28:15 9:06
29 1130 680 Julie Azuaje 37 32:02 00:28:29 9:10
30 4081 695 Sonia V Larson 39 31:17 00:28:35 9:12
31 1774 696 Lisa Goldfaden 39 33:18 00:28:35 9:12
32 4547 710 Vanessa Estrada 36 30:01 00:28:42 9:15
33 1724 730 Fatima Garcia 39 33:29 00:28:51 9:18
34 4354 741 Maria Leanez 35 31:54 00:28:58 9:20
35 4045 750 Julieta Ducasa 37 35:07 00:29:01 9:21
36 6795 753 Milva Roperto 35 30:30 00:29:02 9:21
37 1431 766 Diana Collins 36 30:41 00:29:07 9:23
38 4290 771 April Buchwald 36 34:37 00:29:09 9:23
39 2950 804 Stephanie Toledo 36 35:47 00:29:28 9:29
40 4719 813 Zabrina Penton 36 31:57 00:29:31 9:30
41 6891 821 Erika Mena 37 33:51 00:29:34 9:31
42 4539 828 Kenia Coley 37 30:13 00:29:36 9:32
43 2824 841 Tarah Sharon 36 32:22 00:29:39 9:33
44 1034 877 Rebecca Alicea 39 32:24 00:29:53 9:37
45 5999 885 Cecilia Segui 36 31:26 00:29:56 9:38
46 3365 900 Guadalupe Garza-Gabriel 37 30:44 00:29:59 9:39
47 4321 971 Melissa Epstein 39 35:44 00:30:30 9:49
48 4216 979 Amy Kranenburg 38 39:14 00:30:36 9:51
49 3788 983 Jeanette Munoz 35 39:10 00:30:37 9:52
50 4379 1015 Lizette Melgar 37 33:47 00:30:51 9:56
51 1488 1025 Vanessa Dager 39 32:17 00:30:56 9:58
52 2121 1047 Alina Llevat 39 37:00 00:31:06 10:01
53 1158 1053 Erika Batey 38 40:19 00:31:11 10:02
54 6895 1089 Miren Vicente 37 31:32 00:31:22 10:06
55 1026 1101 Kimberly Albanes 37 36:09 00:31:26 10:07
56 2311 1122 Christina Montes De Oca 37 38:51 00:31:36 10:11
57 4224 1125 Rocio Martinez 38 32:27 00:31:36 10:11
58 2488 1133 Alejandra Peralta 35 36:12 00:31:38 10:11
59 1507 1145 Tania De La Rosa 39 33:27 00:31:42 10:13
60 1646 1164 Barbara Fernandez 38 32:26 00:31:49 10:15
61 1816 1165 Luciana Gonzalez 38 32:26 00:31:49 10:15
62 1566 1171 Yoly Diaz 36 38:04 00:31:51 10:15
63 4783 1182 Nancy Corbera 36 33:49 00:31:56 10:17
64 3018 1206 Migfredys Valladares 38 36:04 00:32:05 10:20
65 4299 1225 Cindy Campbell 37 40:22 00:32:12 10:22
66 1595 1248 Lara Dyke 39 32:35 00:32:23 10:26
67 4425 1268 Yenny Serpa 36 36:32 00:32:29 10:28
68 3614 1342 Maren Roedenbeck 37 35:39 00:32:58 10:37
69 2547 1357 Esperanza Ponce 37 35:57 00:33:04 10:39
70 3498 1365 Mari Mesa 35 35:43 00:33:07 10:40
71 4260 1366 Renida Tai-Valenzano 38 34:50 00:33:07 10:40
72 2860 1381 Tania Solis 39 34:57 00:33:13 10:42
73 3768 1386 Daniella Loynaz 36 34:16 00:33:15 10:42
74 3652 1387 Tracy Smith 38 39:00 00:33:15 10:43
75 3119 1400 Lauren Winter 39 40:12 00:33:21 10:44
76 4615 1408 Carrie Kessler 39 40:07 00:33:28 10:47
77 1510 1420 Maritza De Quesada 37 36:14 00:33:33 10:48
78 3048 1455 Mialing Velez 36 35:18 00:33:47 10:53
79 4373 1466 Nancy Matos 39 43:09 00:33:53 10:55
80 3613 1474 Elizabeth Rodriguez 36 41:41 00:33:57 10:56
81 1866 1480 Sheyla Gutierrez 35 40:01 00:34:00 10:57
82 3335 1515 Nelly Farra 35 36:20 00:34:14 11:01
83 1675 1542 Christina Fiddes 36 41:26 00:34:23 11:04
84 4564 1547 Lauren Horelick 37 36:14 00:34:26 11:05
85 1947 1562 Mechi Insausti 35 35:25 00:34:31 11:07
86 3673 1576 Kathy Tuano 36 37:10 00:34:36 11:09
87 3266 1602 Amy Burns 39 42:12 00:34:47 11:12
88 2242 1610 Fabiola Mayorca 37 38:58 00:34:51 11:13
89 4336 1612 Katherine Gonzalez 36 36:01 00:34:51 11:13
90 3565 1616 Lina Pinilla 36 36:56 00:34:52 11:14
91 3057 1620 Angelica Villalba 35 35:56 00:34:54 11:14
92 3050 1623 Arlyn Vidal 37 40:05 00:34:55 11:15
93 2032 1624 Lindsey Korbin 37 40:10 00:34:55 11:15
94 2209 1635 Jennifer Martin 35 42:21 00:34:59 11:16
95 3840 1638 Jane Alonso 39 43:04 00:35:01 11:17
96 1656 1639 Mercy Fernandez 39 35:54 00:35:02 11:17
97 2031 1645 Ellie Kolodzieski 39 44:30 00:35:05 11:18
98 3255 1650 Lina Bergouignan 35 42:28 00:35:06 11:18
99 1096 1666 Ana Arino 39 39:09 00:35:13 11:20
100 1320 1721 Glorian Cardona 38 38:56 00:35:33 11:27
101 2192 1724 Amarys Marine 36 46:22 00:35:34 11:27
102 3982 1743 Yeleydis Manresa 37 39:01 00:35:46 11:31
103 3472 1747 Mariela Lopez 36 40:28 00:35:49 11:32
104 1922 1749 Clara Himel 37 43:40 00:35:50 11:32
105 3285 1777 Lisbeth Colon 37 44:35 00:36:07 11:38
106 6478 1786 Nicole Hommen 39 44:08 00:36:13 11:40
107 1588 1794 Kendra Dunnigan 35 38:09 00:36:15 11:40
108 3081 1812 Jenny Walters 36 40:17 00:36:24 11:43
109 2507 1843 Suzanne Perez 38 43:57 00:36:37 11:48
110 3306 1849 Liza Del Campo 39 38:50 00:36:40 11:48
111 3348 1858 Cristina Franco 36 42:30 00:36:46 11:50
112 1836 1861 Chana Gottlieb 39 44:44 00:36:47 11:51
113 4055 1866 Deyanira Gonzalez 35 44:11 00:36:49 11:51
114 3085 1891 Libby Watch 39 40:59 00:36:58 11:54
115 1347 1905 Ingrid Castelblanco 39 42:55 00:37:05 11:56
116 1066 1946 Monica Amador 35 38:54 00:37:32 12:05
117 4159 1964 Vicky Vega 39 44:38 00:37:39 12:08
118 2798 1969 Jeanine Schmidt 39 39:41 00:37:41 12:08
119 2253 1974 Alison McKee 38 41:39 00:37:43 12:09
120 3540 1981 Eyra Page 36 37:58 00:37:47 12:10
121 3283 1995 Arianne Collins 35 45:12 00:37:57 12:13
122 2373 2002 Michelle Navarro 38 43:17 00:37:58 12:14
123 4231 2007 Monica Morad 37 47:55 00:38:04 12:15
124 6865 2016 Ana Rendon 35 38:23 00:38:10 12:17
125 4517 2024 Paola Suarez 38 43:41 00:38:13 12:18
126 2936 2028 Perla Terzian 39 43:41 00:38:17 12:20
127 1772 2029 Allison Goldberg 38 43:41 00:38:18 12:20
128 1317 2030 Ana Cardenas 35 39:48 00:38:20 12:21
129 2970 2033 Lydia Trujillo 35 43:23 00:38:22 12:21
130 2158 2035 Hortensia Lorie 38 40:53 00:38:22 12:21
131 4051 2043 Leslie Fernandez 39 44:52 00:38:26 12:23
132 4737 2053 Karina Rubiera 37 46:40 00:38:30 12:24
133 2769 2083 Arleen Sanchez 35 46:03 00:38:44 12:28
134 1953 2092 Michelle Izquierdo 35 40:03 00:38:48 12:30
135 3520 2093 Vivian Nainan 38 46:13 00:38:48 12:30
136 1452 2097 Christy Cordo 37 43:15 00:38:51 12:30
137 4084 2109 Alexandra Lorie 37 48:08 00:38:54 12:32
138 2173 2116 Cynthia Lungi 39 44:00 00:38:59 12:33
139 2930 2154 Ashley Temple 37 43:40 00:39:24 12:41
140 2342 2177 Chantelle Mouttet 37 43:14 00:39:37 12:45
141 4281 2183 Edith Barahona 38 45:27 00:39:38 12:46
142 4089 2204 Maria Martinez 37 40:27 00:39:51 12:50
143 4649 2222 Christina Concepcion 38 41:23 00:40:07 12:55
144 3596 2229 Esther Reyes 38 47:40 00:40:12 12:57
145 4233 2257 Cristina Palomo 35 48:36 00:40:33 13:04
146 1829 2269 Cecilia Gordon 36 46:00 00:40:40 13:06
147 2567 2270 Michelle Pruss 36 46:01 00:40:41 13:06
148 4644 2286 Katherine Batista 38 43:16 00:40:57 13:11
149 1909 2298 Michelle Hernandez 37 46:58 00:41:04 13:13
150 3600 2324 Zenia Reyes Bardelas 37 58:33 00:41:22 13:19
151 1212 2344 Jenny Blackwell 35 46:28 00:41:38 13:24
152 1570 2345 Marni Dimaio 36 49:16 00:41:38 13:25
153 1764 2350 Lisa Gitlin 36 49:47 00:41:41 13:25
154 5274 2375 Jill Diamond 36 51:24 00:42:01 13:32
155 3845 2385 Adrienne Briones-Carlson 36 45:36 00:42:09 13:34
156 3984 2399 Suhail Sanchez 37 48:40 00:42:21 13:38
157 4198 2419 Rosaura Echegaray 37 50:43 00:42:34 13:42
158 1365 2423 Emmy Castro-Garel 37 45:16 00:42:34 13:42
159 5170 2427 Cristina Carbajales 39 46:40 00:42:37 13:43
160 2340 2475 Anay Moscy 36 53:05 00:43:26 13:59
161 3611 2476 Jackie Rodena 36 53:05 00:43:26 13:59
162 1072 2491 Rebecca Amster 37 51:03 00:43:38 14:03
163 3793 2497 Jeanette Remy 35 50:55 00:43:42 14:04
164 1511 2500 Marlene De Quesada 36 46:26 00:43:43 14:05
165 4624 2564 Jazmith Patino 38 51:04 00:44:43 14:24
166 4753 2565 Sandra Osorio 36 55:24 00:44:43 14:24
167 2816 2584 Amber Seidle-Lazo 36 52:49 00:45:06 14:31
168 4609 2620 Amy Comander 38 55:15 00:45:48 14:45
169 1354 2625 Martha Castillo 39 55:14 00:45:52 14:46
170 1137 2642 Montserrat Balseiro 35 48:34 00:46:06 14:50
171 4114 2650 Miriam Pineiro 36 52:45 00:46:09 14:52
172 2351 2651 Fatima Mullins 38 48:34 00:46:09 14:52
173 2632 2658 Aslynn Rivera 38 53:03 00:46:19 14:55
174 1965 2683 Ivania Jimenez 36 51:38 00:46:56 15:07
175 1004 2700 Raquel Abella 35 51:01 00:47:14 15:12
176 3606 2706 Maria Riumbau 36 50:19 00:47:19 15:14
177 1942 2717 Adriana Ibarra 36 52:05 00:47:43 15:22
178 2546 2723 Gina Polo 39 55:00 00:47:46 15:23
179 3990 2742 Paola Allegra 38 48:10 00:47:59 15:27
180 1276 2743 Kristina Bruni 36 58:12 00:47:59 15:27
181 2229 2803 Sandra Martinez 36 53:32 00:49:07 15:49
182 3878 2804 Lauren Ogden 37 50:52 00:49:08 15:49
183 3026 2823 Alexandra Varela 36 1:04:30 00:49:26 15:55
184 2625 2825 Lisa Riley 37 1:04:30 00:49:28 15:56
185 2592 2842 Elizabeth Ramos 35 58:43 00:49:42 16:00
186 3864 2847 Ana-Meliza Fogarty 35 52:19 00:49:46 16:01
187 2170 2854 Michelle Luke 39 59:31 00:49:57 16:05
188 1684 2866 Jamie Fischer 35 1:00:11 00:50:12 16:10
189 1382 2872 Marian Tejada 36 53:06 00:50:17 16:11
190 3527 2877 Farah Lee Obias Lofaso 38 54:22 00:50:22 16:13
191 1019 2908 Jessica Aguero 36 59:21 00:51:07 16:27
192 3310 2937 Lucy Deutsch 37 1:00:48 00:51:33 16:36
193 3503 2941 Carmen Moffett 35 1:01:31 00:51:35 16:37
194 1949 2945 Liudmila Invernizzi 39 54:13 00:51:42 16:39
195 1485 2985 Pricilla Cypress-Buster 39 54:55 00:52:41 16:58
196 2896 3015 Jennifer Suarez 37 1:02:33 00:53:24 17:12
197 3751 3028 Katherine Guzman 39 58:38 00:53:37 17:16
198 3236 3043 Marijulia Balart 39 1:01:08 00:53:56 17:22
199 1218 3047 Jo Ann Blanco 39 1:01:41 00:53:59 17:23
200 2444 3056 Arlyn Palacios 39 1:02:02 00:54:13 17:27
201 3344 3064 Katherine Florian 39 1:00:32 00:54:17 17:29
202 2029 3068 Maureen Kohnke 39 1:02:04 00:54:21 17:30
203 4125 3074 Christina Rodriguez 35 57:19 00:54:33 17:34
204 2893 3085 Amy Strickland 36 1:01:21 00:54:45 17:38
205 3100 3090 Nicole Weirbach 39 58:43 00:54:47 17:38
206 3322 3101 Kathy Donis 39 1:04:30 00:55:10 17:46
207 2316 3113 Yasmin Moorgan 38 1:00:23 00:55:35 17:54
208 4166 3126 Carol Zapata 36 57:39 00:55:57 18:01
209 3632 3131 Elise Santana 39 1:05:31 00:56:03 18:03
210 2660 3141 Elizabeth Rodriguez 35 1:04:54 00:56:40 18:15
211 3883 3157 Lisa Olivera 37 1:01:16 00:57:03 18:22
212 2072 3171 Kristy Lazenby 35 58:00 00:57:41 18:34
213 5356 3173 Barbara Fiorentino 39 1:10:07 00:57:47 18:36
214 1841 3175 Robin Gray-Urgelles 37 1:08:15 00:57:48 18:37
215 3960 3180 Eva Escatel 37 58:47 00:58:01 18:41
216 4250 3183 Mari Sanchez 38 1:02:04 00:58:15 18:45
217 4427 3224 America Shanower 38 1:02:59 00:59:35 19:11
218 4317 3238 Brenda Diez 36 1:11:16 01:00:05 19:21
219 4314 3241 Sasha De La Cadena 37 1:11:22 01:00:09 19:22
220 1345 3257 Maria Castanes 36 1:11:35 01:01:24 19:46
221 3979 3270 Margaret Wardlaw 38 1:10:27 01:02:35 20:09
222 4097 3295 Nancy Milian 39 1:07:36 01:04:47 20:51
223 2949 3312 Paloma Toledo 36 1:06:20 01:06:20 21:21
224 2979 3321 Marci Turso 38 1:18:09 01:07:43 21:48
225 4612 3335 Acyientha Dixon 35 1:20:04 01:09:11 22:16
226 3580 3338 Maria Pupo 39 1:11:44 01:09:20 22:19
227 2792 3345 Mandy Schenberger 37 1:19:05 01:09:53 22:30
228 4072 3353 Carmela Jackson 39 1:12:52 01:12:52 23:28
229 2806 3354 Kirsten Schwarz 37 1:12:54 01:12:54 23:28
230 5043 3368 Denise Andreus 39 1:28:08 01:17:58 25:06
231 3903 3372 Rossana Malatesta 37 1:38:33 01:30:30 29:08
232 1387 3373 Vanessa Chang 38 1:40:23 01:31:38 29:30

MALE AGE GROUP: 40 - 44

Place Bib Oallplace First Name Last Name Age Finish Net_time Pace
1 2741 27 Tom Russell 44 18:32 00:18:32 5:58
2 3948 43 Matthew Rosenberg 43 19:17 00:19:14 6:12
3 2369 59 Jose Naranjo 44 19:52 00:19:50 6:23
4 4778 69 Cristian Velasco 43 20:18 00:20:03 6:27
5 4395 98 George Novo 43 20:50 00:20:46 6:41
6 4491 104 Francisco Lopez 41 20:52 00:20:50 6:43
7 1459 112 David Cortez 40 21:11 00:21:07 6:48
8 3524 114 Andy Oakes-Lottridge 43 21:23 00:21:09 6:49
9 4722 122 Marco Perez 41 21:21 00:21:18 6:52
10 2313 136 Jose Montes De Oca 41 22:24 00:21:47 7:01
11 1195 149 Giovanni Beretta 42 22:57 00:22:01 7:05
12 1322 160 Matias Caroni 41 22:14 00:22:10 7:08
13 2830 184 Pierre Sierralta 43 22:52 00:22:38 7:17
14 4709 185 Brett Paredes 42 22:49 00:22:38 7:18
15 6879 221 Anthony Castagna 44 26:10 00:23:20 7:31
16 4325 250 Alain Ferzli 41 24:11 00:23:48 7:40
17 4563 269 Doug Horelick 40 25:47 00:24:01 7:44
18 1917 272 Jose Hidalgo 41 24:12 00:24:05 7:45
19 3978 286 Derek Wardlaw 41 32:14 00:24:21 7:51
20 1059 295 Luis Alvarez 40 26:42 00:24:27 7:53
21 1837 296 Steven Gottlieb 40 28:39 00:24:27 7:53
22 6809 315 James Brener 41 25:35 00:24:44 7:58
23 2695 323 William Romero 42 26:43 00:24:48 7:59
24 2521 331 Jason Pierce 42 29:18 00:24:52 8:01
25 3203 333 Eduardo Trapero 43 25:18 00:24:53 8:01
26 4580 348 Juan Reyes 44 25:22 00:25:01 8:03
27 2658 358 Elbin Rodriguez 43 25:51 00:25:05 8:05
28 3983 413 Felipe Del Valle 42 30:05 00:25:49 8:19
29 4482 435 Jason James 40 28:22 00:26:03 8:24
30 1140 438 Dario Barbera 44 26:45 00:26:06 8:24
31 2459 451 Carlos Parra 40 28:07 00:26:10 8:26
32 4083 468 Ybrahim Lopez 41 32:24 00:26:19 8:29
33 5050 550 Sergio Aranda 43 32:14 00:27:08 8:44
34 4086 559 Alfred Lurigados 42 28:51 00:27:12 8:46
35 2035 573 Gerald Kral 40 36:47 00:27:22 8:49
36 3992 581 Nelson Garcia Jr 42 32:07 00:27:28 8:51
37 2677 616 Ruben Rodriguez 40 29:54 00:27:52 8:58
38 2462 643 Antolin Partidas 44 29:05 00:28:04 9:02
39 4044 654 Carlos Dominguez 43 28:55 00:28:14 9:06
40 1491 681 Michael D'Angelo 43 32:46 00:28:30 9:11
41 1986 723 Carlos Junco 40 35:01 00:28:48 9:16
42 2867 757 Alejandro Soto 42 30:11 00:29:03 9:21
43 4429 791 Greg Shanower 40 32:36 00:29:20 9:27
44 3839 797 Wade Adams 42 31:08 00:29:23 9:28
45 3906 802 Rudi Castineyra 44 31:46 00:29:26 9:29
46 4034 818 Alfredo Cordova Martinez 44 36:03 00:29:32 9:31
47 3226 862 Michael Arquillo 40 35:45 00:29:47 9:36
48 2230 888 Albert Maruri 42 39:25 00:29:56 9:39
49 2435 919 Roberto PadrałN 41 30:08 00:30:05 9:41
50 1796 926 Danny Gonzalez 40 32:16 00:30:08 9:42
51 4334 993 Lee Geller 42 35:53 00:30:38 9:52
52 3509 994 Julio Morales 41 37:10 00:30:40 9:52
53 2508 1007 Jose Perez De Corcho 42 36:24 00:30:45 9:54
54 3268 1018 Richard Calero 41 35:03 00:30:52 9:56
55 1760 1036 Harold Girado 41 37:08 00:31:02 10:00
56 1777 1054 Ernesto Gomez 44 34:37 00:31:11 10:02
57 1437 1059 Alex Condis 41 34:43 00:31:13 10:03
58 2363 1060 Michael Murphy 42 32:53 00:31:13 10:03
59 3893 1076 Franklin Roig Jr 42 33:26 00:31:17 10:05
60 3941 1088 Timothy Boyett 40 33:48 00:31:21 10:06
61 2037 1091 Aj Kreider 44 34:55 00:31:22 10:06
62 1154 1104 Henry Barreras Jr. 41 32:22 00:31:27 10:08
63 4703 1108 Albert Mestres 43 40:04 00:31:29 10:08
64 2614 1137 Andres Restrepo 42 37:40 00:31:39 10:12
65 3720 1154 Abel Carreno 43 35:33 00:31:45 10:13
66 1554 1184 Francisco Diaz 42 35:21 00:31:56 10:17
67 1564 1210 Roberto Diaz 40 35:07 00:32:07 10:20
68 2644 1243 Alejandro Roche 42 42:10 00:32:20 10:25
69 4196 1254 Oscar Echegaray 40 40:34 00:32:24 10:26
70 2294 1259 Francisco Miralles 43 41:17 00:32:25 10:26
71 2456 1269 Jaime Parlade 40 36:05 00:32:30 10:28
72 1936 1271 Jason Hunt 40 38:00 00:32:30 10:28
73 2282 1272 Nelson Mendoza 40 34:43 00:32:31 10:28
74 5370 1339 Reed Frary 43 42:26 00:32:56 10:36
75 1160 1340 Harold Batlle 42 34:51 00:32:57 10:37
76 4382 1380 Jorge Molina 40 42:24 00:33:13 10:42
77 3583 1383 John Quade 44 38:47 00:33:14 10:42
78 3172 1389 Robert Gonzalez 43 35:13 00:33:16 10:43
79 6873 1437 Leo Garcia 43 35:39 00:33:40 10:50
80 2556 1439 Mauricio Posada 41 37:37 00:33:40 10:51
81 1457 1441 Rick Correoso 42 35:03 00:33:41 10:51
82 2339 1444 Bruce Moschella 40 35:33 00:33:42 10:51
83 4751 1447 Jesus Jara 43 36:58 00:33:44 10:52
84 4611 1449 Juan Cordero 44 40:22 00:33:44 10:52
85 3796 1467 Carlos Rodriguez 40 40:27 00:33:53 10:55
86 3342 1487 Anthony Figueras 44 39:22 00:34:04 10:58
87 2925 1519 Brian Tart 43 37:35 00:34:14 11:02
88 2226 1556 Noel Martinez 44 41:53 00:34:29 11:06
89 3386 1577 Julian Gonzalez 41 37:10 00:34:37 11:09
90 4788 1579 Josh Mosher 44 38:27 00:34:38 11:09
91 1403 1583 Willesley Chin 41 38:52 00:34:41 11:10
92 4613 1586 James Dougherty 41 43:07 00:34:42 11:10
93 4516 1598 David Suarez 41 40:16 00:34:47 11:12
94 3867 1640 Joe Kennedy 42 36:33 00:35:03 11:17
95 3102 1647 Greg Weiss 43 44:30 00:35:05 11:18
96 1110 1661 Ariel Artime 40 37:15 00:35:12 11:20
97 1770 1662 Leandro Goicoechea 43 41:34 00:35:12 11:20
98 1070 1671 Matthew Amster 40 42:41 00:35:14 11:21
99 2607 1674 Roidi Regalado 41 39:09 00:35:15 11:21
100 1332 1714 Armando Carricaburu 41 39:44 00:35:30 11:26
101 4698 1723 Craig Arnold 44 38:43 00:35:33 11:27
102 2446 1798 Manny Pallango 44 44:29 00:36:18 11:41
103 3413 1813 Amadeo Ibarra 44 37:30 00:36:24 11:43
104 4467 1814 Paul Dutcher 40 40:17 00:36:26 11:44
105 4157 1821 Efrain Vega 41 43:26 00:36:28 11:44
106 1057 1826 Hugo Alvarez 41 42:55 00:36:30 11:45
107 4731 1855 Guillermo Olmedillo 44 42:06 00:36:45 11:50
108 4375 1857 Michael Maulini 41 44:09 00:36:46 11:50
109 2766 1860 Michael Samuels 44 38:12 00:36:47 11:51
110 3294 1873 Alan Crespo 40 37:12 00:36:51 11:52
111 4628 1922 Ulises Perez 43 37:17 00:37:17 12:00
112 3772 1937 Gabriel Martinez 43 43:46 00:37:28 12:04
113 4152 1945 Angel Toledo 41 39:20 00:37:32 12:05
114 4447 1954 Garrett Zediker 41 46:56 00:37:36 12:06
115 3299 1976 Juan Daire 40 46:41 00:37:44 12:09
116 1714 1989 Othman Gamero 43 39:19 00:37:50 12:11
117 2802 2040 Neil Schneider 43 49:11 00:38:25 12:22
118 4370 2042 Cesar Matos 44 47:33 00:38:26 12:23
119 2551 2046 Yader Portocarrero 42 47:22 00:38:28 12:23
120 3889 2055 Eric Perez 42 45:41 00:38:30 12:24
121 4163 2062 David Worland 43 47:04 00:38:34 12:25
122 3709 2063 Stuart Beharry 42 47:05 00:38:34 12:25
123 2487 2077 Ernesto Pentenero 43 47:40 00:38:41 12:27
124 2262 2128 Daniel Medina 40 44:54 00:39:06 12:35
125 4278 2129 Mohamad Alkadry 43 40:33 00:39:08 12:36
126 3902 2180 David Chazin 42 48:00 00:39:38 12:46
127 2041 2192 Eric Kurz 44 48:35 00:39:41 12:47
128 1715 2194 Alberto Garcia 44 44:20 00:39:42 12:47
129 4027 2211 Rodrigo Calvo 42 47:28 00:39:54 12:51
130 3156 2279 Jorge Bruna 41 42:23 00:40:52 13:09
131 4643 2289 Ismael Batista 41 43:16 00:40:58 13:12
132 1749 2311 David German 43 48:04 00:41:14 13:17
133 2578 2349 Andrew Quarrie 40 43:18 00:41:40 13:25
134 1023 2381 Nestor Aguilera 41 45:40 00:42:07 13:34
135 1847 2382 Max Steven Grossman 42 50:21 00:42:08 13:34
136 1901 2387 Eddie Hernandez 43 44:03 00:42:09 13:34
137 3848 2389 Nate Carlson 40 45:38 00:42:12 13:35
138 4622 2402 Ivan Patino 40 48:41 00:42:22 13:39
139 3224 2413 Moises Arguez 44 46:17 00:42:29 13:41
140 1237 2448 Milton Bolanos 44 44:07 00:42:52 13:48
141 2758 2456 Damon Salerno 44 47:22 00:42:59 13:50
142 1956 2517 Adam Jacobson 41 48:19 00:44:00 14:10
143 1906 2521 Jorge Hernandez 43 48:22 00:44:03 14:11
144 2836 2522 Jerry Simonson 44 45:11 00:44:04 14:11
145 1594 2580 Jed Dwyer 41 51:41 00:45:03 14:30
146 2257 2581 Alex Mechaber 44 48:44 00:45:06 14:31
147 3881 2589 Sean Oldfield 40 48:29 00:45:12 14:33
148 3734 2647 Mario Farnesi 44 48:40 00:46:07 14:51
149 2350 2649 Brian Mullins 43 48:35 00:46:09 14:52
150 1661 2657 Luis Fernandez De Castr 40 53:02 00:46:19 14:55
151 2560 2679 Christian Pressman 41 51:37 00:46:55 15:06
152 2620 2726 Richard Rey 41 55:00 00:47:47 15:23
153 4776 2731 Carlos Estefani 42 49:38 00:47:51 15:24
154 4445 2766 Mike Weihl 44 53:54 00:48:21 15:34
155 4237 2781 Claudio Riedi 41 54:10 00:48:43 15:41
156 4578 2811 Carlos Preito 44 50:39 00:49:14 15:51
157 1323 2902 Eric Carpenter 42 54:17 00:50:59 16:25
158 2000 2913 Richard Kathawa 44 57:00 00:51:08 16:28
159 4464 2917 Sanjiv Desai 42 58:41 00:51:12 16:29
160 3939 2957 Marc Barrientos 44 1:01:33 00:51:51 16:42
161 1214 3051 Benjamin Blanco 44 1:01:49 00:54:07 17:25
162 3323 3104 Manuel Donis 42 1:04:34 00:55:13 17:47
163 2132 3121 Gerald Lopez 40 58:24 00:55:46 17:57
164 4007 3144 Albert Abdullah 41 57:47 00:56:43 18:16
165 2010 3163 Sean Kelley 42 1:07:27 00:57:21 18:28
166 2667 3231 Juan Carlos Rodriguez 41 1:03:19 00:59:55 19:17
167 4347 3245 Amado Ibarra 43 1:07:50 01:00:26 19:27
168 2587 3254 Ricardo Raimundez 40 1:07:24 01:01:07 19:41
169 4036 3258 Michael Dalton 40 1:04:13 01:01:34 19:49
170 3109 3269 Gordon Williams 44 1:23:18 01:02:26 20:06
171 3499 3273 Elon Metoyer 44 1:11:09 01:02:49 20:13
172 2870 3316 Steve Spann 41 1:08:47 01:07:06 21:36
173 2978 3320 Bill Turso 41 1:18:09 01:07:39 21:47
174 2682 3328 Victor Rodriguez 41 1:10:20 01:08:02 21:54

FEMALE AGE GROUP: 40 - 44

Place Bib Oallplace First Name Last Name Age Finish Net_time Pace
1 1751 156 Jennifer Gerson Roth 43 22:14 00:22:06 7:07
2 3525 172 Denise Oakes-Lottridge 42 22:40 00:22:26 7:14
3 4765 243 Cecilia Bravo 41 24:03 00:23:38 7:37
4 4148 267 Amy Templeton 41 25:01 00:24:00 7:44
5 2255 281 Myra McKee 40 24:27 00:24:15 7:49
6 2891 364 Lori Strasius 44 28:35 00:25:11 8:07
7 4800 382 Gina Swierczewski 42 26:38 00:25:23 8:11
8 2270 392 Debbie Melendez 41 26:09 00:25:32 8:13
9 2112 408 Valeria Lisanti 40 26:37 00:25:44 8:17
10 1639 430 Marsha Feldman 40 26:22 00:26:00 8:23
11 3341 431 Manuel Ferro 41 32:48 00:26:00 8:23
12 2025 478 Janet Kohn 44 26:35 00:26:26 8:31
13 2076 526 Carla Leblanc 40 31:51 00:26:57 8:41
14 1622 558 Lynette Estrada 42 28:05 00:27:12 8:45
15 3210 571 Joyce Aguila 40 29:22 00:27:21 8:49
16 1680 592 Fiorella Finetti 43 31:11 00:27:36 8:53
17 1411 642 Karina Ciarlante 41 28:15 00:28:03 9:02
18 3194 649 Josefina Ramirez 43 29:52 00:28:09 9:04
19 3795 658 Gabi Riedel-Huget 41 31:17 00:28:17 9:06
20 1483 667 Denise Cuevas 40 32:44 00:28:21 9:08
21 2593 677 Mirtha Ramos 42 30:29 00:28:26 9:09
22 4483 719 Lisa James 40 31:03 00:28:45 9:16
23 2071 726 Aimeerenee Layton-Junco 40 35:02 00:28:49 9:17
24 1876 739 Karen Hamilton 43 30:46 00:28:57 9:19
25 2266 751 Sharon Medina 44 38:43 00:29:01 9:21
26 2992 830 Silvia Ulowicz 43 32:38 00:29:36 9:32
27 1074 850 Ann Marie Anderson 44 30:53 00:29:44 9:35
28 1840 854 Mabel Granda 42 30:38 00:29:46 9:35
29 1014 875 Sandra Acosta 44 32:35 00:29:53 9:37
30 1916 929 Jill Hidalgo 42 38:27 00:30:09 9:42
31 3947 936 Rosatil Materan 44 32:24 00:30:12 9:44
32 3619 945 Babette Rox 43 32:14 00:30:19 9:46
33 1709 958 Sandra Gallego 40 35:16 00:30:26 9:48
34 1625 972 Terra Euster 43 32:07 00:30:30 9:49
35 2909 1011 Tricia Taliaferro 40 39:27 00:30:48 9:55
36 1943 1046 Laura Iglesias 42 39:54 00:31:06 10:01
37 1987 1057 Elizabeth Junco 44 36:02 00:31:12 10:03
38 3073 1149 Karen Von Wald 43 34:00 00:31:43 10:13
39 2442 1153 Ana Palacio 43 32:29 00:31:45 10:13
40 3134 1181 Sharlene Wright 43 33:43 00:31:56 10:17
41 1921 1190 Deborah Hill-Rodriguez 43 35:16 00:31:58 10:18
42 1481 1209 Lissette Cuesta 40 32:42 00:32:06 10:20
43 4210 1218 Julie Hays 43 39:34 00:32:10 10:21
44 6863 1244 Ana Roll 41 35:12 00:32:20 10:25
45 1246 1251 Veronica Bonell 41 35:25 00:32:24 10:26
46 4107 1337 Karen Pascual 41 34:44 00:32:56 10:36
47 4310 1369 Brenda Cruz 41 35:43 00:33:08 10:40
48 3828 1390 Eleonora Velazco 43 34:16 00:33:16 10:43
49 1761 1440 Odalys Girado 41 39:47 00:33:40 10:51
50 1112 1448 Maribel Artime 40 36:03 00:33:44 10:52
51 2160 1465 Tatiana Loy 42 42:37 00:33:53 10:55
52 2231 1476 Mayelin Maruri 40 37:54 00:33:58 10:56
53 1509 1499 Barbara De Los Santos 40 35:36 00:34:08 10:59
54 1116 1506 Wendy Atherton 40 40:20 00:34:09 11:00
55 3169 1507 Ari Gonzalez 41 36:06 00:34:09 11:00
56 2922 1511 Alexandra Tart 43 37:31 00:34:11 11:00
57 1560 1539 Patricia Diaz 44 38:05 00:34:22 11:04
58 1007 1544 Eleanor Abreu 43 35:59 00:34:24 11:05
59 2927 1561 Maureen Tart Lee 44 37:51 00:34:31 11:07
60 2288 1567 Michelle Miguelez 40 36:24 00:34:32 11:07
61 4394 1596 Arianna Novo 40 40:10 00:34:46 11:12
62 3471 1604 Litza Lopez 43 41:09 00:34:49 11:13
63 2684 1625 Yami Rodriguez 43 36:58 00:34:55 11:15
64 3196 1629 Milena Roman 43 35:23 00:34:56 11:15
65 1961 1631 Adriana Jimenenz 43 43:43 00:34:57 11:15
66 3818 1634 Elizabeth Torres 44 38:01 00:34:58 11:16
67 3467 1711 Kris Long 44 36:31 00:35:28 11:25
68 3406 1717 Wanda Hawkins 40 43:44 00:35:31 11:26
69 2918 1718 Dainymar Tapia 40 44:09 00:35:32 11:26
70 4748 1730 Adriana Crespo 44 36:59 00:35:37 11:28
71 2702 1771 Isabel Roque 44 40:50 00:36:04 11:37
72 1037 1772 April Almanzar 40 42:04 00:36:05 11:37
73 2202 1775 Isabella Marquez 40 44:02 00:36:06 11:37
74 4320 1784 Lupe Eickhoff 42 42:55 00:36:12 11:40
75 2177 1789 Marika Lynch 40 44:08 00:36:14 11:40
76 4392 1793 Trang Nguyen 42 44:53 00:36:15 11:40
77 2887 1819 Amy Stone 40 38:50 00:36:27 11:44
78 1060 1824 Marisol Alvarez 40 42:56 00:36:29 11:45
79 3223 1829 Alicia Arellano 44 37:12 00:36:32 11:46
80 1142 1831 Sonia Barboza 40 43:28 00:36:32 11:46
81 3961 1869 Raquel Riano 41 44:10 00:36:50 11:52
82 1073 1879 Annabel Ancheta 44 38:27 00:36:53 11:52
83 4271 1883 Axel Cahiz 42 44:34 00:36:54 11:53
84 2143 1906 Nicole Lopez 41 38:27 00:37:07 11:57
85 1665 1925 Sandra Ferrera 40 43:06 00:37:19 12:01
86 4272 1934 Julia Brown 42 45:05 00:37:26 12:03
87 1723 1941 Estrella Garcia 40 41:56 00:37:30 12:05
88 4383 1953 Maria Molina 40 46:57 00:37:36 12:06
89 2237 1957 Carolina Mata 40 39:27 00:37:37 12:07
90 2211 1967 Alba Martinez 41 40:18 00:37:40 12:08
91 1432 1994 Irma Colon-Alonso 44 46:45 00:37:54 12:12
92 2906 1997 Jill Swartz 44 47:00 00:37:58 12:13
93 3257 2039 Adriana Black 40 46:25 00:38:23 12:22
94 1001 2049 Jeannette Abarca 44 43:17 00:38:28 12:23
95 1427 2067 Marilyn Colina 42 40:36 00:38:37 12:26
96 2486 2074 Chelsea Pentenero 40 47:41 00:38:40 12:27
97 1825 2080 Thamy Gonzalez 44 46:02 00:38:43 12:28
98 4410 2094 Nelayne Rios 40 46:09 00:38:48 12:30
99 3573 2098 Serina Prado 40 50:10 00:38:51 12:31
100 3774 2123 Marisa Martinez 41 44:59 00:39:04 12:35
101 2246 2140 Kimberly McDonald 43 47:31 00:39:16 12:39
102 3362 2149 Maria Garcia 41 48:49 00:39:19 12:40
103 4367 2151 Ximena Marincic 41 41:04 00:39:22 12:40
104 1250 2155 Susan Bostick 43 44:37 00:39:24 12:41
105 3313 2161 Alexandra Diez 40 50:38 00:39:27 12:42
106 2876 2197 Veronica Spinelli 41 48:36 00:39:43 12:47
107 3248 2214 Niurka Becerra 40 46:31 00:39:57 12:52
108 1693 2223 Lisa Flynn 42 49:45 00:40:08 12:55
109 2626 2224 Amber Rios 43 49:45 00:40:08 12:56
110 5344 2228 Maria Fernandez 40 47:40 00:40:12 12:57
111 3395 2235 Jennifer Gould 41 46:02 00:40:21 13:00
112 4763 2246 Ana Vo 43 46:16 00:40:28 13:02
113 4762 2248 Maura Vo 41 46:16 00:40:29 13:02
114 4668 2278 Alexsa Mattar 40 47:46 00:40:52 13:09
115 3588 2295 Rosangel Quintero 44 41:37 00:41:02 13:13
116 1853 2301 Elaine Guanche 42 41:25 00:41:07 13:14
117 2981 2310 Angie Tyler 42 44:48 00:41:13 13:16
118 3507 2339 America Monteagudo 43 41:51 00:41:35 13:24
119 3998 2353 Mari Quesada 42 48:19 00:41:44 13:26
120 2033 2357 Julia Kosove 41 47:59 00:41:47 13:27
121 2659 2360 Elizabeth Rodriguez 41 46:10 00:41:49 13:28
122 3598 2368 Marta Reyes 40 45:07 00:41:57 13:30
123 1845 2406 Deanna Gregory 44 48:38 00:42:23 13:39
124 1304 2407 Jeanette Calles 43 48:38 00:42:23 13:39
125 2139 2408 Lilia Lopez 41 48:38 00:42:23 13:39
126 1305 2444 Jamilet Calvino 42 50:10 00:42:47 13:47
127 3731 2459 Mercedes Delgado 40 44:29 00:43:01 13:51
128 2417 2464 Evelyn Ortega 41 48:55 00:43:06 13:53
129 3333 2467 Delaila Estefano 40 55:23 00:43:14 13:55
130 3759 2472 Martha Jaureguizar 44 48:10 00:43:19 13:57
131 2361 2473 Jennifer Murphy 42 44:57 00:43:19 13:57
132 1303 2495 Linda Callejas 44 50:51 00:43:42 14:04
133 2901 2531 Heidi Summers 43 47:25 00:44:12 14:14
134 1797 2547 Deborah Gonzalez 43 47:56 00:44:29 14:20
135 1329 2550 Sabine Carre 43 45:40 00:44:31 14:20
136 3225 2557 Patricia Arias 40 51:26 00:44:35 14:21
137 2904 2561 Carolyn Swanson 43 49:00 00:44:39 14:23
138 2260 2585 Hilit Mechaber 42 48:44 00:45:07 14:32
139 2781 2622 Elizabeth Sanchez Brana 40 53:18 00:45:49 14:45
140 1960 2627 Ana Jewett 43 49:39 00:45:56 14:47
141 4342 2648 E Hansen 40 52:45 00:46:08 14:51
142 1120 2675 Lourdes Fisher 43 48:50 00:46:51 15:05
143 2434 2681 Sylvia Padilla 40 51:59 00:46:56 15:07
144 1946 2682 Claudia Ima 41 51:38 00:46:56 15:07
145 1385 2719 Mellie Chang 43 50:30 00:47:45 15:23
146 3001 2727 Mabel Urreta 40 57:12 00:47:48 15:23
147 2532 2732 Sonia Pineyro 44 57:55 00:47:51 15:24
148 1398 2738 Gabrielle Chin 40 52:10 00:47:53 15:25
149 3791 2758 Sandra Novas 43 52:51 00:48:16 15:32
150 3298 2779 Denise Daire 40 57:40 00:48:41 15:40
151 2961 2788 Janette Trasobares 40 52:18 00:48:48 15:43
152 4025 2806 Cinthia Calvo 41 56:43 00:49:10 15:50
153 4155 2821 Sabine Van Der Meulen 44 53:20 00:49:23 15:54
154 2465 2836 Nieves Pasternac 40 59:37 00:49:40 15:59
155 4572 2855 Isabel Morejon 40 54:52 00:49:57 16:05
156 1852 2876 Nicole Gualandi 40 55:56 00:50:21 16:13
157 4398 2894 Yvonne Poldo 43 59:33 00:50:49 16:22
158 1846 2919 Marjorie Grima 41 55:39 00:51:13 16:30
159 4604 2926 Jeannette Albo 44 53:11 00:51:22 16:32
160 2004 2933 Allyson Kaufman 40 59:09 00:51:29 16:35
161 3940 2952 Ana Rubi 43 1:01:31 00:51:50 16:41
162 2955 2964 Leticia Torres 43 59:49 00:52:02 16:45
163 1253 2972 Dania Brady 40 53:27 00:52:17 16:50
164 1442 2982 Elizabeth Connelly 42 59:11 00:52:31 16:55
165 4500 2990 Annie Miret 44 53:33 00:52:49 17:00
166 3627 2999 Lilliana Salazar 42 1:02:00 00:52:55 17:02
167 3842 3019 Judy Avila 40 1:00:37 00:53:27 17:13
168 6146 3026 Bibi Villazon 42 59:10 00:53:36 17:15
169 3514 3031 Yesenia Moreno 41 55:40 00:53:41 17:17
170 3206 3041 Cristina Whelan 42 54:37 00:53:55 17:21
171 4011 3052 Tonya Alexander 40 54:51 00:54:10 17:26
172 1201 3061 Ivette Bernal 42 1:03:22 00:54:16 17:28
173 1155 3078 Iris Barrientos 41 1:03:31 00:54:35 17:34
174 2317 3114 Yonette Moorgan 40 1:00:23 00:55:36 17:54
175 1744 3124 Angela Gasca 41 1:00:14 00:55:56 18:00
176 2621 3127 Ruth Rey 40 59:25 00:55:57 18:01
177 2208 3149 Giselle Martin 44 1:03:20 00:56:56 18:20
178 2443 3168 Olga Palacio 44 1:01:52 00:57:29 18:30
179 2461 3181 Flor Parraga 44 1:07:15 00:58:11 18:44
180 2011 3190 Alyshia Kendon 41 1:10:03 00:58:28 18:50
181 1788 3194 Lucia Gonzales 44 58:33 00:58:33 18:51
182 1194 3198 Michele Benz 43 1:06:30 00:58:37 18:52
183 2672 3207 Michelle Rodriguez 40 1:01:12 00:58:53 18:58
184 2055 3229 Jennifer Laporta 40 1:03:18 00:59:52 19:17
185 1848 3264 Marcia Guajardo 42 1:09:50 01:01:50 19:55
186 1346 3272 Stratego Castanes 41 1:12:51 01:02:39 20:10
187 2503 3280 Maria Perez 44 1:03:23 01:03:23 20:25
188 3521 3289 Maria Najera-Matos 44 1:08:16 01:04:15 20:41
189 4704 3290 Alexandria Mestres 44 1:12:59 01:04:17 20:42
190 3479 3291 Deb Margolis 43 1:13:00 01:04:18 20:42
191 2693 3297 Pratiwi Romero 40 1:25:30 01:04:51 20:53
192 2045 3302 Patricia L 44 1:15:25 01:04:57 20:55
193 4684 3304 Karina Vera 42 1:07:12 01:05:01 20:56
194 2980 3322 Mary Turso 41 1:18:12 01:07:44 21:48
195 3466 3325 Lisette Lluis 42 1:10:17 01:07:53 21:51
196 4658 3341 Katrina Gleber 40 1:09:30 01:09:30 22:22
197 1687 3344 Tenia Fleming 40 1:19:04 01:09:52 22:30
198 1150 3349 Marie Barnes 40 1:19:30 01:12:21 23:18
199 1015 3350 Heather Adams 40 1:19:31 01:12:21 23:18
200 1719 3359 Claudia Garcia 42 1:15:51 01:13:25 23:38
201 2529 3369 Patti Pinckney 40 1:19:55 01:18:12 25:11

MALE AGE GROUP: 45 - 49

Place Bib Oallplace First Name Last Name Age Finish Net_time Pace
1 4710 29 Ruben Sanchez 49 18:35 00:18:33 5:58
2 3989 36 Joe Allegra 45 19:13 00:19:04 6:09
3 2329 38 Julio Morales 49 19:09 00:19:06 6:09
4 4655 75 Jose Fuentes 47 20:28 00:20:11 6:30
5 1484 83 Luis Cuevas 47 20:30 00:20:22 6:34
6 1750 89 Hal Gerson 46 20:36 00:20:28 6:36
7 4356 106 Joao Lopes 47 21:07 00:20:53 6:44
8 4223 129 Ariel Martinez 48 22:39 00:21:37 6:58
9 2027 140 Laurence Kohn 46 22:04 00:21:55 7:03
10 6876 143 Jose Penalver 47 21:59 00:21:55 7:04
11 1159 147 Henry Batievsky 46 22:30 00:21:59 7:05
12 1745 161 Dean Gavulic 45 22:41 00:22:12 7:09
13 4671 168 Antonio Nadais 47 22:23 00:22:23 7:13
14 4289 205 Michael Brenner 45 23:17 00:23:08 7:27
15 3965 214 Timothy Templeton 45 24:15 00:23:13 7:29
16 3957 218 David Valea 45 29:57 00:23:18 7:30
17 4691 232 Luis Nelson 48 25:13 00:23:30 7:34
18 4140 237 Ted Sanchez 47 24:17 00:23:33 7:35
19 3237 251 Nelson Barquet 48 24:24 00:23:49 7:40
20 1519 262 Jose Del Valle 49 24:13 00:23:55 7:42
21 3853 265 D De La Fuente 46 24:22 00:23:58 7:43
22 1448 270 Doug Cordier 48 24:44 00:24:01 7:44
23 1319 302 Antonio Cardona 48 24:37 00:24:32 7:54
24 2499 311 Juan Perez 45 25:30 00:24:42 7:57
25 3975 326 Augusto Arrojave 47 26:24 00:24:50 8:00
26 3197 338 Ramon Roman 46 25:22 00:24:56 8:02
27 4568 352 Edgar Marcos 46 25:35 00:25:03 8:04
28 6868 355 Julio Brea 49 27:11 00:25:05 8:05
29 4527 356 Colon Zamora 49 26:06 00:25:05 8:05
30 3622 393 Eduardo Ruan 48 26:46 00:25:33 8:14
31 4365 396 Dean Maggio 47 25:39 00:25:35 8:14
32 1286 416 David Buck Jr 49 26:11 00:25:51 8:20
33 3010 434 Richard Valdes 47 28:53 00:26:02 8:23
34 4243 449 Robert Rodriguez 49 28:54 00:26:10 8:26
35 3331 470 Michael Esposito 46 26:34 00:26:21 8:29
36 4681 479 Rob Sperber 48 28:44 00:26:26 8:31
37 3717 480 Robert Briggs 45 26:59 00:26:26 8:31
38 4433 489 Tris Snyder 46 27:37 00:26:31 8:32
39 3976 516 Jaime Amaya 47 28:20 00:26:47 8:38
40 4377 557 Thomas McMahon 49 28:44 00:27:11 8:45
41 3339 560 Sal Ferradas 48 28:50 00:27:13 8:46
42 3631 587 Jose Sanguily 46 29:32 00:27:32 8:52
43 4303 651 Frank Carino 47 29:38 00:28:10 9:04
44 1068 682 Luis Amores 48 36:00 00:28:30 9:11
45 2455 687 Alfredo Pardo 45 28:45 00:28:31 9:11
46 1792 698 Bert Gonzalez 49 30:20 00:28:36 9:13
47 3672 749 Nicholas Tsinoremas 47 32:43 00:29:01 9:21
48 1826 786 Thomas Gonzalez 46 36:49 00:29:18 9:26
49 1609 844 Jack Ellis 49 31:44 00:29:42 9:34
50 4570 855 Jeffrey Mellerson 49 30:58 00:29:46 9:35
51 4730 904 Jeff Rubin 49 30:55 00:30:02 9:40
52 2190 928 Kurt March 46 34:18 00:30:09 9:42
53 2490 935 Acacio Pereira 47 30:46 00:30:11 9:43
54 4790 986 Todd Wyman 46 34:18 00:30:38 9:52
55 3474 989 Michael Lopez 45 37:00 00:30:38 9:52
56 3506 1074 Rudy Monte 48 35:09 00:31:17 10:04
57 1038 1077 Hector Almanzar 45 37:17 00:31:17 10:05
58 1003 1117 Jose Abella 45 35:15 00:31:33 10:10
59 3517 1148 Armando Muniz 46 38:27 00:31:43 10:13
60 1190 1168 Gustavo Bengochea Jr 49 35:11 00:31:50 10:15
61 3683 1192 Edward Vazquez 48 39:05 00:32:00 10:18
62 2221 1228 Hector Martinez 49 35:58 00:32:13 10:23
63 4400 1303 Douglas Pursley 48 37:05 00:32:44 10:33
64 3508 1351 Eduardo Monteagudo 49 33:15 00:33:00 10:38
65 2133 1362 Guillermo Lopez 47 39:21 00:33:06 10:40
66 2653 1372 Carlos Rodriguez 47 36:26 00:33:09 10:41
67 1361 1429 Manuel Castro 48 39:50 00:33:35 10:49
68 2019 1438 Michael King 45 40:25 00:33:40 10:51
69 3587 1443 Miguel Quintero 45 34:15 00:33:41 10:51
70 3314 1513 Carlos Dominguez 47 36:31 00:34:12 11:01
71 3487 1518 Jose Luis Matos 48 38:15 00:34:14 11:01
72 3963 1549 Max Baro 47 35:01 00:34:27 11:06
73 3037 1563 Jorge Vega 46 44:23 00:34:31 11:07
74 3826 1592 Eduardo Velazco 49 35:49 00:34:44 11:11
75 4583 1614 Reinaldo Rosario 49 37:47 00:34:52 11:14
76 5120 1622 Johnny Bolanos 46 43:02 00:34:54 11:14
77 3405 1690 Loc Hawkins 45 43:32 00:35:20 11:23
78 2573 1698 Raul Puga 45 40:21 00:35:23 11:24
79 4270 1748 Onias Peralta 49 45:58 00:35:49 11:32
80 1410 1754 John Christensen 45 38:25 00:35:51 11:33
81 4277 1778 Hans Abate 49 39:43 00:36:09 11:39
82 1521 1803 Carlos Delahoz 48 44:47 00:36:20 11:42
83 1394 1822 Julio Chez 45 36:28 00:36:28 11:45
84 3272 1844 Jorge Carreno 48 40:29 00:36:38 11:48
85 4259 1920 Danny Stanisky 45 39:31 00:37:16 12:00
86 1368 1935 Alex Cejas 45 39:22 00:37:26 12:03
87 4574 1950 Anthony Perez 49 46:19 00:37:33 12:06
88 2701 1959 Antonio Roque 49 42:27 00:37:38 12:07
89 2125 1984 Scott Logan 45 48:17 00:37:49 12:11
90 2582 1998 Giraldo Quintana 45 43:00 00:37:58 12:13
91 4421 2058 Orlando Sanchez 48 40:38 00:38:32 12:25
92 3572 2096 Manuel Prado 49 50:10 00:38:51 12:30
93 1600 2124 Juan Echeverria 46 47:43 00:39:05 12:35
94 3969 2179 Jorge Rubio 46 42:45 00:39:37 12:46
95 1044 2230 Luis Alonso 46 46:52 00:40:13 12:57
96 1804 2260 Ivan Gonzalez 45 43:23 00:40:35 13:04
97 1334 2273 Rene Carrillo 45 47:15 00:40:48 13:08
98 4746 2290 Mark Oconnor 47 42:13 00:40:59 13:12
99 4782 2312 Alex Corbera 45 43:09 00:41:15 13:17
100 2861 2363 Alex Soria 49 48:29 00:41:50 13:28
101 4665 2417 Jorge Larios 49 46:13 00:42:33 13:42
102 4293 2439 Alvaro Bustos 48 49:29 00:42:44 13:46
103 3756 2471 Juan Jaureguizar 48 48:10 00:43:19 13:57
104 2849 2504 Mark Smith 45 49:25 00:43:48 14:06
105 1722 2508 Ernesto Garcia 49 48:17 00:43:52 14:07
106 4634 2545 Brian Soden 47 51:38 00:44:28 14:19
107 3995 2566 Mati Martinez 47 51:47 00:44:44 14:24
108 4760 2592 Henry Cuervo 47 56:26 00:45:15 14:34
109 4256 2598 Mitchell Shapiro 45 47:49 00:45:30 14:39
110 3002 2623 Vince Urreta 47 55:15 00:45:51 14:46
111 2368 2655 Carlos Naranjo 49 50:41 00:46:17 14:54
112 2527 2696 Carlos Pinckney 46 49:00 00:47:11 15:11
113 3453 2701 Esteban Latorre 47 57:21 00:47:14 15:13
114 2261 2709 Srinivasa Medam 45 55:12 00:47:27 15:17
115 3803 2739 Luis Salazar 46 54:19 00:47:53 15:25
116 1620 2749 Ricardo Estape 49 57:17 00:48:03 15:28
117 3763 2752 Markus Jung 47 52:15 00:48:08 15:30
118 3986 2761 Euraclio Pons 49 59:52 00:48:18 15:33
119 4251 2860 Tony Sanchez 48 56:58 00:50:03 16:07
120 2661 2911 Emilio Rodriguez 46 56:59 00:51:08 16:28
121 1466 2929 Jorge Costas 46 1:01:21 00:51:24 16:33
122 1080 2942 Luis Aquino 49 58:35 00:51:38 16:38
123 2954 2962 Jesus Torres 46 59:49 00:52:01 16:45
124 4769 2966 Felix Dominguez 47 53:40 00:52:04 16:46
125 4449 2977 Oscar Zerpa 45 1:02:11 00:52:24 16:52
126 6818 2993 Michael Reed 45 57:47 00:52:52 17:01
127 5002 3024 Don Abbott 46 59:09 00:53:34 17:15
128 3777 3030 Ivan Marzoa 45 58:38 00:53:40 17:17
129 1219 3050 Jose Blanco 46 1:01:49 00:54:06 17:25
130 2432 3070 Juan Ovalle 47 59:12 00:54:22 17:30
131 3702 3093 Francisco Aguero 46 1:08:24 00:54:55 17:41
132 2012 3189 Brett Kendon 45 1:10:03 00:58:28 18:49
133 6166 3266 Ethan West 48 1:05:44 01:02:19 20:04

FEMALE AGE GROUP: 45 - 49

Place Bib Oallplace First Name Last Name Age Finish Net_time Pace
1 2752 257 Harolyn Salandy 45 24:55 00:23:53 7:41
2 3183 344 Ana Matiz 49 25:12 00:25:00 8:03
3 1209 346 Sherrie Bieniek 48 26:36 00:25:01 8:03
4 3131 402 Elizabeth Woodman 47 25:51 00:25:38 8:15
5 2874 463 Patricia Spencer 46 26:49 00:26:16 8:27
6 3996 467 Michele Magoulas 48 26:57 00:26:19 8:29
7 2479 517 Kate Pearson 49 27:34 00:26:47 8:38
8 4042 523 Nilsa De La Hoz 45 27:31 00:26:51 8:39
9 3530 588 Juliet Ojito 45 29:32 00:27:33 8:52
10 1308 589 Yamila Camps 46 28:04 00:27:34 8:53
11 4344 608 Rebecca Hernandez 45 28:56 00:27:48 8:57
12 3005 627 Anna Valdes 48 30:45 00:27:54 8:59
13 3221 670 Patricia Aponte 48 28:46 00:28:23 9:08
14 1467 735 Elizabeth Coton-Barrera 48 29:20 00:28:55 9:19
15 1803 763 Ingrid Gonzalez 47 34:02 00:29:06 9:22
16 3093 785 Wendy Wayne 48 30:20 00:29:17 9:26
17 3674 824 Adriana Umana 45 30:51 00:29:36 9:32
18 4680 842 Debbie Sperber 46 31:58 00:29:40 9:33
19 3676 869 Aleida Valdes 45 30:43 00:29:51 9:37
20 2330 892 Louanne Morales 48 36:21 00:29:57 9:39
21 3446 901 Nancy Lagroue 49 34:15 00:29:59 9:40
22 2234 922 Tanya Masi 47 32:48 00:30:07 9:42
23 2267 1008 Kate Meier 45 39:27 00:30:47 9:55
24 3928 1031 Teresa Luis 47 35:22 00:31:00 9:59
25 4733 1037 Yaneth Sierra 48 34:39 00:31:03 10:00
26 3761 1051 Christiane Jung 47 35:17 00:31:10 10:02
27 1552 1056 Elizabeth Diaz 49 36:01 00:31:12 10:03
28 3892 1072 Denise Roig 47 33:27 00:31:17 10:04
29 3752 1093 Kimberly Haber 46 38:44 00:31:23 10:06
30 1915 1103 Joanne Hesser 48 37:39 00:31:27 10:08
31 2054 1116 Marleni Lapadula 47 33:24 00:31:32 10:09
32 1681 1124 Angela Finneran 46 37:57 00:31:36 10:11
33 3007 1141 Jessica Valdes 48 34:33 00:31:41 10:12
34 4637 1174 Lisa Vila 49 35:28 00:31:53 10:16
35 2386 1187 Leslie Nightingale 48 41:23 00:31:57 10:17
36 2210 1233 Lourdes Martin 47 41:05 00:32:14 10:23
37 3312 1307 Stephanie Diehl 47 39:21 00:32:46 10:33
38 3871 1312 Ana Mancilla 49 38:27 00:32:48 10:34
39 3533 1350 Jeannette Ordonez 47 35:36 00:33:00 10:38
40 1504 1385 Elena De La Paz 46 36:40 00:33:14 10:42
41 2586 1399 Maria Rafet 47 35:40 00:33:20 10:44
42 4528 1421 Iliana Zamora 49 34:35 00:33:33 10:48
43 4652 1428 Isabella Elias 45 38:06 00:33:35 10:49
44 4204 1471 Gail Goetsch 45 41:44 00:33:56 10:56
45 4345 1492 Susan Hopper 48 43:52 00:34:06 10:59
46 1815 1500 Lizbet Gonzalez 47 36:17 00:34:08 10:59
47 2247 1501 Cynthia McFarlane 47 38:01 00:34:08 11:00
48 3931 1502 Eileen Del Cueto Perez 46 40:28 00:34:08 11:00
49 1062 1530 Mary Alvarez 48 38:28 00:34:16 11:02
50 5154 1532 Iway Cabili 49 42:43 00:34:17 11:02
51 4016 1535 Rosa Almond 45 37:00 00:34:20 11:03
52 2038 1651 Odalis Krzeminski 45 41:54 00:35:08 11:19
53 3461 1660 Irene Lesperance 48 36:24 00:35:11 11:20
54 4139 1687 Neva Sanchez 46 42:23 00:35:20 11:23
55 2240 1699 Marion Mau 48 43:36 00:35:23 11:24
56 3437 1735 Elizabeth Kirkpatrick 45 43:21 00:35:41 11:29
57 3936 1741 Tanya Castaneda 48 40:32 00:35:45 11:31
58 4129 1758 Stacey Rodriguez 45 45:17 00:35:56 11:34
59 1746 1762 Rebecca Gavulic 47 38:02 00:35:58 11:35
60 1239 1768 Rina Bolanos 49 44:10 00:36:02 11:36
61 3799 1788 Begona Rovira 45 44:04 00:36:13 11:40
62 2673 1795 Nancy Rodriguez 47 40:01 00:36:15 11:40
63 1417 1823 Claudia Cockrell 48 38:29 00:36:29 11:45
64 3685 1838 Teresa Vazquez 48 44:36 00:36:35 11:47
65 3338 1846 Elizabeth Ferradas 47 38:16 00:36:39 11:48
66 4481 1865 Maria Iniguez 49 36:49 00:36:49 11:51
67 3516 1887 Ana Muniz 47 43:40 00:36:57 11:54
68 2945 1892 Jennifer Tingle 45 42:43 00:36:58 11:54
69 4633 1919 Marsha Romero 46 37:17 00:37:16 12:00
70 1136 1988 Ivis Balseiro 48 48:17 00:37:50 12:11
71 1189 2018 Patricia Bello 49 42:09 00:38:11 12:18
72 3164 2027 Giselle Fernandez 45 46:47 00:38:16 12:19
73 2009 2072 Catherine Kelley 49 48:40 00:38:40 12:27
74 2738 2110 Lucy Ruiz 48 39:40 00:38:55 12:32
75 4372 2118 Denise Matos 46 48:06 00:39:00 12:34
76 2113 2146 Anna Livingston 48 44:03 00:39:18 12:39
77 4235 2148 Yvette Pujol 47 42:33 00:39:18 12:39
78 3806 2195 Yolanda Salazar 48 50:05 00:39:42 12:47
79 1369 2240 Judith Cejas 45 42:19 00:40:23 13:00
80 4265 2253 Julie Webber 45 47:02 00:40:32 13:03
81 1930 2271 Nilda Hooper 46 44:07 00:40:41 13:06
82 2589 2294 Carolina Ramirez 46 47:25 00:41:02 13:13
83 1025 2317 Delvys Alvarez 49 47:27 00:41:17 13:17
84 5481 2318 Stephanie Hartmann 49 45:11 00:41:17 13:18
85 1558 2319 Margoth Diaz 45 44:20 00:41:19 13:18
86 4350 2346 Beatriz Jimenez 45 46:56 00:41:39 13:25
87 4508 2354 Marijanne Revilla 45 50:42 00:41:45 13:27
88 3151 2361 Karla Zuniga 47 49:37 00:41:49 13:28
89 2124 2400 Beatriz Lluen 45 43:00 00:42:21 13:38
90 1531 2416 Patricia Delgado 46 46:08 00:42:32 13:42
91 3967 2434 Tania Castellanos 47 46:47 00:42:41 13:45
92 4493 2480 Eunice Malave 49 51:43 00:43:29 14:00
93 2169 2520 Eileen Lujan 45 45:55 00:44:03 14:11
94 3056 2524 Ana Vila 46 47:51 00:44:06 14:12
95 1486 2530 Rachel Dagan 46 45:07 00:44:07 14:12
96 3229 2534 Lazara Augustin 48 48:40 00:44:15 14:15
97 4638 2542 Josephine Woodmansee-Soden 46 51:32 00:44:23 14:18
98 1124 2576 Annie Avendano 47 48:32 00:44:55 14:28
99 3456 2583 Melbelena Latorre 45 55:13 00:45:06 14:31
100 1028 2594 Lourdes Aldereguia 46 49:03 00:45:20 14:36
101 4761 2596 Stella Cuervo 49 56:37 00:45:28 14:38
102 4596 2607 Martha Valle 45 47:21 00:45:38 14:42
103 3112 2610 Virgy Williams 45 48:27 00:45:42 14:43
104 6871 2652 Maria Del Carm Alvarez 45 53:13 00:46:10 14:52
105 1413 2660 Kimberly Clark 48 50:13 00:46:22 14:56
106 1559 2669 Maria Diaz 47 56:42 00:46:42 15:02
107 2518 2711 Arceli Phang Sang 46 50:21 00:47:33 15:19
108 2788 2718 Lillian Santos 46 52:52 00:47:45 15:22
109 1689 2741 Carolina Flood 45 51:43 00:47:59 15:27
110 3143 2747 Barbara Yuen 45 57:17 00:48:03 15:28
111 3315 2785 Carmen Dominguez 49 53:59 00:48:43 15:41
112 2848 2794 Laura Smith 45 54:28 00:48:53 15:45
113 4348 2839 Ana Ibarra 45 57:06 00:49:42 16:00
114 4674 2848 Maria Pinilla 48 52:19 00:49:46 16:02
115 3988 2850 Miriam Pons 49 1:01:27 00:49:51 16:03
116 3065 2859 Alicia Villegas 47 54:35 00:50:03 16:07
117 2484 2861 Ruby Pena 47 54:56 00:50:04 16:07
118 1091 2878 Julie Arencibia 45 55:57 00:50:23 16:13
119 3547 2881 Yolanda Paris 46 1:00:34 00:50:31 16:16
120 3208 2886 Elina Acosta 49 53:19 00:50:43 16:20
121 1343 2888 Aj Castanedas 45 54:22 00:50:44 16:20
122 1652 2897 Julia Fernandez 45 51:12 00:50:53 16:23
123 1324 2901 Leah Carpenter 45 54:15 00:50:57 16:24
124 2380 2903 Isabel Nelsen 47 55:48 00:51:00 16:25
125 3165 2909 Michele Garcia 48 58:39 00:51:07 16:27
126 2785 2918 Gigi Santiago 48 1:01:05 00:51:13 16:29
127 3922 2920 Ana Gomez-Tagle 45 52:23 00:51:16 16:30
128 3748 2928 Tracy Gervais 46 58:41 00:51:23 16:33
129 3831 2934 Cecily Wernick 45 51:30 00:51:30 16:35
130 2404 2943 Mary Olazabal 45 56:07 00:51:40 16:38
131 2420 2958 Maria Ortega 47 54:15 00:51:52 16:42
132 3603 2959 Carolina Rionda 45 1:01:25 00:51:55 16:43
133 3738 2973 Lynnette Fernandez 45 1:01:47 00:52:17 16:50
134 1702 2975 Sofie Frary 48 1:01:47 00:52:18 16:50
135 3343 2978 Judith Flook 49 58:58 00:52:25 16:53
136 1123 2981 Rachel Autler 47 1:01:36 00:52:30 16:54
137 1381 2991 Maria Chacin 48 58:01 00:52:49 17:00
138 3541 3001 Mary Anne Pajon 48 1:02:01 00:52:56 17:03
139 2953 3005 Carolina Torres 46 1:00:58 00:53:04 17:05
140 3068 3017 Angela Vilomar 48 54:53 00:53:25 17:12
141 4542 3025 Zuly Dean 49 1:01:11 00:53:35 17:15
142 4326 3037 Rosario Fiallos 46 54:21 00:53:45 17:18
143 1126 3042 Becky Ayan 47 1:01:07 00:53:55 17:22
144 2569 3119 Ana Puga 49 1:00:47 00:55:44 17:57
145 2063 3132 Kim Laudat 46 59:24 00:56:07 18:04
146 2732 3136 Mariateresa Rubio 49 57:50 00:56:31 18:12
147 3563 3140 Lynda Pike 47 1:00:33 00:56:36 18:14
148 3536 3145 Gloria Orrett 48 58:26 00:56:52 18:19
149 2151 3147 Yumila Lopez 49 1:00:32 00:56:53 18:19
150 2207 3148 Dibe Martin 48 1:03:20 00:56:56 18:20
151 2002 3155 Delia Katz 48 1:01:15 00:57:03 18:22
152 4316 3197 Martha Dezayas 48 1:02:19 00:58:36 18:52
153 1471 3213 Helen Creasman 47 1:09:34 00:59:20 19:06
154 1555 3234 Hilda Diaz 49 1:06:39 01:00:00 19:19
155 1271 3237 Kimberly Brown 47 1:07:29 01:00:01 19:20
156 4322 3247 Elizabeth Fernandez 46 1:07:50 01:00:29 19:29
157 4795 3313 Myrlem Fonseca 48 1:09:48 01:06:20 21:21
158 1929 3351 Leah Holzwarth 46 1:19:31 01:12:21 23:18

MALE AGE GROUP: 50 - 54

Place Bib Oallplace First Name Last Name Age Finish Net_time Pace
1 1168 35 Jean-Louis Beaudonnet 53 19:01 00:18:58 6:07
2 1775 46 Adam Goldstein 53 19:32 00:19:27 6:16
3 2524 51 Manuel Pietra 54 19:40 00:19:38 6:19
4 3475 53 Leochel Lordeus 52 19:47 00:19:46 6:22
5 2127 116 Dave Long 50 21:15 00:21:10 6:49
6 3857 148 Miguel Delaguardia 53 22:09 00:22:00 7:05
7 1618 182 Mariano Esplugas 54 23:04 00:22:35 7:17
8 3465 241 Jeff Lex 50 25:10 00:23:36 7:36
9 2731 249 Lawrence Rubio 52 24:27 00:23:47 7:40
10 1461 260 Eduardo Cosio 50 24:29 00:23:55 7:42
11 1008 273 Juan Abreut 52 24:30 00:24:07 7:46
12 2890 275 Marc Stone 52 26:31 00:24:08 7:46
13 3616 303 Emmanuel Ross 53 25:08 00:24:32 7:54
14 1012 314 Luis Acosta 50 25:29 00:24:44 7:58
15 2865 388 Juan Soriano 51 27:15 00:25:27 8:12
16 1401 443 Michael Chin 53 27:45 00:26:07 8:25
17 4529 446 Raul Alfonso 54 34:28 00:26:09 8:25
18 2144 469 Raul Lopez 51 31:00 00:26:19 8:29
19 3092 486 Barry Wayne 52 27:34 00:26:30 8:32
20 3993 496 Bernard Lagroue 51 30:50 00:26:35 8:34
21 3953 524 Brad Gehr 52 29:32 00:26:56 8:40
22 4723 527 Jose Companioni 51 29:34 00:26:58 8:41
23 2882 532 David Stelling 53 30:34 00:27:00 8:42
24 4560 535 Michael Healey 52 27:49 00:27:02 8:42
25 3462 552 Robert Lesperance 50 27:45 00:27:10 8:45
26 2467 554 Tony Patao 51 31:04 00:27:11 8:45
27 3251 574 Nicolas Bergengruen 52 29:01 00:27:22 8:49
28 4340 621 Oscar Guerra 54 27:53 00:27:52 8:59
29 3724 645 Ramon Castella 51 34:39 00:28:04 9:02
30 1907 688 Jorge Hernandez 50 31:45 00:28:32 9:11
31 4750 724 Raul Perez 53 30:16 00:28:48 9:17
32 3891 759 Rafael Quevedo 51 30:17 00:29:04 9:22
33 3658 772 Jeferson Souza 54 29:21 00:29:10 9:24
34 4141 812 Augusto Sandino 51 34:43 00:29:30 9:30
35 4550 819 Pedro Flores 53 36:36 00:29:34 9:31
36 4789 822 Mitchell Rubi 53 30:58 00:29:35 9:32
37 4544 943 Michael Edghill 54 32:44 00:30:17 9:45
38 1204 956 Blas Betancourt 52 37:38 00:30:26 9:48
39 2496 992 Humberto Perez 51 38:08 00:30:38 9:52
40 4002 1021 Tom Wells 51 32:09 00:30:53 9:57
41 3576 1032 Nick Procce 51 35:20 00:31:00 9:59
42 3062 1033 William Villamarin 53 32:56 00:31:01 9:59
43 1736 1035 Ray Garcia 53 34:40 00:31:02 10:00
44 4799 1084 Teudolo Ulloa 50 31:25 00:31:21 10:06
45 2493 1115 Allan Perelis 50 35:00 00:31:31 10:09
46 3089 1179 Ken Watson 54 38:43 00:31:55 10:17
47 2972 1188 Michael Trujillo 51 37:55 00:31:58 10:18
48 1293 1198 Robert Cabili 54 35:47 00:32:01 10:19
49 1862 1232 Carlos Guerrero 53 33:47 00:32:14 10:23
50 1128 1234 Luis Ayan 50 35:26 00:32:14 10:23
51 2205 1247 Jose Marte 51 34:53 00:32:23 10:26
52 2107 1311 Luis Linares 53 38:26 00:32:48 10:34
53 1573 1361 Patrick Dolan 51 40:27 00:33:06 10:40
54 1268 1397 David Brooks 54 39:30 00:33:20 10:44
55 2825 1401 Philip Shechter 53 39:36 00:33:23 10:45
56 4092 1409 Roy Maura 54 38:46 00:33:28 10:47
57 1299 1414 Juan Cabrera 51 37:14 00:33:30 10:47
58 4687 1423 Guido Zorzoli 51 38:06 00:33:34 10:49
59 4520 1442 Miguel Sumoza 51 34:27 00:33:41 10:51
60 2168 1446 Aldo Lujan 51 35:39 00:33:43 10:52
61 3586 1451 Carlos Quintero 51 34:45 00:33:44 10:52
62 2834 1496 Wanda Simms 50 44:18 00:34:08 10:59
63 3663 1503 Glenn Stolzenberg 53 36:31 00:34:08 11:00
64 1624 1589 Howard Euster 52 36:20 00:34:43 11:11
65 6704 1606 Manny Montalvo 54 41:27 00:34:49 11:13
66 2348 1657 Joaquin Mulet 51 39:58 00:35:10 11:20
67 4021 1710 Eduardo Blanco 51 41:37 00:35:28 11:25
68 2323 1733 Rafael Moralejo 54 41:36 00:35:39 11:29
69 1487 1759 Yaniv Dagan 50 36:57 00:35:56 11:34
70 4319 1783 Craig Eickhoff 52 42:56 00:36:12 11:40
71 4253 1864 Robert Santos-Alborna 54 40:04 00:36:49 11:51
72 3332 1910 Raul Esqueff 53 42:21 00:37:09 11:58
73 2987 1921 Giovannie Ulloa 50 46:58 00:37:17 12:00
74 1546 1943 Doug Dewitt 52 45:11 00:37:32 12:05
75 3293 2037 Ron Courtright 51 42:55 00:38:23 12:21
76 4548 2114 Michael Fehrman 50 40:18 00:38:59 12:33
77 1182 2158 David Begley 50 48:00 00:39:26 12:42
78 1637 2159 Michael Feeley 54 48:25 00:39:26 12:42
79 2094 2365 Jorge Leon 51 49:36 00:41:51 13:29
80 2812 2442 Joseph Scott 52 50:21 00:42:47 13:46
81 4474 2506 Doug Heller 51 53:23 00:43:51 14:07
82 2915 2536 Charles Tanner 52 47:53 00:44:20 14:16
83 3994 2553 Danny Martinez 53 51:45 00:44:33 14:21
84 1077 2601 Oscar Angulo 52 48:31 00:45:34 14:40
85 3117 2654 Charles Windham 52 53:59 00:46:15 14:54
86 3320 2667 Rick Dominguez 51 51:56 00:46:41 15:02
87 2297 2756 Mario Miro 50 53:19 00:48:13 15:32
88 4238 2783 Katherine Riedi 50 54:10 00:48:43 15:41
89 2378 2795 Chandler Nelsen 52 53:42 00:48:54 15:45
90 6125 2812 Jose Vargas 50 52:12 00:49:14 15:51
91 1389 2822 Sanjeev Chatterjee 52 53:04 00:49:24 15:54
92 1726 2858 Francisco Garcia 51 54:35 00:50:02 16:07
93 3545 2883 Jose Paris 53 1:00:35 00:50:33 16:16
94 2402 2914 Michael Okeefe 53 58:39 00:51:09 16:28
95 3830 3013 Gene Watson 51 1:03:51 00:53:23 17:11
96 2360 3139 Washington Murillo 50 57:59 00:56:34 18:13
97 1569 3151 Nick Digregorio 51 1:03:21 00:56:57 18:20
98 2697 3209 Donald Roomes 53 1:05:17 00:59:05 19:02
99 1494 3222 Yosi David 53 1:02:48 00:59:32 19:10

FEMALE AGE GROUP: 50 - 54

Place Bib Oallplace First Name Last Name Age Finish Net_time Pace
1 2082 335 Sandra Lee 51 29:59 00:24:55 8:01
2 2241 336 Barbara Maynard 50 28:31 00:24:55 8:02
3 3634 425 Maria Sapelli 52 27:35 00:25:57 8:21
4 4552 460 Maria Corzo 51 26:46 00:26:15 8:27
5 3841 464 Jacqueline Arango 52 26:40 00:26:16 8:28
6 2117 497 Rosario Livingston 51 31:19 00:26:35 8:34
7 3486 715 Karen Mathews 51 32:26 00:28:44 9:15
8 1968 781 Xinia Jimenez 50 29:45 00:29:14 9:25
9 2544 806 Mona Pohl 50 33:06 00:29:29 9:30
10 2137 883 Joanne Lopez 50 34:35 00:29:55 9:38
11 2265 934 Ines Medina 50 31:04 00:30:11 9:43
12 4614 938 Penny Isom 50 32:54 00:30:14 9:44
13 3090 964 Lucy Watson 52 37:16 00:30:28 9:49
14 1983 1100 Celeste Jordan 54 33:13 00:31:26 10:07
15 6872 1126 Janet Mitrani 53 37:50 00:31:37 10:11
16 1016 1252 Yamile Adan 51 37:59 00:32:24 10:26
17 1278 1290 Amparo Brunner 52 36:37 00:32:41 10:31
18 1619 1310 Victoria Esqueff 50 38:00 00:32:47 10:33
19 2449 1322 Beba Pantin 54 42:01 00:32:52 10:35
20 4284 1338 Jorge Blanco 54 39:58 00:32:56 10:36
21 1857 1406 Iraida Guedes 51 38:37 00:33:25 10:46
22 3660 1484 Sandra Souza 51 34:13 00:34:01 10:57
23 2539 1522 Sheryl Place 53 35:57 00:34:15 11:02
24 1885 1552 Karen Harper 51 40:03 00:34:28 11:06
25 2478 1574 Mary Peabody 52 37:04 00:34:35 11:08
26 2269 1656 Heather Melbourne 51 41:22 00:35:10 11:20
27 1360 1677 Lisa Castro 54 43:06 00:35:17 11:22
28 4673 1708 Miriam Perez 51 40:55 00:35:26 11:25
29 3642 1739 Marianne Schmidhofer 50 39:52 00:35:44 11:30
30 1275 1746 Alicia Brown-Rowe 51 36:45 00:35:47 11:31
31 2842 1790 Wanda Skonieczny 52 38:41 00:36:14 11:40
32 4111 1888 Maria Perez-Carrillo 53 52:18 00:36:57 11:54
33 3075 1893 Julie Waas 52 41:32 00:36:58 11:54
34 4193 1902 Kathryn Corzo 52 38:45 00:37:03 11:56
35 3096 1926 Patricia Weber 50 43:21 00:37:19 12:01
36 3233 1963 Isabel Ayau 54 40:11 00:37:39 12:08
37 2302 2000 Laurie Mitrani 52 47:00 00:37:58 12:14
38 2172 2022 Elizabeth Luna 52 43:32 00:38:12 12:18
39 4180 2169 Jacqueline Bismarck 52 45:42 00:39:32 12:44
40 2118 2170 Rachel Llanes 51 39:33 00:39:33 12:44
41 1577 2212 Karen Doucette 52 42:08 00:39:55 12:51
42 3781